     2.11           OBSERVATION DATA    G (GPS)             RINEX VERSION / TYPE
teqc 2010Oct21 OPUS Account 20111028 16:57:10UTC            PGM / RUN BY / DATE
C 1685                                                      MARKER NAME
2078                                                        MARKER NUMBER
CSMIDDLETON NGS                                             OBSERVER / AGENCY
0220316069 TRIMBLE 5700 1.30                                REC # / TYPE / VERS
60183425 TRM41249.00 NONE                                   ANT # / TYPE
  -743019.2055 -5578812.1100  2990842.1313                  APPROX POSITION XYZ
        2.0010        0.0000        0.0000                  ANTENNA: DELTA H/E/N
     1     1                                                WAVELENGTH FACT L1/2
     5    L1    L2    C1    P1    P2                        # / TYPES OF OBSERV
    15                                                      LEAP SECONDS
  2011     8    25     0     0   30.0000000     GPS         TIME OF FIRST OBS
                                                            END OF HEADER
 11  8 25  0  0 30.0000000  0  9G04G17G10G12G09G05G02G25G30
 -77642244.03158 -60455917.29655  21715543.9534                   21715544.3134
 -98779831.10257 -76959542.48255  23187517.8524                   23187518.9574
 -54141315.77358 -42179600.30556  20875413.1254                   20875412.6334
 -38677115.61757 -30097660.91456  21448259.3914                   21448258.1994
 -45157682.07457 -35145621.52354  23654426.1254                   23654428.3444
 -30226200.52056 -23511637.10055  21937625.4384                   21937626.3204
 -63118609.43458 -49171881.29856  20626182.9614                   20626180.0594
  -5641054.73056  -4355145.85653  24137829.1414                   24137832.1914
  -2499613.47356  -1906743.15753  24139480.5634                   24139481.5824
 11  8 25  0  1  0.0000000  0  9G04G17G10G12G09G05G02G25G30
 -77674040.85548 -60480694.05645  21709493.4384                   21709493.1764
 -98836311.59447 -77003553.33044  23176769.7814                   23176771.9494
 -54248067.05148 -42262783.12146  20855098.7814                   20855098.2074
 -38846179.00847 -30229398.57946  21416087.5474                   21416086.6254
 -45188597.08647 -35169711.24544  23648543.2194                   23648546.2274
 -30424058.08246 -23665811.74045  21899974.5164                   21899975.4024
 -63227148.59048 -49256457.25346  20605528.9614                   20605525.6414
  -5849195.57846  -4517333.46243  24098220.8284                   24098223.9344
  -2710045.85546  -2070716.36643  24099437.1094                   24099438.0594
 11  8 25  0  1 30.0000000  0  9G04G17G10G12G09G05G02G25G30
 -77705676.77748 -60505345.44045  21703473.3834                   21703473.0204
 -98892605.09047 -77047418.46245  23166057.7814                   23166059.2854
 -54354157.67248 -42345451.12446  20834910.3204                   20834909.9654
 -39014784.77048 -30360779.66146  21384003.5314                   21384001.6094
 -45219318.68047 -35193650.25744  23642696.7734                   23642700.3914
 -30621575.89546 -23819721.59445  21862387.4694                   21862389.2544
 -63335373.14548 -49340788.06047  20584934.5554                   20584931.4804
  -6057133.13746  -4679362.69443  24058651.9614                   24058653.9344
  -2920223.89546  -2234491.35643  24059440.9144                   24059442.3324
 11  8 25  0  2  0.0000000  0  9G04G17G10G12G09G05G02G25G30
 -77737151.69948 -60529871.37145  21697483.6414                   21697483.6524
 -98948709.43447 -77091136.17144  23155381.7034                   23155382.6764
 -54459585.73848 -42427602.86846  20814848.1564                   20814848.0944
 -39182928.80147 -30491800.94046  21352006.2734                   21352005.0474
 -45249848.33247 -35217439.73744  23636887.6804                   23636891.0394
 -30818749.14846 -23973362.99645  21824866.4924                   21824867.9774
 -63443282.14848 -49424872.98446  20564400.0784                   20564397.1254
  -6264862.90246  -4841229.92443  24019122.5164                   24019124.5234
  -3130143.02046  -2398064.55343  24019494.6724                   24019495.4104
 11  8 25  0  2 30.0000000  0  9G04G17G10G12G09G05G02G25G30
 -77768464.14148 -60554270.67445  21691525.4384                   21691525.4224
 -99004620.40247 -77134703.21945  23144742.1804                   23144743.2814
 -54564347.73448 -42509235.57946  20794912.6644                   20794912.2894
 -39350605.08647 -30622457.75646  21320098.2504                   21320096.9734
 -45280185.76647 -35241079.43844  23631114.7114                   23631118.2114
 -31015571.27347 -24126730.76245  21787413.2034                   21787413.7544
 -63550873.21548 -49508710.16346  20543925.6724                   20543923.4064
  -6472378.64847  -5002930.42543  23979633.5944                   23979635.8594
  -3339796.58246  -2561430.94343  23979599.3134                   23979599.9924
 11  8 25  0  3  0.0000000  0  9G04G17G10G12G09G05G02G25G30
 -77799620.73848 -60578548.54145  21685596.3204                   21685596.3164
 -99060341.92647 -77178122.61745  23134138.5314                   23134139.5394
 -54668447.89848 -42590352.58146  20775102.9144                   20775103.0824
 -39517816.06247 -30752751.98846  21288278.9384                   21288277.8834
 -45310338.84047 -35264575.47244  23625375.9614                   23625379.7234
 -31212044.25047 -24279826.47345  21750025.1644                   21750025.9654
 -63658152.25447 -49592304.19546  20523511.4534                   20523508.7774
  -6679682.37147  -5164465.68944  23940185.4304                   23940187.6214
  -3549186.49246  -2724591.80143  23939753.1414                   23939754.2974
 11  8 25  0  3 30.0000000  0  9G04G17G10G12G09G05G02G25G30
 -77830620.99648 -60602704.61045  21679697.4454                   21679697.4414
 -99115870.99647 -77221392.08344  23123571.6094                   23123572.8634
 -54771883.48848 -42670951.72246  20755420.0394                   20755419.9024
 -39684556.82448 -30882679.82546  21256549.4144                   21256548.3674
 -45340308.72747 -35287928.76544  23619673.1804                   23619676.7894
 -31408162.80547 -24432646.02545  21712705.1414                   21712705.5944
 -63765117.93748 -49675654.05246  20503156.3054                   20503153.6564
  -6886769.06647  -5325831.86443  23900778.0864                   23900779.4844
  -3758307.60246  -2887543.18343  23899958.5634                   23899959.6054
 11  8 25  0  4  0.0000000  0  9G04G17G10G12G09G05G02G25G30
 -76286046.60948 -59399140.17345  21973620.0634                   21973620.1994
 -97595786.34847 -76036910.60745  23412834.5634                   23412835.5204
 -53299232.33648 -41523431.31846  21035656.1334                   21035656.0634
 -38275400.64148 -29784636.02646  21524703.1174                   21524701.6994
 -43794678.65246 -34083541.82544  23913797.0164                   23913800.8014
 -30028498.44947 -23357582.78545  21975246.6414                   21975246.8364
 -62296348.93747 -48531158.69746  20782653.8444                   20782651.1644
  -5518210.12947  -4259422.25744  24161206.0634                   24161207.9534
  -2391730.98446  -1822678.18343  24160009.6954                   24160009.7234
 11  8 25  0  4 30.0000000  0  9G04G17G10G12G09G05G02G25G30
 -76316734.99248 -59423053.22045  21967780.0784                   21967779.9414
 -97650924.04747 -76079875.08845  23402342.4454                   23402343.5944
 -53401334.71948 -41602991.59546  21016226.6564                   21016227.0164
 -38441189.73048 -29913822.29646  21493154.2114                   21493153.1254
 -43824287.29746 -34106613.66544  23908162.7814                   23908166.1684
 -30223894.63347 -23509839.44045  21938064.1094                   21938063.9264
 -62402686.41447 -48614019.05246  20762418.5164                   20762416.0274
  -5724849.95747  -4420440.21644  24121883.7974                   24121886.2304
  -2600300.94146  -1985200.16843  24120319.8204                   24120319.8204
 11  8 25  0  5  0.0000000  0  9G04G17G10G12G09G05G02G25G30
 -76347271.22348 -59446847.69745  21961969.1254                   21961969.1374
 -97705866.15647 -76122687.18545  23391887.4774                   23391888.7624
 -53502771.73848 -41682033.39646  20996923.5784                   20996923.6914
 -38606500.61748 -30042635.93946  21461696.8984                   21461695.8284
 -43853721.31246 -34129549.43743  23902562.0704                   23902565.4654
 -30418926.63347 -23661812.30845  21900950.6484                   21900950.7034
 -62508712.62147 -48696636.84346  20742242.3134                   20742239.8404
  -5931263.42247  -4581281.76644  24082604.5084                   24082607.5274
  -2808592.13346  -2147504.95543  24080683.3674                   24080683.0744
 11  8 25  0  5 30.0000000  0  9G04G17G10G12G09G05G02G25G30
 -76377654.35948 -59470522.89045  21956187.5394                   21956187.6024
 -97760609.29347 -76165344.21345  23381469.9454                   23381471.6954
 -53603540.09048 -41760554.14846  20977747.8364                   20977748.2234
 -38771327.91847 -30171072.76646  21430331.3524                   21430330.1994
 -43882981.18746 -34152349.47044  23896994.4064                   23896998.5664
 -30613588.44547 -23813496.71045  21863907.4384                   21863907.4064
 -62614425.70347 -48779010.64246  20722125.5864                   20722123.0904
  -6137444.80547  -4741942.52544  24043369.1954                   24043372.2194
  -3016598.70747  -2309587.87143  24041101.5004                   24041101.6524
 11  8 25  0  6  0.0000000  0  9G04G17G10G12G09G05G02G25G30
 -76407887.22348 -59494080.94545  21950434.5554                   21950434.1914
 -97815153.54347 -76207846.29745  23371089.8444                   23371091.6174
 -53703640.84048 -41838554.68646  20958699.5084                   20958699.4804
 -38935670.05948 -30299131.55046  21399057.6954                   21399056.9304
 -43912071.12546 -34175017.12144  23891458.6644                   23891463.0124
 -30807877.99247 -23964891.05345  21826935.6094                   21826935.5004
 -62719827.58647 -48861141.96346  20702068.5554                   20702065.7384
  -6343392.37147  -4902421.05144  24004178.6564                   24004181.2974
  -3224318.64547  -2471447.46643  24001573.8594                   24001574.0594
 11  8 25  0  6 30.0000000  0  9G04G17G10G12G09G05G02G25G30
 -76437971.91847 -59517523.58045  21944709.9614                   21944709.4414
 -97869499.03547 -76250193.51344  23360748.8984                   23360749.9414
 -53803074.84848 -41916035.69646  20939777.6804                   20939777.5434
 -39099525.63747 -30426811.19646  21367876.7894                   21367875.8834
 -43940994.95346 -34197555.36343  23885954.4774                   23885958.7544
 -31001793.43047 -24115993.89645  21790034.1804                   21790034.4304
 -62824920.23047 -48943032.30746  20682070.0864                   20682067.3164
  -6549104.02747  -5062715.74544  23965032.6334                   23965035.5274
  -3431749.64546  -2633081.94743  23962101.0634                   23962101.1524
 11  8 25  0  7  0.0000000  0  9G04G17G10G12G09G05G02G25G30
 -76467909.23448 -59540851.36345  21939012.7974                   21939013.3204
 -97923643.58647 -76292384.11945  23350445.9384                   23350446.3714
 -53901840.30148 -41992995.75446  20920982.9694                   20920983.3754
 -39262890.91847 -30554108.79346  21336789.7974                   21336788.8164
 -43969754.57846 -34219965.61243  23880481.6564                   23880486.2234
 -31195329.88747 -24266801.41945  21753205.1884                   21753205.5704
 -62929702.97748 -49024681.18447  20662130.7584                   20662127.6174
  -6754575.68747  -5222823.39244  23925933.0474                   23925935.9574
  -3638887.47747  -2794487.98644  23922683.4144                   23922684.3794
 11  8 25  0  7 30.0000000  0  9G04G17G10G12G09G05G02G25G30
 -76497700.09848 -59564065.02345  21933343.6644                   21933343.9494
 -97977586.23047 -76334417.38745  23340180.6724                   23340181.5274
 -53999937.04748 -42069434.72646  20902315.9144                   20902316.0984
 -39425762.93447 -30681022.03046  21305796.2584                   21305795.3054
 -43998352.56246 -34242249.95043  23875040.4924                   23875043.5594
 -31388484.18447 -24417311.14245  21716449.1334                   21716449.6254
 -63034176.48048 -49106089.07946  20642249.9614                   20642247.2344
  -6959803.94547  -5382741.39144  23886878.9224                   23886881.4304
  -3845728.49646  -2955662.75443  23883322.8134                   23883324.3164
 11  8 25  0  8  0.0000000  0  9G04G17G10G12G09G05G02G25G30
 -76527345.66447 -59587165.51245  21927702.7034                   21927702.5514
 -98031325.42647 -76376292.14845  23329954.3284                   23329955.8164
 -54097364.20748 -42145351.95846  20883775.9694                   20883775.8674
 -39588138.50847 -30807548.42846  21274897.3134                   21274896.0354
 -44026791.47346 -34264410.35043  23869629.3914                   23869631.3594
 -31581252.72747 -24567520.29245  21679766.1254                   21679766.7154
 -63138340.91448 -49187256.16446  20622427.9924                   20622425.1954
  -7164785.28546  -5542466.95844  23847872.3054                   23847874.8984
  -4052269.14846  -3116603.42043  23844018.6414                   23844020.2814
 11  8 25  0  8 30.0000000  0  9G04G17G10G12G09G05G02G25G30
 -76556848.41448 -59610154.69445  21922088.1094                   21922088.6604
 -98084861.29747 -76418008.45845  23319766.5784                   23319768.4574
 -54194122.78548 -42220748.22346  20865363.7034                   20865363.8094
 -39750016.51648 -30933687.12446  21244092.6484                   21244091.7194
 -44055075.28947 -34286449.90344  23864247.0234                   23864250.1334
 -31773633.43447 -24717427.23645  21643157.4454                   21643158.0434
 -63242198.49248 -49268184.12546  20602664.6484                   20602661.8554
  -7369517.84447  -5701998.74744  23808912.4144                   23808916.1604
  -4258507.19146  -3277308.31243  23804772.8284                   23804774.0164
 11  8 25  0  9  0.0000000  0  9G04G17G10G12G09G05G02G25G30
 -76586207.42647 -59633031.87345  21916501.4454                   21916501.9104
 -98138190.54747 -76459563.77745  23309618.7424                   23309620.5004
 -54290210.55148 -42295621.76946  20847078.6724                   20847078.6134
 -39911391.71148 -31059433.99846  21213384.3444                   21213383.3984
 -44083204.65647 -34308369.07943  23858894.5554                   23858896.7854
 -31965620.92247 -24867027.77445  21606623.3984                   21606623.4024
 -63345747.37548 -49348871.55647  20582959.8754                   20582956.9144
  -7573996.12147  -5861332.39044  23770001.7814                   23770005.1134
  -4464437.03546  -3437773.00643  23765585.8364                   23765585.4264
 11  8 25  0  9 30.0000000  0  9G04G17G10G12G09G05G02G25G30
 -76615426.57847 -59655800.07545  21910941.2584                   21910940.8444
 -98191314.71947 -76500959.30045  23299509.5474                   23299511.0824
 -54385630.11348 -42369974.64146  20828921.0084                   20828920.8524
 -40072264.15648 -31184789.13346  21182771.5084                   21182770.4184
 -44111184.91446 -34330172.07244  23853570.2734                   23853572.6994
 -32157214.46947 -25016321.35145  21570164.4304                   21570164.5664
 -63448990.53548 -49429320.75947  20563313.3054                   20563310.4024
  -7778219.63347  -6020467.49344  23731138.9534                   23731142.8054
  -4670057.93446  -3597997.00943  23726457.9224                   23726456.9454
 11  8 25  0 10  0.0000000  0  9G04G17G10G12G09G05G02G25G30
 -76644506.83647 -59678460.05445  21905407.2664                   21905407.5124
 -98244232.36347 -76542193.92145  23289440.3134                   23289441.2544
 -54480380.37948 -42443805.98646  20810890.5394                   20810890.3794
 -40232630.87148 -31309750.19446  21152254.4694                   21152253.4804
 -44139018.71147 -34351860.93843  23848274.1174                   23848276.9654
 -32348410.18447 -25165304.91945  21533781.1094                   21533781.2934
 -63551929.06648 -49509532.58246  20543724.8364                   20543721.7854
  -7982184.72747  -6179401.27344  23692325.9694                   23692329.5634
  -4875366.11346  -3757977.25243  23687389.2814                   23687388.6764
 11  8 25  0 10 30.0000000  0  9G04G17G10G12G09G05G02G25G30
 -76673448.20347 -59701011.81045  21899900.3204                   21899899.9654
 -98296941.37947 -76583265.91345  23279409.5234                   23279410.4304
 -54574459.98848 -42517114.73946  20792988.1724                   20792987.5044
 -40392487.96148 -31434314.15746  21121834.6724                   21121833.7424
 -44166707.82447 -34373437.07744  23843005.1174                   23843008.0514
 -32539203.90647 -25313975.24845  21497474.3754                   21497474.4184
 -63654561.97348 -49589506.26946  20524194.5634                   20524191.5434
  -8185887.07847  -6338130.36044  23653562.8524                   23653565.7854
  -5080357.15247  -3917710.40743  23648380.3524                   23648381.0164
 11  8 25  0 11  0.0000000  0  9G04G17G10G12G09G05G02G25G30
 -76702258.08247 -59723461.08645  21894417.8134                   21894418.1884
 -98349446.73047 -76624179.22044  23269418.3364                   23269419.0744
 -54667875.07848 -42589905.69346  20775211.9304                   20775211.3794
 -40551838.64547 -31558483.51446  21091511.2734                   21091510.0864
 -44194260.77346 -34394907.11243  23837761.3594                   23837765.4574
 -32729598.21947 -25462334.35545  21461243.3284                   21461243.5044
 -63756895.93748 -49669247.00546  20504721.0944                   20504717.7424
  -8389329.49247  -6496656.87844  23614849.0394                   23614851.7704
  -5285033.50847  -4077198.35143  23609431.2664                   23609432.9534
 11  8 25  0 11 30.0000000  0  9G04G17G10G12G09G05G02G25G30
 -75155515.28947 -58518207.01245  22188753.2114                   22188754.1214
 -96826324.11747 -75437330.49444  23559258.4614                   23559260.7934
 -53185201.03548 -41434575.25646  21057355.1024                   21057354.5784
 -39135253.84447 -30454651.19546  21361078.0314                   21361077.0824
 -42646257.97746 -33188671.37944  24132336.4924                   24132341.3834
 -31344162.09047 -24382773.62245  21724883.2504                   21724883.0124
 -62283506.89148 -48521151.63447  20785097.5084                   20785094.3594
  -7017080.45747  -5427371.88644  23875979.7584                   23875981.9694
  -3913963.73447  -3008832.17543  23870337.3914                   23870338.2194
 11  8 25  0 12  0.0000000  0  9G04G17G10G12G09G05G02G25G30
 -75184065.23047 -58540453.76745  22183320.2274                   22183321.4224
 -96878418.05547 -75477923.20944  23549345.9144                   23549347.1414
 -53277286.06648 -41506329.80046  21039831.8054                   21039831.0984
 -39293583.28547 -30578024.77446  21330948.8914                   21330947.9344
 -42673546.17246 -33209935.13043  24127142.5234                   24127149.0204
 -31533747.13747 -24530502.13845  21688806.0234                   21688806.1094
 -62385244.31248 -48600427.53747  20765737.5634                   20765734.4384
  -7219992.60547  -5585485.25044  23837366.4774                   23837368.3954
  -4118000.22747  -3167821.56843  23831510.2034                   23831511.2774
 11  8 25  0 12 30.0000000  0  9G04G17G10G12G09G05G02G25G30
 -75212486.38747 -58562600.15545  22177911.8364                   22177912.8834
 -96930304.10947 -75518353.93945  23539472.6564                   23539473.9144
 -53368705.08248 -41577565.38446  21022435.4224                   21022434.4104
 -39451397.59848 -30700996.94746  21300918.1334                   21300916.6884
 -42700705.47746 -33231098.42343  24121974.9144                   24121980.5044
 -31722922.14847 -24677911.14345  21652807.0474                   21652807.3094
 -62486683.71948 -48679471.21847  20746434.1564                   20746431.2464
  -7422634.19547  -5743387.75244  23798804.9844                   23798806.7624
  -4321710.96147  -3326557.10743  23792745.3524                   23792746.2304
 11  8 25  0 13  0.0000000  0  9G04G17G10G12G09G05G02G25G30
 -75240780.34047 -58584647.40745  22172527.6414                   22172528.0634
 -96981981.72347 -75558622.27644  23529638.2734                   23529640.2934
 -53459458.51648 -41648282.31646  21005165.6954                   21005165.0084
 -39608694.64148 -30823566.04746  21270985.4534                   21270984.0354
 -42727739.20346 -33252163.79743  24116830.6804                   24116836.5124
 -31911684.30947 -24824998.45845  21616886.6884                   21616886.8524
 -62587826.34448 -48758283.64347  20727187.6024                   20727184.3914
  -7625002.34447  -5901077.21744  23760295.8134                   23760297.8714
  -4525093.09447  -3485036.59743  23754043.3054                   23754042.7504
 11  8 25  0 13 30.0000000  0  9G04G17G10G12G09G05G02G25G30
 -75268949.85947 -58606597.71545  22167166.9454                   22167168.0204
 -97033451.45347 -75598728.59844  23519844.2664                   23519845.9694
 -53549547.93048 -41718481.85146  20988022.1724                   20988021.5164
 -39765473.33248 -30945731.23546  21241151.5554                   21241150.1564
 -42754651.62946 -33273134.77443  24111709.4774                   24111715.4614
 -32100031.86347 -24971762.69845  21581045.4844                   21581045.9884
 -62688674.15648 -48836866.34447  20707996.6724                   20707993.6214
  -7827095.35246  -6058552.24944  23721838.0474                   23721841.3204
  -4728144.78946  -3643258.61243  23715403.6254                   23715403.6254
 11  8 25  0 14  0.0000000  0  9G04G17G10G12G09G05G02G25G30
 -75296996.68447 -58628452.39645  22161830.0704                   22161830.5234
 -97084712.73047 -75638672.48344  23510089.3134                   23510091.1914
 -53638974.00048 -41788164.47646  20971004.9694                   20971004.0004
 -39921731.39548 -31067490.74346  21211416.9224                   21211415.0044
 -42781445.85946 -33294013.59243  24106610.6564                   24106616.5984
 -32287962.12547 -25118201.76445  21545283.1724                   21545284.2274
 -62789228.62548 -48915220.46546  20688862.0394                   20688859.0004
  -8028910.62546  -6215810.86244  23683434.2814                   23683437.9614
  -4930863.20746  -3801220.94044  23676827.9144                   23676827.3524
 11  8 25  0 14 30.0000000  0  9G04G17G10G12G09G05G02G25G30
 -75324925.60547 -58650215.23945  22156515.4614                   22156516.0474
 -97135768.19947 -75678456.03044  23500373.4534                   23500374.9694
 -53727740.05948 -41857332.82546  20954112.9384                   20954112.6374
 -40077469.89848 -31188845.39146  21181780.5704                   21181779.0514
 -42808128.43746 -33314805.46743  24101534.4454                   24101538.7774
 -32475475.58647 -25264316.06645  21509600.5944                   21509601.0744
 -62889493.69548 -48993349.07847  20669782.0784                   20669779.1454
  -8230448.46547  -6372853.28844  23645083.0634                   23645086.3164
  -5133248.53146  -3958923.72144  23638315.2114                   23638315.6294
 11  8 25  0 15  0.0000000  0  9G04G17G10G12G09G05G02G25G30
 -75352735.34448 -58671885.20645  22151223.5864                   22151224.1954
 -97186614.19147 -75718076.33044  23490698.1094                   23490699.4454
 -53815843.68048 -41925984.99146  20937347.5084                   20937346.9654
 -40232683.71948 -31309791.19246  21152244.0164                   21152243.1134
 -42834699.37546 -33335510.28944  24096478.7034                   24096482.7234
 -32662566.12547 -25410100.82645  21473998.1174                   21473998.3634
 -62989467.77048 -49071250.93847  20650757.5234                   20650754.6844
  -8431703.10247  -6529675.01845  23606786.2194                   23606788.5864
  -5335294.86747  -4116362.36944  23599866.6564                   23599867.0744
 11  8 25  0 15 30.0000000  0  9G04G17G10G12G09G05G02G25G30
 -75380426.13347 -58693462.46745  22145953.8364                   22145955.1054
 -97237248.85947 -75757531.96044  23481062.9224                   23481063.3794
 -53903284.24248 -41994120.47746  20920708.3674                   20920708.2234
 -40387369.87548 -31430325.85146  21122808.1954                   21122807.2704
 -42861160.55946 -33356129.62044  24091443.2734                   24091447.6454
 -32849230.55147 -25555553.56045  21438476.6484                   21438476.9534
 -63089150.63348 -49148925.87947  20631788.4614                   20631785.0944
  -8632670.51247  -6686272.93945  23568543.3444                   23568546.1804
  -5536998.04346  -4273533.62844  23561483.4924                   23561484.4884
 11  8 25  0 16  0.0000000  0  9G04G17G10G12G09G05G02G25G30
 -75407996.73047 -58714946.07745  22140707.4144                   22140708.1174
 -97287668.84447 -75796820.28944  23471468.3284                   23471469.3284
 -53990059.43748 -42061737.50846  20904195.1564                   20904195.1254
 -40541523.49648 -31550445.53346  21093473.4384                   21093472.6844
 -42887512.61747 -33376663.87744  24086429.3754                   24086433.3204
 -33035462.75847 -25700669.49945  21403038.3834                   21403038.1414
 -63188540.63748 -49226372.60546  20612875.3204                   20612871.7814
  -8833345.03147  -6842642.58345  23530355.6094                   23530358.9104
  -5738352.21546  -4430432.94944  23523167.0864                   23523167.8524
 11  8 25  0 16 30.0000000  0  9G04G17G10G12G09G05G02G25G30
 -75435454.00047 -58736341.37045  22135481.8754                   22135483.6134
 -97337879.02747 -75835945.10944  23461913.7274                   23461915.2704
 -54076175.09847 -42128840.61346  20887808.0704                   20887808.2464
 -40695147.43748 -31670152.48346  21064239.9694                   21064239.1524
 -42913763.79747 -33397119.55144  24081433.9454                   24081437.6844
 -33221265.22347 -25845450.56245  21367681.0004                   21367681.3204
 -63287643.78148 -49303595.82246  20594016.3914                   20594013.3954
  -9033729.10947  -6998785.93745  23492223.5554                   23492226.2504
  -5939359.66846  -4587062.14644  23484916.8914                   23484917.4104
 11  8 25  0 17  0.0000000  0  9G04G17G10G12G09G05G02G25G30
 -75462798.16447 -58757648.52545  22130278.6804                   22130280.2344
 -97387877.21147 -75874904.81844  23452398.7114                   23452400.9964
 -54161630.54748 -42195429.26246  20871546.4384                   20871546.2974
 -40848238.25048 -31789444.00646  21035108.1644                   21035106.6684
 -42939915.71547 -33417497.87144  24076457.3914                   24076461.6214
 -33406633.94547 -25989893.65045  21332406.5784                   21332407.0634
 -63386459.99648 -49380595.44547  20575212.2894                   20575209.3754
  -9233818.66447  -7154699.76444  23454147.9774                   23454150.0004
  -6140016.17246  -4743417.83944  23446733.3524                   23446734.2114
 11  8 25  0 17 30.0000000  0  9G04G17G10G12G09G05G02G25G30
 -75490028.27747 -58778866.78345  22125097.8134                   22125098.0904
 -97437659.95747 -75913696.59144  23442925.6484                   23442927.8204
 -54246423.89848 -42261502.00046  20855410.8754                   20855410.8794
 -41000791.47348 -31908316.61846  21006078.0234                   21006076.7384
 -42965969.27747 -33437799.53244  24071499.8674                   24071504.6414
 -33591563.69948 -26133994.66745  21297216.0084                   21297215.9924
 -63484987.93448 -49457370.44046  20556463.0864                   20556460.0274
  -9433608.41447  -7310380.01244  23416128.9924                   23416131.6994
  -6340316.39147  -4899495.88644  23408617.6174                   23408618.1724
 11  8 25  0 18  0.0000000  0  9G04G17G10G12G09G05G02G25G30
 -75517148.53147 -58799999.44745  22119937.1804                   22119937.4024
 -97487229.86347 -75952322.53044  23433493.1804                   23433494.1024
 -54330558.59448 -42327061.48946  20839400.5474                   20839400.3754
 -41152807.86348 -32026770.91746  20977150.2194                   20977148.6684
 -42991930.03946 -33458028.89644  24066559.6724                   24066564.4884
 -33776054.75048 -26277753.85545  21262108.1094                   21262108.1294
 -63583230.97348 -49533923.43946  20537768.1804                   20537765.3674
  -9633098.09847  -7465826.41644  23378167.2504                   23378170.4414
  -6540259.82047  -5055295.98044  23370569.6724                   23370570.2774
 11  8 25  0 18 30.0000000  0  9G04G17G10G12G09G05G02G25G30
 -75544159.48847 -58821046.95145  22114797.1724                   22114797.5474
 -97536585.28546 -75990781.39544  23424101.3284                   23424102.6174
 -54414034.00048 -42392107.26346  20823515.7664                   20823515.6174
 -41304284.03948 -32144804.26946  20948325.0314                   20948324.0124
 -43017800.22746 -33478187.71344  24061637.3914                   24061642.0554
 -33960103.01648 -26421168.00545  21227084.8284                   21227084.5124
 -63681189.66048 -49610254.86546  20519127.0784                   20519124.3054
  -9832283.78947  -7621035.91445  23340263.8834                   23340266.7974
  -6739842.39547  -5210814.80044  23332590.5084                   23332590.5084
 11  8 25  0 19  0.0000000  0  9G04G17G10G12G09G05G02G25G30
 -73995640.45348 -57614408.76345  22409470.4384                   22409470.8094
 -96010303.16046 -74801470.74144  23714542.8444                   23714544.2154
 -52921427.69948 -41229037.41046  21107549.3674                   21107548.9454
 -39879792.21948 -31034810.60446  21219397.1724                   21219395.9614
 -41468161.13747 -32270676.92144  24356524.2584                   24356528.5004
 -32568278.98048 -25336629.70645  21491940.2664                   21491939.6484
 -62203440.68448 -48458762.13646  20800333.3594                   20800330.4304
  -8455735.27047  -6548400.59545  23602212.2274                   23602215.1094
  -5363633.78947  -4138444.42544  23594473.8674                   23594474.2194
 11  8 25  0 19 30.0000000  0  9G04G17G10G12G09G05G02G25G30
 -74022436.10547 -57635288.50545  22404371.4774                   22404371.3794
 -96059226.81247 -74839593.06044  23705233.0634                   23705233.8244
 -53003586.55148 -41293057.29146  21091915.1334                   21091914.7304
 -40030181.22348 -31151996.80946  21190779.0474                   21190777.8284
 -41493858.35247 -32290700.90543  24351633.0784                   24351638.7894
 -32751432.85948 -25479346.95545  21457086.9694                   21457087.5514
 -62300832.49648 -48534651.84446  20781800.1884                   20781797.1884
  -8654304.00447  -6703129.41445  23564425.8284                   23564428.2934
  -5562485.27347  -4293393.55644  23556633.5634                   23556633.7624
 11  8 25  0 20  0.0000000  0  9G04G17G10G12G09G05G02G25G30
 -74049127.48447 -57656087.03145  22399292.0164                   22399292.6764
 -96107934.82446 -74877547.39544  23695964.9844                   23695965.0904
 -53085089.19148 -41356565.81846  21076405.7664                   21076405.3014
 -40180025.32048 -31268758.42346  21162264.6724                   21162262.9024
 -41519474.96146 -32310662.06144  24346758.6024                   24346763.6954
 -32934136.67648 -25621713.47445  21422319.7034                   21422320.0234
 -62397943.65248 -48610322.85746  20763320.5944                   20763317.4064
  -8852561.14147  -6857615.41944  23526698.2194                   23526701.5784
  -5760967.98046  -4448055.36144  23518863.5554                   23518863.3874
 11  8 25  0 20 30.0000000  0  9G04G17G10G12G09G05G02G25G30
 -74075715.66847 -57676805.14145  22394232.2274                   22394233.2114
 -96156426.27046 -74915332.97044  23686737.1254                   23686737.5704
 -53165935.96148 -41419563.29746  21061021.1254                   21061020.4964
 -40329321.66848 -31385093.21546  21133854.0554                   21133852.9224
 -41545013.44146 -32330562.41944  24341898.5864                   24341904.0514
 -33116387.41848 -25763726.95445  21387638.2504                   21387638.5904
 -62494774.89548 -48685775.75246  20744894.2424                   20744891.1954
  -9050503.28547  -7011855.97945  23489031.5234                   23489034.0744
  -5959078.39547  -4602427.05744  23481164.4774                   23481164.5744
 11  8 25  0 21  0.0000000  0  9G04G17G10G12G09G05G02G25G30
 -74102201.25847 -57697443.29745  22389192.0084                   22389193.1024
 -96204699.55146 -74952948.59344  23677551.1804                   23677551.8444
 -53246126.60248 -41482049.50346  21045761.1954                   21045760.9454
 -40478067.28148 -31500998.87846  21105548.8284                   21105547.6524
 -41570476.02046 -32350403.61143  24337054.0084                   24337059.4654
 -33298181.25448 -25905384.41545  21353044.1644                   21353043.8834
 -62591326.36748 -48761010.65646  20726521.3984                   20726518.2384
  -9248126.86747  -7165848.29844  23451424.7664                   23451427.0664
  -6156812.66847  -4756505.64744  23443537.1884                   23443537.4304
 11  8 25  0 21 30.0000000  0  9G04G17G10G12G09G05G02G25G30
 -74128586.57047 -57718003.30245  22384171.4614                   22384172.1454
 -96252755.25846 -74990394.66044  23668405.4144                   23668407.3914
 -53325663.16048 -41544026.02346  21030625.9224                   21030625.6454
 -40626261.30148 -31616474.71646  21077348.2814                   21077347.1804
 -41595866.78547 -32370188.87543  24332222.6724                   24332228.4064
 -33479516.86748 -26046684.83345  21318537.1094                   21318536.9804
 -62687599.91848 -48836029.00346  20708201.1094                   20708197.5594
  -9445429.94947  -7319590.88844  23413879.0634                   23413881.4184
  -6354168.99246  -4910289.73144  23405981.6174                   23405981.4694
 11  8 25  0 22  0.0000000  0  9G04G17G10G12G09G05G02G25G30
 -74154872.59047 -57738485.93045  22379169.6334                   22379169.7424
 -96300592.16046 -75027670.22444  23659303.1094                   23659304.3134
 -53404545.78148 -41605492.98646  21015615.2584                   21015614.4844
 -40773901.06648 -31731518.67446  21049253.5234                   21049252.6764
 -41621188.15246 -32389920.02943  24327404.3834                   24327409.7114
 -33660390.73048 -26187625.42845  21284117.7894                   21284117.7034
 -62783595.76648 -48910830.95046  20689933.4064                   20689930.5864
  -9642409.13347  -7473081.09444  23376395.3054                   23376397.1054
  -6551143.79747  -5063776.50644  23368497.9844                   23368498.5864
 11  8 25  0 22 30.0000000  0  9G04G17G10G12G09G05G02G25G30
 -74181060.80947 -57758892.34945  22374186.4224                   22374186.6024
 -96348210.17646 -75064775.23744  23650241.5084                   23650243.3244
 -53482775.71948 -41666451.36146  21000728.5004                   21000728.0664
 -40920985.48448 -31846129.89846  21021264.6884                   21021263.5824
 -41646443.36746 -32409599.62943  24322598.4924                   24322603.5984
 -33840800.92647 -26328204.73945  21249787.1254                   21249786.9694
 -62879315.93748 -48985418.08646  20671718.5554                   20671715.3714
  -9839061.96947  -7626316.98644  23338973.4144                   23338975.4104
  -6747734.42246  -5216963.90944  23331087.7114                   23331088.6134
 11  8 25  0 23  0.0000000  0  9G04G17G10G12G09G05G02G25G30
 -74207149.14847 -57779220.95745  22369222.1334                   22369222.2854
 -96395604.87946 -75101706.21644  23641222.9454                   23641224.5554
 -53560350.03148 -41726898.84546  20985966.2194                   20985965.8244
 -41067508.36348 -31960303.55446  20993382.2194                   20993380.8134
 -41671631.91446 -32429227.27743  24317805.7734                   24317810.8984
 -34020740.91047 -26468417.63545  21215545.3834                   21215545.2544
 -62974757.54348 -49059788.16546  20653556.5784                   20653553.7624
 -10035381.96947  -7779293.51945  23301614.8524                   23301617.0944
  -6943934.27046  -5369846.80544  23293752.0784                   23293753.2114
 11  8 25  0 23 30.0000000  0  9G04G17G10G12G09G05G02G25G30
 -74233143.48847 -57799476.31745  22364275.1954                   22364275.8484
 -96442780.39846 -75138466.41644  23632245.4614                   23632247.5204
 -53637274.35547 -41786839.85546  20971328.3204                   20971327.5664
 -41213472.72348 -32074041.97346  20965605.8444                   20965604.6294
 -41696761.23846 -32448808.70743  24313023.8054                   24313028.9224
 -34200212.66047 -26608265.68945  21181392.8204                   21181393.2464
 -63069925.89548 -49133945.32546  20635446.6804                   20635443.6804
 -10231370.66846  -7932011.91045  23264319.3054                   23264321.3244
  -7139744.98046  -5522426.49744  23256489.9224                   23256491.2194
 11  8 25  0 24  0.0000000  0  9G04G17G10G12G09G05G02G25G30
 -74259045.37947 -57819659.65445  22359346.2344                   22359347.1804
 -96489736.28146 -75175055.46444  23623310.5164                   23623311.3164
 -53713550.09847 -41846275.49346  20956813.2344                   20956812.7304
 -41358877.21148 -32187344.16446  20937936.5554                   20937934.6414
 -41721834.78946 -32468346.76643  24308252.4844                   24308257.4494
 -34379213.93747 -26747747.12745  21147330.3754                   21147330.2034
 -63164822.93448 -49207891.06246  20617388.3754                   20617385.1884
 -10427025.59447  -8084470.21445  23227087.5164                   23227089.8874
  -7335163.80946  -5674700.77644  23219303.2734                   23219303.7464
 11  8 25  0 24 30.0000000  0  9G04G17G10G12G09G05G02G25G30
 -74284857.01247 -57839772.65645  22354434.7424                   22354435.6604
 -96536472.82446 -75211473.54444  23614416.7894                   23614416.9654
 -53789178.80147 -41905206.93646  20942421.8364                   20942421.0514
 -41503720.01648 -32300208.66046  20910373.8364                   20910371.7664
 -41746855.95746 -32487844.04143  24303490.6094                   24303496.5314
 -34557742.52347 -26886860.25545  21113356.9774                   21113357.4654
 -63259449.86348 -49281626.33546  20599381.6804                   20599378.3634
 -10622344.51647  -8236666.72145  23189918.9304                   23189922.1564
  -7530188.46146  -5826667.95344  23182191.6414                   23182191.3914
 11  8 25  0 25  0.0000000  0  9G04G17G10G12G09G05G02G25G30
 -74310579.13347 -57859815.88745  22349539.3364                   22349540.0984
 -96582988.65247 -75247719.72344  23605565.3444                   23605565.1764
 -53864160.73447 -41963634.38446  20928153.2504                   20928152.0864
 -41647999.13348 -32412633.91746  20882918.1484                   20882916.3134
 -41771827.30146 -32507302.47143  24298739.1254                   24298744.1804
 -34735795.47347 -27025602.74545  21079474.5634                   21079474.8834
 -63353807.30948 -49355151.62246  20581426.0474                   20581422.7774
 -10817323.99647  -8388598.71445  23152815.6644                   23152818.6414
  -7724815.48047  -5978325.23644  23145154.9144                   23145155.1954
 11  8 25  0 25 30.0000000  0  9G04G17G10G12G09G05G02G25G30
 -74336214.43747 -57879791.47545  22344660.9534                   22344662.5904
 -96629285.03546 -75283794.86944  23596755.5084                   23596755.1844
 -53938498.40648 -42021559.83546  20914007.1334                   20914006.2664
 -41791714.25848 -32524619.70246  20855570.3594                   20855568.5164
 -41796752.91846 -32526725.34643  24293996.4844                   24294001.0514
 -34913371.82847 -27163973.85745  21045682.9304                   21045682.7854
 -63447897.35248 -49428468.53646  20563521.2894                   20563517.8634
 -11011962.64847  -8540265.13945  23115777.0864                   23115779.6374
  -7919043.40647  -6129671.61444  23108194.7664                   23108195.1994
 11  8 25  0 26  0.0000000  0  9G04G17G10G12G09G05G02G25G30
 -72786344.32047 -56672100.52145  22639592.3204                   22639592.5204
 -95099940.76246 -74092098.12644  23887779.8284                   23887780.4884
 -52436771.21947 -40851382.78545  21199775.6724                   21199775.6564
 -40359439.29348 -31408561.27146  21128123.1024                   21128121.5044
 -40246216.05546 -31318514.99943  24589053.7814                   24589058.6094
 -33515044.09447 -26074367.77745  21311776.0004                   21311775.7234
 -61966299.25448 -48273976.50846  20845459.6884                   20845456.4144
  -9630832.21147  -7464059.52245  23378597.7584                   23378600.2194
  -6537443.79747  -5053100.39044  23371104.4144                   23371105.0274
 11  8 25  0 26 30.0000000  0  9G04G17G10G12G09G05G02G25G30
 -72811813.52347 -56691946.67345  22634745.4384                   22634745.8014
 -95145799.93047 -74127832.53744  23879053.3284                   23879053.4384
 -52509827.09447 -40908309.40946  21185873.6804                   21185873.3164
 -40502023.91448 -31519666.14146  21100990.0554                   21100988.5594
 -40271063.39146 -31337876.78343  24584325.7344                   24584330.4024
 -33691663.04347 -26211992.87745  21278166.3444                   21278166.4494
 -62059861.93048 -48346882.48846  20827655.3524                   20827652.4454
  -9824784.48847  -7615191.07745  23341689.9064                   23341691.2274
  -6730868.38347  -5203820.75044  23334296.9224                   23334297.6564
 11  8 25  0 27  0.0000000  0  9G04G17G10G12G09G05G02G25G30
 -72837200.60247 -56711728.85245  22629914.8364                   22629914.9144
 -95191438.67246 -74163395.22544  23870367.6804                   23870369.0124
 -52582242.39847 -40964736.89046  21172093.4224                   21172093.2504
 -40644040.03948 -31630328.03746  21073965.3984                   21073964.0784
 -40295874.91846 -31357210.69744  24579605.0554                   24579610.2304
 -33867798.24647 -26349241.03245  21244649.2424                   21244648.8754
 -62153161.43748 -48419583.40346  20809901.4304                   20809897.9614
 -10018388.16447  -7766051.00445  23304848.1484                   23304850.3594
  -6923885.79747  -5354223.85944  23297566.9224                   23297567.2894
 11  8 25  0 27 30.0000000  0  9G04G17G10G12G09G05G02G25G30
 -72862507.34847 -56731448.41045  22625099.1334                   22625099.1054
 -95236857.06246 -74198786.25944  23861725.2194                   23861727.1334
 -52654019.06247 -41020666.72246  21158435.2274                   21158434.4534
 -40785486.18048 -31740545.79346  21047049.1414                   21047047.3524
 -40320654.23046 -31376519.52544  24574889.3364                   24574895.6334
 -34043448.06647 -26486110.95145  21211223.7734                   21211223.6174
 -62246199.30148 -48492080.44046  20792196.5944                   20792193.6804
 -10211641.00847  -7916637.57145  23268073.2344                   23268075.2384
  -7116493.77047  -5504307.91044  23260914.8284                   23260915.2384
 11  8 25  0 28  0.0000000  0  9G04G17G10G12G09G05G02G25G30
 -72887735.43747 -56751106.68245  22620298.2274                   22620298.5044
 -95282054.89146 -74234005.40444  23853124.6954                   23853125.7154
 -52725158.63348 -41076100.12446  21144897.6094                   21144897.4384
 -40926361.10948 -31850318.46246  21020241.5944                   21020240.2464
 -40345404.39146 -31395805.62744  24570180.1414                   24570186.2894
 -34218610.48847 -26622601.09445  21177891.4924                   21177891.5314
 -62338976.83248 -48564374.61946  20774541.7584                   20774538.5314
 -10404540.59047  -8066948.85745  23231365.5784                   23231366.8954
  -7308689.71946  -5654070.94344  23224341.0474                   23224340.7154
 11  8 25  0 28 30.0000000  0  9G04G17G10G12G09G05G02G25G30
 -72912889.16847 -56770707.00245  22615511.4694                   22615511.6374
 -95327034.60546 -74269054.58744  23844565.0314                   23844566.9384
 -52795665.29348 -41131040.36546  21131480.7584                   21131480.7894
 -41066665.79348 -31959646.76346  20993542.2814                   20993541.0394
 -40370131.15246 -31415073.56244  24565474.9694                   24565481.7624
 -34393285.43447 -26758711.38745  21144651.9844                   21144651.9804
 -62431498.06248 -48636469.07447  20756935.8054                   20756932.3754
 -10597086.87547  -8216984.85345  23194725.1954                   23194727.0044
  -7500473.70347  -5803512.92044  23187845.4224                   23187845.3874
 11  8 25  0 29  0.0000000  0  9G04G17G10G12G09G05G02G25G30
 -72937969.33647 -56790250.01944  22610738.8674                   22610739.2114
 -95371795.37946 -74303933.18844  23836046.9384                   23836048.6724
 -52865540.06648 -41185488.21146  21118184.0234                   21118183.9734
 -41206398.23448 -32068529.17346  20966951.9534                   20966950.7934
 -40394837.28946 -31434325.33844  24560773.7194                   24560780.4224
 -34567470.48447 -26894439.91645  21111505.4774                   21111505.3484
 -62523763.69548 -48708364.37146  20739377.8674                   20739374.5434
 -10789276.79347  -8366743.18645  23158152.5864                   23158154.9844
  -7691842.40646  -5952631.31344  23151429.5474                   23151429.3054
 11  8 25  0 29 30.0000000  0  9G04G17G10G12G09G05G02G25G30
 -72962980.78947 -56809739.48645  22605979.2814                   22605979.6024
 -95416340.44946 -74338643.64844  23827570.8284                   23827572.7384
 -52934787.32848 -41239447.10346  21105006.9694                   21105006.4924
 -41345560.54748 -32176967.32546  20940470.0234                   20940469.1994
 -40419529.44146 -31453566.21344  24556075.8984                   24556081.6884
 -34741166.68448 -27029787.54145  21078452.1724                   21078452.1804
 -62615778.21148 -48780063.98846  20721868.3444                   20721864.9964
 -10981111.12947  -8516224.43945  23121647.7814                   23121650.0234
  -7882796.64546  -6101426.73944  23115092.1334                   23115091.1684
 11  8 25  0 30  0.0000000  0  9G04G17G10G12G09G05G02G25G30
 -72987921.43047 -56829173.76645  22601233.3984                   22601233.8874
 -95460665.80946 -74373182.95644  23819135.5944                   23819138.0434
 -53003405.28948 -41292915.64846  21091949.2734                   21091949.0124
 -41484147.75448 -32284957.35146  20914098.0704                   20914096.8714
 -40444207.03146 -31472795.74543  24551380.1644                   24551385.5434
 -34914368.33247 -27164749.79845  21045493.1334                   21045492.7934
 -62707539.65248 -48851566.40446  20704406.6884                   20704403.5944
 -11172583.85947  -8665423.94345  23085211.5864                   23085214.2344
  -8073330.29346  -6249894.44044  23078834.5634                   23078834.9654
 11  8 25  0 30 30.0000000  0  9G04G17G10G12G09G05G02G25G30
 -73012792.73047 -56848554.01145  22596500.5164                   22596501.3404
 -95504771.03146 -74407550.73944  23810743.0234                   23810744.7344
 -53071394.98048 -41345894.62046  21079011.1644                   21079011.5944
 -41622158.08647 -32392497.86346  20887835.4144                   20887834.0704
 -40468872.92246 -31492016.24743  24546685.9924                   24546691.7154
 -35087072.93747 -27299324.75345  21012628.2344                   21012627.8164
 -62799048.90248 -48922872.31046  20686992.9774                   20686990.1644
 -11363692.08247  -8814339.38645  23048845.1334                   23048847.2544
  -8263440.45347  -6398032.16544  23042657.6644                   23042657.8054
 11  8 25  0 31  0.0000000  0  9G04G17G10G12G09G05G02G25G30
 -73037595.46547 -56867880.83245  22591781.0004                   22591781.3014
 -95548655.64146 -74441746.52144  23802392.3754                   23802394.0044
 -53138757.68448 -41398385.02146  21066192.7584                   21066192.2154
 -41759589.63348 -32499587.36746  20861682.7344                   20861681.3634
 -40493529.92646 -31511229.67843  24541993.2734                   24541999.5944
 -35259278.43447 -27433510.80445  20979858.5704                   20979858.3714
 -62890306.89848 -48993982.43246  20669627.0704                   20669624.0394
 -11554432.84847  -8962968.51745  23012548.0704                   23012550.4534
  -8453124.10547  -6545837.55544  23006562.2034                   23006562.2234
 11  8 25  0 31 30.0000000  0  9G04G17G10G12G09G05G02G25G30
 -73062335.14847 -56887158.54845  22587073.1174                   22587073.5274
 -95592323.32446 -74475773.33643  23794082.2114                   23794084.3714
 -53205499.18048 -41450391.37346  21053492.2274                   21053491.6884
 -41896445.78948 -32606228.52746  20835640.3054                   20835638.6644
 -40518185.33646 -31530441.94943  24537300.2894                   24537309.0004
 -35430986.33647 -27567309.09045  20947183.6804                   20947183.2704
 -62981318.72348 -49064900.72847  20652307.9844                   20652304.7034
 -11744807.59447  -9111312.45145  22976320.8054                   22976323.0904
  -8642382.62147  -6693311.69144  22970546.8364                   22970547.8134
 11  8 25  0 32  0.0000000  0  9G04G17G10G12G09G05G02G25G30
 -73087009.31647 -56906385.18245  22582377.7974                   22582378.4304
 -95635769.64546 -74509627.71743  23785814.8364                   23785816.4454
 -53271616.75848 -41501911.56846  21040910.3914                   21040909.6484
 -42032720.62948 -32712416.69546  20809708.2584                   20809706.4144
 -40542837.79345 -31549651.93343  24532611.6024                   24532618.7424
 -35602190.66447 -27700714.99945  20914604.7344                   20914604.1524
 -63072081.75448 -49135625.16346  20635036.5394                   20635033.1644
 -11934809.71147  -9259366.02645  22940164.9844                   22940166.6174
  -8831209.30547  -6840449.28644  22934614.6334                   22934615.1484
 11  8 25  0 32 30.0000000  0  9G04G17G10G12G09G05G02G25G30
 -73111619.63747 -56925562.07945  22577694.0084                   22577694.9734
 -95678995.18446 -74543309.97143  23777589.0084                   23777591.3714
 -53337112.52748 -41552947.23046  21028446.6024                   21028446.3834
 -42168413.39148 -32818151.30246  20783886.6094                   20783884.6644
 -40567490.86346 -31568862.32043  24527919.6564                   24527928.0664
 -35772889.35248 -27833726.90445  20882121.7814                   20882121.2934
 -63162597.27348 -49206156.73146  20617812.0784                   20617808.8794
 -12124436.98447  -9407127.51345  22904079.6414                   22904082.0984
  -9019601.95747  -6987248.68644  22898764.9454                   22898765.4454
 11  8 25  0 33  0.0000000  0  9G04G17G10G12G09G05G02G25G30
 -73136170.00847 -56944692.26544  22573022.5704                   22573023.0984
 -95722002.09846 -74576821.88744  23769405.8594                   23769407.6644
 -53401990.42248 -41603501.43746  21016101.1254                   21016100.0474
 -42303525.00848 -32923433.05946  20758175.6334                   20758174.3634
 -40592150.39545 -31588077.91543  24523227.8674                   24523235.8554
 -35943083.03547 -27966345.29045  20849734.9224                   20849734.3914
 -63252869.37948 -49276498.63046  20600633.4924                   20600630.5004
 -12313689.42247  -9554596.93445  22868066.3204                   22868068.0664
  -9207560.48447  -7133709.85144  22862997.5164                   22862997.8554
 11  8 25  0 33 30.0000000  0  9G04G17G10G12G09G05G02G25G30
 -71585240.96547 -55736176.15644  22868154.7034                   22868154.7274
 -94189368.37546 -73382561.86644  24061056.0394                   24061058.3134
 -51890829.89848 -40425973.75246  21303664.8754                   21303664.2974
 -40862629.80548 -31800657.57146  21032369.3834                   21032367.3484
 -39041398.26646 -30379699.87942  24818325.3204                   24818333.8014
 -34537343.68448 -26870963.91945  21117238.5944                   21117237.8914
 -61767476.00048 -48119049.24846  20883294.2734                   20883291.5124
 -10927137.93747  -8474167.17245  23131918.3204                   23131920.1254
  -7819655.95747  -6052225.71944  23127106.7194                   23127106.6254
 11  8 25  0 34  0.0000000  0  9G04G17G10G12G09G05G02G25G30
 -71609675.16447 -55755215.82245  22863505.2974                   22863505.2034
 -94231936.64546 -73415731.97944  24052955.7114                   24052958.0274
 -51954476.43748 -40475568.45946  21291553.6804                   21291553.0314
 -40996574.88748 -31905030.34946  21006880.1724                   21006878.5744
 -39066078.92645 -30398931.80942  24813628.3984                   24813635.9344
 -34706520.57048 -27002790.00545  21085044.8204                   21085044.1214
 -61857264.13748 -48189014.02146  20866208.2344                   20866205.4224
 -11115632.31647  -8621045.91645  23096049.2424                   23096051.2624
  -8006738.00447  -6198003.89144  23091506.1334                   23091506.0394
 11  8 25  0 34 30.0000000  0  9G04G17G10G12G09G05G02G25G30
 -71634051.07447 -55774210.07345  22858866.6884                   22858866.7154
 -94274282.94546 -73448729.15443  24044897.2894                   24044900.1254
 -52017507.86348 -40524683.85646  21279559.3754                   21279558.4774
 -41129933.22348 -32008945.92447  20981503.1174                   20981501.5084
 -39090772.77346 -30418173.98842  24808930.1174                   24808936.4964
 -34875183.46147 -27134215.56845  21052949.3674                   21052948.5984
 -61946809.95348 -48258789.97946  20849168.4614                   20849165.5944
 -11303741.62948  -8767624.58145  23060253.3134                   23060255.5164
  -8193375.71147  -6343435.80344  23055989.6254                   23055990.2814
 11  8 25  0 35  0.0000000  0  9G04G17G10G12G09G05G02G25G30
 -71658373.00047 -55793162.25945  22854238.5234                   22854238.6214
 -94316410.09846 -73481555.58243  24036880.7424                   24036882.9304
 -52079928.74248 -40573323.50346  21267680.8984                   21267680.3834
 -41262706.05948 -32112405.28146  20956237.1094                   20956235.6174
 -39115485.58246 -30437430.99242  24804228.5234                   24804233.4454
 -35043333.40247 -27265241.41645  21020951.4384                   21020950.2274
 -62036117.57048 -48328380.33346  20832173.7734                   20832170.7704
 -11491466.25847  -8913903.48645  23024530.3674                   23024532.9064
  -8379569.36747  -6488521.74945  23020558.4694                   23020558.0314
 11  8 25  0 35 30.0000000  0  9G04G17G10G12G09G05G02G25G30
 -71682641.92647 -55812073.17145  22849620.1564                   22849620.8524
 -94358317.73446 -73514210.89244  24028906.0084                   24028908.6524
 -52141740.31648 -40621488.37346  21255918.3284                   21255918.0234
 -41394891.91848 -32215407.25046  20931082.7664                   20931081.2304
 -39140220.09446 -30456705.02943  24799521.6174                   24799527.6214
 -35210968.32847 -27395865.98845  20989051.7504                   20989050.7464
 -62125187.91848 -48397785.80846  20815224.3054                   20815221.4384
 -11678803.31647  -9059880.39345  22988880.9534                   22988883.8054
  -8565316.13747  -6633259.43445  22985211.7974                   22985212.3484
 11  8 25  0 36  0.0000000  0  9G04G17G10G12G09G05G02G25G30
 -71706859.46947 -55830944.03644  22845011.8054                   22845012.0744
 -94400005.88746 -73546695.25644  24020973.6954                   24020976.0634
 -52202944.39548 -40669179.87546  21244271.9534                   21244271.3014
 -41526489.73448 -32317951.01046  20906040.5474                   20906039.0554
 -39164979.26646 -30475998.24043  24794811.3754                   24794817.4414
 -35378086.14847 -27526087.61045  20957250.0474                   20957249.6214
 -62214022.46948 -48467007.52946  20798319.3284                   20798316.5044
 -11865750.51647  -9205553.50245  22953306.0004                   22953308.2274
  -8750613.71947  -6777647.15144  22949950.5944                   22949951.5204
 11  8 25  0 36 30.0000000  0  9G04G17G10G12G09G05G02G25G30
 -71731025.31647 -55849774.60444  22840412.9454                   22840413.9844
 -94441472.57846 -73579007.00644  24013082.5004                   24013084.7304
 -52263541.57048 -40716398.45446  21232740.6254                   21232740.0554
 -41657496.77348 -32420034.42946  20881110.5394                   20881109.2894
 -39189764.61747 -30495311.87543  24790095.0004                   24790101.5904
 -35544683.45747 -27655903.62945  20925547.3984                   20925546.8834
 -62302620.94948 -48536045.31946  20781459.8524                   20781456.7424
 -12052303.80947  -9350919.65345  22917806.1564                   22917807.7624
  -8935457.98047  -6921681.64044  22914776.0704                   22914776.8794
 11  8 25  0 37  0.0000000  0  9G04G17G10G12G09G05G02G25G30
 -71755141.41447 -55868566.40845  22835823.9064                   22835824.6844
 -94482718.55946 -73611146.78144  24005233.4304                   24005235.7234
 -52323533.82048 -40763145.66646  21221324.4774                   21221323.9654
 -41787912.49648 -32521657.08946  20856293.2194                   20856292.1374
 -39214579.77347 -30514648.74743  24785373.2664                   24785379.1414
 -35710759.00047 -27785313.09945  20893944.5704                   20893943.8484
 -62390984.86748 -48604900.32446  20764644.6804                   20764641.7854
 -12238461.08647  -9495977.23545  22882381.6334                   22882383.6604
  -9119846.98047  -7065361.37244  22879688.2814                   22879688.5514
 11  8 25  0 37 30.0000000  0  9G04G17G10G12G09G05G02G25G30
 -71779210.14547 -55887321.30945  22831243.7734                   22831244.7584
 -94523744.87546 -73643115.37244  23997426.9844                   23997428.6804
 -52382924.49247 -40809424.10346  21210022.6644                   21210022.6914
 -41917737.06248 -32622819.09846  20831588.2504                   20831587.2194
 -39239429.19547 -30534012.33343  24780645.2664                   24780651.0784
 -35876311.81247 -27914315.23645  20862440.4304                   20862440.3444
 -62479116.62948 -48673574.42047  20747873.9534                   20747870.6844
 -12424221.12147  -9640725.24145  22847032.4534                   22847034.3484
  -9303779.35547  -7208685.27545  22844687.0474                   22844687.6454
 11  8 25  0 38  0.0000000  0  9G04G17G10G12G09G05G02G25G30
 -71803231.59847 -55906039.34744  22826672.7274                   22826673.3324
 -94564549.74246 -73674911.43544  23989661.7424                   23989663.8834
 -52441713.87548 -40855234.01846  21198835.3754                   21198835.0234
 -42046968.33248 -32723518.80046  20806996.7664                   20806995.3834
 -39264314.54347 -30553403.88544  24775910.0004                   24775915.5554
 -36041338.67647 -28042907.54645  20831036.9064                   20831036.4734
 -62567016.88348 -48742068.12046  20731146.9774                   20731144.0204
 -12609579.98047  -9785160.64845  22811759.9924                   22811761.7894
  -9487251.23847  -7351650.36244  22809773.2114                   22809773.4184
 11  8 25  0 38 30.0000000  0  9G04G17G10G12G09G05G02G25G30
 -71827208.41447 -55924722.60044  22822110.6024                   22822110.4454
 -94605135.02046 -73706536.33944  23981938.9064                   23981940.7344
 -52499905.44948 -40900578.11946  21187762.5234                   21187761.9924
 -42175606.43048 -32823756.28046  20782517.6804                   20782516.2154
 -39289240.05147 -30572826.73744  24771166.6094                   24771172.9654
 -36205839.52047 -28171089.98545  20799733.3674                   20799732.9224
 -62654687.34448 -48810382.76446  20714463.8594                   20714460.9264
 -12794536.86747  -9929282.81545  22776564.1024                   22776565.9104
  -9670261.73047  -7494255.92144  22774947.8444                   22774947.5864
 11  8 25  0 39  0.0000000  0  9G04G17G10G12G09G05G02G25G30
 -71851140.49647 -55943371.01544  22817556.3204                   22817556.2704
 -94645498.80547 -73737988.70744  23974257.9844                   23974259.9184
 -52557499.86348 -40945456.86846  21176802.0944                   21176802.0004
 -42303649.04748 -32923529.74646  20758152.1094                   20758150.2664
 -39314207.10547 -30592282.02343  24766415.7664                   24766422.2384
 -36369810.66447 -28298859.67245  20768530.6564                   20768529.9184
 -62742128.18748 -48878518.46846  20697824.6174                   20697821.3324
 -12979087.67247 -10073088.58145  22741445.0704                   22741446.8954
  -9852806.76647  -7636498.74844  22740210.7114                   22740209.7734
 11  8 25  0 39 30.0000000  0  9G04G17G10G12G09G05G02G25G30
 -71875031.66847 -55961987.53444  22813009.6024                   22813009.8554
 -94685643.37147 -73769270.22144  23966619.0784                   23966620.9384
 -52614501.52048 -40989873.72746  21165955.2194                   21165954.4304
 -42431097.73848 -33022840.40646  20733899.6174                   20733898.1804
 -39339221.29746 -30611773.89543  24761656.3984                   24761662.8244
 -36533253.08247 -28426217.35245  20737428.3984                   20737428.0634
 -62829343.18048 -48946478.19646  20681227.9144                   20681224.9734
 -13163232.57847 -10216578.03445  22706403.3754                   22706405.6484
 -10034886.59047  -7778379.10144  22705561.8524                   22705560.7934
 11  8 25  0 40  0.0000000  0  8G04G17G10G12G05G02G25G30
 -71898882.56247 -55980572.69744  22808471.5394                   22808471.0234
 -94725567.79747 -73800380.20344  23959021.6414                   23959024.0204
 -52670911.25447 -41033829.36746  21155220.6954                   21155220.2504
 -42557950.44148 -33121686.66746  20709760.3134                   20709758.6134
 -36696163.71947 -28553160.66346  20706428.1644                   20706427.5904
 -62916332.39848 -49014261.99046  20664674.5474                   20664671.4264
 -13346968.09447 -10359748.52745  22671439.6024                   22671441.5204
 -10216497.71147  -7919894.22344  22671001.8674                   22671001.3834
 11  8 25  0 40 30.0000000  0  8G04G17G10G12G05G02G25G30
 -71922693.49247 -55999126.71644  22803940.1334                   22803939.9804
 -94765271.25846 -73831318.00044  23951465.9224                   23951468.0354
 -52726730.52047 -41077324.88846  21144598.7894                   21144598.4304
 -42684205.62548 -33220067.32646  20685734.8364                   20685732.9804
 -36858540.32447 -28679687.85646  20675528.1954                   20675528.1174
 -63003096.80948 -49081870.60746  20648163.6174                   20648160.4024
 -13530291.23848 -10502597.67745  22636554.4454                   22636556.3484
 -10397637.19547  -8061041.82444  22636533.2734                   22636531.7584
 11  8 25  0 41  0.0000000  0  8G04G17G10G12G05G02G25G30
 -70371034.80947 -54790042.05744  23099210.9304                   23099211.4224
 -93229322.84046 -72634475.12244  24243747.5234                   24243749.9384
 -51206529.30547 -39892752.50146  21433883.4844                   21433882.9884
 -41234428.35948 -32090370.73646  20961618.0084                   20961616.4654
 -35444945.61747 -27578185.43346  20944526.7424                   20944526.4924
 -61514204.69548 -47921694.91946  20931490.3594                   20931487.2734
 -12137763.37947  -9417510.97045  22901543.2034                   22901545.1764
  -9002866.44947  -6974207.45044  22901948.9224                   22901948.3484
 11  8 25  0 41 30.0000000  0  8G04G17G10G12G05G02G25G30
 -70394744.09047 -54808516.85244  23094698.8134                   23094700.2974
 -93268559.32446 -72665049.03443  24236280.4534                   24236283.0274
 -51261147.96147 -39935312.47346  21423489.7114                   21423489.4184
 -41359460.63348 -32187798.47246  20937825.1884                   20937823.7074
 -35606223.00447 -27703856.09746  20913836.3444                   20913835.8204
 -61600497.63348 -47988936.15846  20915069.3984                   20915066.2194
 -12320228.93047  -9559691.85445  22866821.2274                   22866822.9184
  -9183029.70747  -7114594.35844  22867664.7424                   22867664.6294
 11  8 25  0 42  0.0000000  0  8G04G17G10G12G05G02G25G30
 -70418406.24647 -54826954.95544  23090196.4694                   23090198.3914
 -93307564.14546 -72695442.44443  24228858.7424                   24228860.6414
 -51315171.25448 -39977408.53646  21413209.2034                   21413209.3134
 -41483881.76648 -32284749.99347  20914148.4924                   20914147.0634
 -35766950.46948 -27829098.23246  20883251.1094                   20883250.3094
 -61686558.35248 -48055996.44346  20898692.7734                   20898689.1604
 -12502263.81647  -9701537.17245  22832181.0944                   22832182.2624
  -9362703.20347  -7254599.61744  22833474.1564                   22833473.9454
 11  8 25  0 42 30.0000000  0  8G04G17G10G12G05G02G25G30
 -70442024.27347 -54845358.65944  23085702.3594                   23085703.8094
 -93346338.40646 -72725656.16143  24221479.9614                   24221481.8524
 -51368603.05948 -40019043.67946  21403041.9774                   21403041.7424
 -41607692.64548 -32381226.00246  20890588.1804                   20890587.0314
 -35927127.56248 -27953911.51646  20852770.3834                   20852769.6884
 -61772389.40248 -48122877.76546  20882359.5634                   20882356.5394
 -12683867.14547  -9843046.18645  22797623.2894                   22797624.6174
  -9541885.96547  -7394222.50844  22799376.3284                   22799375.9844
 11  8 25  0 43  0.0000000  0  8G04G17G10G12G05G02G25G30
 -70465600.84047 -54863730.05244  23081215.6254                   23081217.3444
 -93384883.94546 -72755691.67543  24214145.5234                   24214147.1644
 -51421446.90648 -40060220.69246  21392985.6804                   21392985.8524
 -41730894.02348 -32477227.06247  20867143.7974                   20867142.5234
 -36086754.29348 -28078295.94246  20822394.4614                   20822394.0824
 -61857994.05548 -48189582.67446  20866069.8284                   20866066.4534
 -12865038.31247  -9984218.47845  22763147.4454                   22763148.6914
  -9720577.36347  -7533462.51044  22765372.2504                   22765372.3014
 11  8 25  0 43 30.0000000  0  8G04G17G10G12G05G02G25G30
 -70489137.87947 -54882070.62944  23076736.5634                   23076738.1564
 -93423201.53946 -72785549.57943  24206854.0944                   24206855.4144
 -51473705.45348 -40100941.61346  21383041.5474                   21383041.5124
 -41853485.94948 -32572753.22747  20843814.9534                   20843814.0164
 -36245829.46148 -28202250.57446  20792123.4454                   20792123.0084
 -61943374.15248 -48256112.60246  20849822.1094                   20849819.1764
 -13045775.59447 -10125052.67345  22728753.8284                   22728756.0864
  -9898775.82847  -7672318.39844  22731462.6954                   22731461.9924
 11  8 25  0 44  0.0000000  0  8G04G17G10G12G05G02G25G30
 -70512642.32047 -54900385.82744  23072263.9844                   23072265.1174
 -93461296.93446 -72815234.37843  24199605.0474                   24199606.1994
 -51525386.54748 -40141212.58946  21373206.6644                   21373206.5634
 -41975473.43048 -32667808.39147  20820601.6254                   20820600.2544
 -36404357.37548 -28325778.77346  20761956.6484                   20761956.1294
 -62028536.53948 -48322472.88646  20833616.2814                   20833613.0824
 -13226082.29747 -10265551.34445  22694442.5704                   22694444.2544
 -10076484.59447  -7810792.68645  22697645.7974                   22697645.3914
 11  8 25  0 44 30.0000000  0  8G04G17G10G12G05G02G25G30
 -70536111.53147 -54918673.55444  23067798.2194                   23067798.4414
 -93499166.05546 -72844742.78443  24192399.1414                   24192400.0314
 -51576488.44948 -40181032.26046  21363482.4064                   21363482.1954
 -42096851.70348 -32762388.85447  20797504.0864                   20797502.9104
 -36562332.35548 -28448876.11646  20731894.7974                   20731894.2194
 -62113478.44948 -48388661.39446  20817452.3834                   20817449.2034
 -13405952.03947 -10405709.55145  22660214.6094                   22660217.0824
 -10253697.52747  -7948880.62044  22663923.4224                   22663922.6214
 11  8 25  0 45  0.0000000  0  8G04G17G10G12G05G02G25G30
 -70559545.07446 -54936933.47944  23063338.3754                   23063339.1374
 -93536807.48846 -72874073.75343  24185235.0234                   24185236.8284
 -51627012.14848 -40220401.37846  21353867.9384                   21353867.7664
 -42217618.61348 -32856492.92346  20774522.8914                   20774521.4654
 -36719751.43048 -28571540.29046  20701938.9304                   20701938.2734
 -62198199.72348 -48454677.95446  20801330.3284                   20801327.3674
 -13585381.15647 -10545524.40345  22626070.5944                   22626072.5164
 -10430410.89147  -8086579.25544  22630296.0784                   22630295.7154
 11  8 25  0 45 30.0000000  0  8G04G17G10G12G05G02G25G30
 -70582948.73047 -54955170.13344  23058885.3054                   23058884.9384
 -93574225.70746 -72903230.89443  24178114.7114                   24178116.4614
 -51676964.11748 -40259324.98746  21344362.2034                   21344362.0204
 -42337778.00848 -32950123.60546  20751657.4224                   20751655.8324
 -36876617.60948 -28693773.63346  20672088.2194                   20672087.3674
 -62282706.08248 -48520527.05846  20785249.4454                   20785246.2304
 -13764371.80947 -10684997.62045  22592009.8054                   22592011.8054
 -10606626.89847  -8223890.35645  22596763.2344                   22596762.4494
 11  8 25  0 46  0.0000000  0  8G04G17G10G12G05G02G25G30
 -70606323.18046 -54973384.01244  23054437.1724                   23054436.8594
 -93611420.20746 -72932213.60343  24171037.2504                   24171039.0004
 -51726346.04348 -40297804.42046  21334965.3524                   21334964.7624
 -42457328.61348 -33043279.90546  20728907.6644                   20728906.0514
 -37032928.62948 -28815574.40046  20642343.2194                   20642342.2814
 -62366998.18448 -48586209.20646  20769209.0234                   20769205.9454
 -13942920.99247 -10824126.81145  22558033.1254                   22558034.7774
 -10782342.64847  -8360811.69145  22563324.9614                   22563325.0554
 11  8 25  0 46 30.0000000  0  8G04G17G10G12G05G02G25G30
 -70629669.60947 -54991576.07944  23049994.8054                   23049994.3404
 -93648391.05546 -72961022.07644  24164002.7504                   24164004.1024
 -51775160.35248 -40335841.55845  21325676.5314                   21325675.7464
 -42576269.92648 -33135961.42646  20706273.7114                   20706272.1844
 -37188682.94148 -28936941.34646  20612704.3984                   20612703.6804
 -62451077.40248 -48651725.47646  20753209.1334                   20753206.0514
 -14121026.51647 -10962910.31045  22524140.7894                   22524142.0354
 -10957556.09847  -8497341.59945  22529982.8134                   22529983.6374
 11  8 25  0 47  0.0000000  0  8G04G17G10G12G05G02G25G30
 -70652991.79747 -55009749.20544  23045556.7424                   23045557.1804
 -93685140.93047 -72989658.38544  24157008.6174                   24157010.2734
 -51823411.60948 -40373439.96646  21316494.8984                   21316493.6524
 -42694604.26648 -33228169.99046  20683755.5234                   20683754.0314
 -37343881.93448 -29057875.58446  20583170.7274                   20583170.3914
 -62534947.48848 -48717078.79246  20737249.7344                   20737246.3554
 -14298688.68047 -11101348.31445  22490332.9384                   22490333.9024
 -11132267.49647  -8633480.27745  22496736.6724                   22496737.3094
 11  8 25  0 47 30.0000000  0  8G04G17G10G12G05G02G25G30
 -70676289.26247 -55027903.11244  23041123.0704                   23041124.1954
 -93721668.44546 -73018121.37643  24150057.9534                   24150059.0394
 -51871100.71148 -40410600.31245  21307419.6024                   21307418.9804
 -42812328.88348 -33319903.45646  20661353.4304                   20661352.0904
 -37498522.19548 -29178374.44946  20553743.8054                   20553743.2384
 -62618607.85948 -48782268.68746  20721329.4384                   20721326.3324
 -14475903.55947 -11239437.81345  22456610.1564                   22456610.8164
 -11306473.06247  -8769224.82745  22463586.7894                   22463586.6914
 11  8 25  0 48  0.0000000  0  8G04G17G10G12G05G02G25G30
 -70699561.85947 -55046037.62044  23036694.7894                   23036695.4264
 -93757972.23847 -73046410.03543  24143148.9614                   24143150.8674
 -51918228.32448 -40447323.14245  21298451.2034                   21298451.2274
 -42929441.96148 -33411160.38546  20639067.5164                   20639065.9654
 -37652601.33248 -29298436.06446  20524422.9694                   20524422.2814
 -62702058.39848 -48847295.08346  20705449.1564                   20705446.2274
 -14652667.42247 -11377175.85045  22422972.3984                   22422973.9734
 -11480169.13347  -8904572.36245  22430533.5234                   22430532.9964
 11  8 25  0 48 30.0000000  0  8G04G17G10G12G05G02G25G30
 -69147389.73447 -53836552.88145  23332063.1484                   23332065.2854
 -92218631.16447 -71846923.51844  24436076.3594                   24436077.8794
 -50389375.31247 -39256009.12345  21589382.3984                   21589381.9924
 -41470519.34848 -32274337.56346  20916691.0944                   20916689.6374
 -36230692.42648 -28190455.04646  20795003.2814                   20795002.5514
 -61209877.43448 -47684556.66946  20989402.1414                   20989398.8874
 -13253552.00847 -10286956.03045  22689215.5004                   22689216.8244
 -10077927.73847  -7811916.69044  22697370.5394                   22697370.4964
 11  8 25  0 49  0.0000000  0  8G04G17G10G12G05G02G25G30
 -69170619.11746 -53854653.68744  23327642.6254                   23327644.5864
 -92254491.15647 -71874866.35444  24429252.1804                   24429254.1414
 -50435391.01247 -39291865.52745  21580626.0474                   21580625.1994
 -41586411.74648 -32364643.31346  20894637.4384                   20894636.1414
 -36383647.91448 -28309641.10046  20765897.2734                   20765896.3164
 -61292915.53948 -47749261.69246  20973600.3594                   20973597.4614
 -13429410.61348 -10423988.68745  22655751.0394                   22655752.8594
 -10250601.90647  -7946467.92745  22664512.1954                   22664511.9574
 11  8 25  0 49 30.0000000  0  8G04G17G10G12G05G02G25G30
 -69193827.36746 -53872738.05844  23323226.1174                   23323227.2734
 -92290128.06647 -71902635.39344  24422470.8054                   24422472.8324
 -50480853.01247 -39327290.47145  21571974.9384                   21571974.1334
 -41701691.83648 -32454471.95646  20872700.8364                   20872698.9384
 -36536038.25848 -28428386.78946  20736898.2034                   20736897.1954
 -61375747.87148 -47813806.37146  20957838.0394                   20957834.8874
 -13604811.87147 -10560664.97846  22622373.1564                   22622375.3324
 -10422760.57447  -8080617.49245  22631751.4774                   22631750.5124
 11  8 25  0 50  0.0000000  0  8G04G17G10G12G05G02G25G30
 -69217016.29746 -53890807.37244  23318813.3284                   23318814.4964
 -92325542.82846 -71930231.36843  24415731.1484                   24415733.3364
 -50525763.96147 -39362286.02545  21563428.5004                   21563427.8834
 -41816359.75048 -32543823.57346  20850879.9144                   20850878.4844
 -36687862.75048 -28546691.55146  20708006.8754                   20708006.0984
 -61458376.28548 -47878192.15646  20942114.3054                   20942111.1454
 -13779754.30947 -10696983.75846  22589082.7894                   22589084.5354
 -10594402.32047  -8214364.29045  22599089.3674                   22599088.2154
 11  8 25  0 50 30.0000000  0  8G04G17G10G12G05G02G25G30
 -69240186.40246 -53908862.03444  23314404.6644                   23314405.1134
 -92360735.02746 -71957653.89143  24409034.8284                   24409036.9734
 -50570126.13747 -39396853.96145  21554986.8134                   21554985.9454
 -41930414.75447 -32632697.59347  20829176.0864                   20829174.6804
 -36839119.47748 -28664553.88246  20679223.5314                   20679222.7974
 -61540801.46147 -47942419.58046  20926429.2814                   20926426.2664
 -13954235.01647 -10832942.73145  22555880.2034                   22555882.3984
 -10765524.35247  -8347706.09345  22566525.6024                   22566525.0704
 11  8 25  0 51  0.0000000  0  8G04G17G10G12G05G02G25G30
 -69263342.78146 -53926905.98744  23309998.3914                   23309998.6454
 -92395708.42246 -71984905.88043  24402379.6414                   24402381.4494
 -50613945.82047 -39430999.16945  21546648.3204                   21546647.9264
 -42043860.30147 -32721096.71247  20807588.0394                   20807586.4654
 -36989811.07048 -28781975.86446  20650547.7504                   20650547.1374
 -61623028.59447 -48006492.67546  20910781.7974                   20910778.8954
 -14128255.82447 -10968543.34245  22522765.0234                   22522766.5864
 -10936128.66047  -8480644.50545  22534060.7034                   22534060.2344
 11  8 25  0 51 30.0000000  0  9G04G17G10G12G29G05G02G25G30
 -69286486.36346 -53944939.96144  23305593.4454                   23305593.6644
 -92430463.30946 -72011987.61443  24395765.4304                   24395768.2974
 -50657224.92247 -39464723.15445  21538412.4614                   21538412.1484
 -42156696.00048 -32809020.64047  20786116.0784                   20786114.8874
  10758458.08656   8399373.67753  24653896.4384                   24653897.4534
 -37139936.27348 -28898956.49846  20621979.9304                   20621979.1414
 -61705058.82047 -48070412.34346  20895172.1254                   20895169.3594
 -14301814.48847 -11103783.84545  22489737.4844                   22489738.7464
 -11106213.05147  -8613177.78145  22501694.9534                   22501694.1804
 11  8 25  0 52  0.0000000  0  9G04G17G10G12G29G05G02G25G30
 -69309626.84046 -53962971.54644  23301190.2734                   23301190.3484
 -92465008.28146 -72038905.88443  24389191.2194                   24389194.6054
 -50699974.87948 -39498034.82645  21530277.4454                   21530277.0864
 -42268929.78148 -32896475.52147  20764758.7274                   20764757.6174
  10573926.80946   8255583.13943  24618780.3444                   24618783.0164
 -37289502.10948 -29015501.25946  20593518.5784                   20593517.6294
 -61786901.75448 -48134186.06046  20879597.8364                   20879594.4884
 -14474917.27347 -11238669.12345  22456797.3984                   22456798.6914
 -11275783.92647  -8745310.91945  22469426.3984                   22469426.1764
 11  8 25  0 52 30.0000000  0  9G04G17G10G12G29G05G02G25G30
 -69332769.90646 -53981005.11944  23296786.2194                   23296786.8524
 -92499348.27046 -72065664.30343  24382655.8754                   24382659.1454
 -50742202.67248 -39530939.59646  21522241.6804                   21522241.4884
 -42380566.33648 -32983465.04447  20743515.2504                   20743513.6254
  10389332.54346   8111743.49343  24583653.9384                   24583655.3524
 -37438512.37547 -29131613.11146  20565162.9064                   20565161.8164
 -61868563.50048 -48197818.60046  20864058.1564                   20864055.0944
 -14647566.82847 -11373201.20045  22423942.7274                   22423944.5904
 -11444844.02047  -8877046.05345  22437255.5784                   22437254.7854
 11  8 25  0 53  0.0000000  0  9G04G17G10G12G29G05G02G25G30
 -69355913.89146 -53999039.43943  23292381.9924                   23292382.4024
 -92533480.49646 -72092260.85243  24376162.3674                   24376164.6994
 -50783908.04748 -39563437.30145  21514305.8914                   21514305.2034
 -42491602.56648 -33069986.78347  20722385.7114                   20722383.9804
  10204678.16046   7967856.96443  24548515.2114                   24548516.1884
 -37586962.83248 -29247288.75146  20536913.6254                   20536912.8134
 -61950042.10247 -48261308.41746  20848553.1254                   20848550.3594
 -14819758.09847 -11507376.19045  22391176.0164                   22391177.4804
 -11613388.50847  -9008379.40945  22405182.6174                   22405181.9654
 11  8 25  0 53 30.0000000  0  9G04G17G10G12G29G05G02G25G30
 -69379056.62946 -54017072.74944  23287978.1334                   23287979.0234
 -92567402.16446 -72118693.35543  24369707.0554                   24369710.0704
 -50825090.36348 -39595527.42545  21506468.8054                   21506468.0944
 -42602034.98047 -33156038.01847  20701370.8524                   20701369.5554
  10019967.50846   7823926.69244  24513366.4774                   24513366.6174
 -37734849.29348 -29362524.90846  20508771.6564                   20508770.7544
 -62031335.68747 -48324654.08546  20833083.3204                   20833080.6684
 -14991485.72747 -11641189.89945  22358497.4534                   22358498.9064
 -11781412.15247  -9139306.90545  22373208.5554                   22373208.2504
 11  8 25  0 54  0.0000000  0  9G04G17G10G12G29G05G02G25G30
 -69402196.37946 -54035103.76244  23283574.8674                   23283576.7504
 -92601110.60546 -72144959.66143  24363291.6484                   24363295.3634
 -50865749.35547 -39627209.76845  21498731.9144                   21498731.0984
 -42711860.59848 -33241616.42447  20680472.1254                   20680470.5514
   9835203.78147   7679955.01744  24478207.0234                   24478207.9224
 -37882167.69548 -29477318.42546  20480738.0314                   20480737.1644
 -62112442.64547 -48387854.31746  20817649.6334                   20817646.4734
 -15162744.87547 -11774638.52945  22325907.8204                   22325909.2664
 -11948910.16447  -9269824.83045  22341334.5234                   22341333.8284
 11  8 25  0 54 30.0000000  0  9G04G17G10G12G29G05G02G25G30
 -69425333.00847 -54053132.32044  23279172.3054                   23279173.6954
 -92634604.95346 -72171059.24143  24356918.9694                   24356921.4804
 -50905886.29348 -39658485.30445  21491094.0474                   21491093.2854
 -42821078.05148 -33326720.93747  20659688.3524                   20659686.8554
   9650388.56647   7535943.23644  24443037.6334                   24443038.4694
 -38028915.69147 -29591667.47545  20452813.0164                   20452812.1294
 -62193362.95747 -48450909.08546  20802250.7424                   20802247.8914
 -15333532.12947 -11907719.47345  22293407.9844                   22293409.6844
 -12115879.29347  -9399930.61445  22309560.7664                   22309560.7894
 11  8 25  0 55  0.0000000  0  9G04G17G10G12G29G05G02G25G30
 -69448466.72347 -54071158.61344  23274770.1414                   23274771.0354
 -92667884.56646 -72196991.40644  24350585.9924                   24350588.8364
 -50945503.03548 -39689355.49245  21483554.4534                   21483554.3444
 -42929686.34048 -33411350.78146  20639020.9924                   20639019.6024
   9465523.10547   7391892.32644  24407858.8054                   24407859.6414
 -38175091.34447 -29705570.55045  20424996.2814                   20424995.3794
 -62274096.97748 -48513818.72946  20786887.6884                   20786884.4924
 -15503844.73847 -12040430.55945  22260998.7194                   22261000.7814
 -12282316.94547  -9529622.27945  22277888.9454                   22277888.9774
 11  8 25  0 55 30.0000000  0  9G04G17G10G12G29G05G02G25G30
 -69471601.07847 -54089185.38844  23270368.6094                   23270369.1454
 -92700952.09046 -72222758.32744  24344293.8204                   24344296.0234
 -50984604.92248 -39719824.49745  21476113.9924                   21476114.2584
 -43037687.73448 -33495507.73046  20618468.8834                   20618467.5204
   9280605.50047   7247800.75344  24372670.2194                   24372671.0474
 -38320695.86347 -29819028.57845  20397288.5864                   20397288.0044
 -62354648.60548 -48576586.22846  20771559.1724                   20771555.8524
 -15673683.16447 -12172772.14145  22228679.7034                   22228681.8134
 -12448223.81647  -9658900.33345  22246318.0704                   22246318.0274
 11  8 25  0 56  0.0000000  0  9G04G17G10G12G29G05G02G25G30
 -67919310.93747 -52879608.67544  23565759.1174                   23565760.3524
 -91158381.46946 -71020755.28944  24637835.2734                   24637837.0084
 -49447767.41848 -38522288.77645  21768564.7344                   21768564.5704
 -41569654.10248 -32351585.42546  20897826.4844                   20897825.0514
  10671067.71147   8331277.85744  24637266.5704                   24637267.0944
 -36890298.30147 -28704433.05145  20669483.9774                   20669483.3594
 -60859590.55548 -47411605.93646  21056059.2194                   21056056.3054
 -14267614.18047 -11077133.93245  22496245.5704                   22496247.0204
 -11038166.82847  -8560154.62045  22514642.6954                   22514642.8674
 11  8 25  0 56 30.0000000  0  8G04G10G12G29G05G02G25G30
 -67942440.37547 -52897631.65744  23561357.8674                   23561358.5084
 -49485837.28948 -38551953.60845  21761319.9304                   21761319.7774
 -41676433.18448 -32434789.91746  20877506.7584                   20877505.5634
  10486055.81347   8187112.79944  24602060.5164                   24602060.6294
 -37034748.96547 -28816991.97145  20641996.2504                   20641995.6454
 -60939771.05148 -47474084.25146  21040801.7034                   21040798.5354
 -14436488.71547 -11208724.42745  22464109.8054                   22464111.4104
 -11202996.84847  -8688593.53245  22483276.3834                   22483276.7894
 11  8 25  0 57  0.0000000  0  8G04G10G12G29G05G02G25G30
 -67965564.00447 -52915650.09144  23556957.2894                   23556958.2114
 -49523390.40647 -38581215.77245  21754173.9304                   21754173.8134
 -41782595.53948 -32517513.84346  20857304.9534                   20857303.8054
  10301002.91046   8042915.83044  24566845.0634                   24566845.8164
 -37178616.24647 -28929096.33346  20614619.1414                   20614618.9414
 -61019763.08648 -47536415.70046  21025579.6174                   21025576.6604
 -14604873.27747 -11339933.13445  22432067.1334                   22432068.3874
 -11367280.72347  -8816606.92045  22452014.1174                   22452014.4184
 11  8 25  0 57 30.0000000  0  8G04G10G12G29G05G02G25G30
 -67988679.10247 -52933661.91144  23552558.4144                   23552559.6094
 -49560425.62147 -38610074.38145  21747126.5864                   21747126.4144
 -41888138.07848 -32599754.78046  20837220.8444                   20837219.7814
  10115912.95746   7898689.97543  24531623.5474                   24531623.5594
 -37321895.36347 -29040742.36746  20587354.3204                   20587353.2234
 -61099564.09448 -47598598.31446  21010394.1024                   21010391.0164
 -14772762.37148 -11470755.75846  22400118.8754                   22400120.3364
 -11531013.04747  -8944190.51745  22420857.3834                   22420857.6254
 11  8 25  0 58  0.0000000  0  8G04G10G12G29G05G02G25G30
 -68011780.05146 -52951662.65144  23548162.1334                   23548163.7464
 -49596939.00048 -38638526.37345  21740178.6484                   21740178.2934
 -41993053.73848 -32681507.25546  20817256.2974                   20817254.7234
   9930793.11746   7754440.81543  24496396.8444                   24496396.5984
 -37464578.79747 -29151924.23746  20560202.1094                   20560201.1054
 -61179168.64848 -47660627.84746  20995245.6334                   20995242.5784
 -14940147.23447 -11601185.45945  22368266.4384                   22368267.4694
 -11694185.28147  -9071337.66245  22389806.9844                   22389807.2464
 11  8 25  0 58 30.0000000  0  8G04G10G12G29G05G02G25G30
 -68034869.11346 -52969654.19443  23543768.5944                   23543769.9614
 -49632934.32048 -38666574.67245  21733328.5554                   21733328.4454
 -42097344.08248 -32762772.46646  20797410.2504                   20797408.7624
   9745642.44546   7610167.56143  24461163.0554                   24461163.3674
 -37606666.94147 -29262642.24546  20533163.8364                   20533163.0314
 -61258579.09848 -47722506.12346  20980134.4534                   20980131.4144
 -15107027.19147 -11731221.73746  22336510.2194                   22336511.8164
 -11856796.86347  -9198047.95045  22358862.7034                   22358862.7734
 11  8 25  0 59  0.0000000  0  8G04G10G12G29G05G02G25G30
 -68057950.27046 -52987639.53343  23539376.7734                   23539377.6644
 -49668417.57048 -38694223.95345  21726576.6644                   21726576.1134
 -42201011.91048 -32843552.60446  20777683.0554                   20777681.4144
   9560458.50846   7465868.55343  24425923.6414                   24425923.2384
 -37748161.53547 -29372897.74546  20506238.6094                   20506237.3134
 -61337799.48048 -47784236.29746  20965059.4064                   20965056.4184
 -15273403.14547 -11860865.28546  22304850.0784                   22304851.4184
 -12018849.01647  -9324322.30945  22328025.1094                   22328025.1564
 11  8 25  0 59 30.0000000  0  8G04G10G12G29G05G02G25G30
 -68081024.71146 -53005619.73444  23534985.7814                   23534987.0084
 -49703391.67648 -38721476.50545  21719920.9844                   21719921.0044
 -42304058.37948 -32923848.54246  20758073.8754                   20758072.5664
   9375241.57446   7321543.66842  24390676.7344                   24390677.5274
 -37889062.54347 -29482690.70846  20479425.6254                   20479424.7974
 -61416831.34448 -47845819.56346  20950020.2034                   20950016.9344
 -15439273.75447 -11990115.07046  22273285.9224                   22273287.0314
 -12180340.40247  -9450159.70645  22297294.3594                   22297294.5944
 11  8 25  1  0  0.0000000  0  8G04G10G12G29G05G02G25G30
 -68104096.76247 -53023597.95844  23530595.6484                   23530596.4804
 -49737862.30948 -38748336.75845  21713361.5864                   21713360.9224
 -42406486.08648 -33003662.34946  20738582.4064                   20738581.3524
   9189988.82446   7177190.92843  24355425.5634                   24355425.6804
 -38029372.22347 -29592022.90146  20452725.3134                   20452724.6564
 -61495678.97348 -47907259.27146  20935015.8134                   20935012.9344
 -15604640.09448 -12118971.92746  22241818.0554                   22241819.0474
 -12341272.45347  -9575561.26445  22266670.3134                   22266669.9344
 11  8 25  1  0 30.0000000  0  8G04G10G12G29G05G02G25G30
 -68127164.85247 -53041573.15644  23526206.0634                   23526206.9734
 -49771829.86348 -38774804.97945  21706897.5314                   21706897.1214
 -42508293.03548 -33082992.44246  20719209.4454                   20719208.2384
   9004703.14146   7032812.56243  24320166.2584                   24320166.5904
 -38169087.13347 -29700891.62446  20426138.7194                   20426137.9384
 -61574341.21148 -47968554.52446  20920046.7344                   20920044.0234
 -15769497.90247 -12247432.52946  22210446.3134                   22210447.6374
 -12501641.03947  -9700523.74745  22236153.1644                   22236152.4774
 11  8 25  1  1  0.0000000  0  8G04G10G12G29G05G02G25G30
 -68150234.68047 -53059549.68644  23521816.0554                   23521816.9384
 -49805302.33248 -38800887.43045  21700528.0864                   21700527.3674
 -42609484.23848 -33161842.72546  20699953.2814                   20699951.9964
   8819380.49646   6888405.38643  24284900.7194                   24284900.6764
 -38308211.32447 -29809300.05446  20399664.1254                   20399663.4184
 -61652823.91448 -48029709.87346  20905111.9694                   20905109.3134
 -15933850.14548 -12375499.17946  22179171.4064                   22179172.9064
 -12661449.23847  -9825049.57245  22205742.3444                   22205742.1214
 11  8 25  1  1 30.0000000  0  8G04G10G12G29G05G02G25G30
 -68173301.59047 -53077523.94144  23517427.2814                   23517427.2424
 -49838276.46148 -38826581.57445  21694253.6024                   21694252.6564
 -42710054.44148 -33240209.12546  20680815.6094                   20680814.1884
   8634026.81347   6743974.02443  24249629.1094                   24249629.4654
 -38446738.57447 -29917243.32946  20373303.6564                   20373302.4414
 -61731122.76248 -48090721.96746  20890212.1644                   20890209.5744
 -16097689.09848 -12503165.86946  22147993.5784                   22147994.8914
 -12820689.67647  -9949132.98445  22175440.1024                   22175439.8204
 11  8 25  1  2  0.0000000  0  8G04G10G12G29G05G02G25G30
 -68196370.34847 -53095499.64044  23513036.7114                   23513037.8364
 -49870758.72348 -38851892.45245  21688072.1174                   21688071.3674
 -42810007.56648 -33318094.66846  20661795.1724                   20661793.8754
   8448639.05947   6599516.14643  24214351.1414                   24214351.4734
 -38584671.55547 -30024723.54346  20347055.4304                   20347054.4494
 -61809242.33648 -48151594.37846  20875346.5554                   20875343.6954
 -16261016.76247 -12630434.16245  22116913.2664                   22116914.6844
 -12979364.49647 -10072775.67045  22145245.4224                   22145245.1524
 11  8 25  1  2 30.0000000  0  8G04G10G12G29G05G02G25G30
 -68219441.60247 -53113477.22844  23508646.3524                   23508647.5314
 -49902751.95347 -38876822.24345  21681984.1334                   21681983.5664
 -42909343.61348 -33395499.39047  20642892.0784                   20642890.7234
   8263218.09447   6455032.38344  24179066.8754                   24179066.7344
 -38722009.55147 -30131740.13046  20320920.9774                   20320920.0394
 -61887183.67248 -48212327.88346  20860514.8134                   20860512.1524
 -16423831.07847 -12757302.45345  22085930.6884                   22085931.9454
 -13137471.89147 -10195976.20345  22115158.1414                   22115157.7624
 11  8 25  1  3  0.0000000  0  8G04G10G12G29G05G02G25G30
 -68242516.66047 -53131457.81544  23504254.9064                   23504256.6214
 -49934259.18448 -38901373.35845  21675988.8364                   21675988.5864
 -43008063.35248 -33472423.86546  20624106.4924                   20624105.1294
   8077763.77347   6310522.57244  24143776.3054                   24143776.7464
 -38858752.33647 -30238292.93046  20294899.4224                   20294898.6954
 -61964948.44948 -48272923.81046  20845716.7664                   20845714.3284
 -16586130.68747 -12883769.66645  22055046.1804                   22055047.2774
 -13295010.72347 -10318733.70745  22085179.6174                   22085179.3094
 11  8 25  1  3 30.0000000  0  8G04G10G12G29G05G02G25G30
 -66690176.27747 -51921841.96144  23799655.8524                   23799657.1644
 -48389862.75048 -37697947.57445  21969877.5704                   21969877.0204
 -41530744.37148 -32321266.22546  20905230.7194                   20905229.2074
   9467702.61747   7393591.89144  24408272.6254                   24408273.1334
 -37419475.41847 -29116778.40946  20568785.0554                   20568784.0664
 -60467115.88748 -47105781.55946  21130744.6804                   21130741.9414
 -15172488.96948 -11782230.64845  22324053.0944                   22324054.5004
 -11876554.63347  -9213443.22445  22355102.5474                   22355102.6024
 11  8 25  1  4  0.0000000  0  8G04G10G12G29G05G02G25G30
 -66713263.93747 -51939832.37644  23795262.5554                   23795263.4884
 -48420408.69948 -37721749.63245  21964064.1254                   21964064.0234
 -41628234.76648 -32397232.76646  20886678.9454                   20886677.7304
   9282181.59846   7249030.11144  24372969.4614                   24372969.5744
 -37555028.10547 -29222403.85046  20542990.0004                   20542989.5164
 -60544532.98848 -47166106.58046  21116012.8834                   21116009.9304
 -15333755.94148 -11907893.21545  22293365.3054                   22293366.3794
 -12032953.64547  -9335312.55345  22325341.2814                   22325340.7234
 11  8 25  1  4 30.0000000  0  8G04G10G12G29G05G02G25G30
 -66736357.39847 -51957827.32544  23790868.3594                   23790869.0904
 -48450476.27748 -37745178.90945  21958342.9064                   21958343.0904
 -41725108.83648 -32472719.06746  20868244.8594                   20868242.9734
   9096629.72346   7104444.35944  24337660.1644                   24337660.3834
 -37689982.81248 -29327563.33146  20517309.0394                   20517308.4844
 -60621775.97348 -47226295.92746  21101314.0084                   21101311.4144
 -15494502.09048 -12033149.93245  22262776.0234                   22262777.4534
 -12188778.53947  -9456734.55345  22295688.2664                   22295688.2074
 11  8 25  1  5  0.0000000  0  8G04G10G12G29G05G02G25G30
 -66759460.12547 -51975829.50844  23786471.9304                   23786472.6604
 -48480071.02748 -37768239.76645  21952711.0164                   21952710.7544
 -41821370.17248 -32547727.91146  20849926.8674                   20849925.0744
   8911045.23846   6959833.06644  24302343.8204                   24302344.1954
 -37824341.79748 -29432258.62446  20491741.3984                   20491740.5664
 -60698848.85248 -47286352.71546  21086647.6884                   21086644.3484
 -15654728.29348 -12158001.51446  22232286.2734                   22232287.4064
 -12344030.55147  -9577710.09745  22266145.2664                   22266144.6094
 11  8 25  1  5 30.0000000  0  8G04G10G12G29G05G02G25G30
 -66782573.93747 -51993840.33444  23782073.7584                   23782074.9454
 -48509196.97348 -37790935.32345  21947168.6564                   21947168.3954
 -41917019.77048 -32622260.07346  20831725.1174                   20831723.7814
   8725427.80146   6815196.19743  24267021.6024                   24267022.6604
 -37958105.29748 -29536489.89146  20466286.8984                   20466286.0234
 -60775753.39548 -47346278.33546  21072013.1804                   21072010.2704
 -15814433.71147 -12282447.28446  22201895.1094                   22201896.3874
 -12498709.08247  -9698238.81645  22236710.7664                   22236710.3914
 11  8 25  1  6  0.0000000  0  8G04G10G12G29G05G02G25G30
 -66805698.29347 -52011859.38144  23777673.2664                   23777674.6684
 -48537855.43048 -37813266.57245  21941715.2114                   21941715.2194
 -42012057.26248 -32696315.27846  20813639.9924                   20813638.7274
   8539779.08246   6670534.86043  24231694.1954                   24231694.7074
 -38091271.41848 -29640255.67246  20440946.3444                   20440945.3364
 -60852489.35548 -47406072.58546  21057410.7974                   21057407.6994
 -15973615.32048 -12406484.90646  22171603.6024                   22171605.6644
 -12652811.30947  -9818318.42945  22207386.3054                   22207385.6094
 11  8 25  1  6 30.0000000  0  8G04G10G12G29G05G02G25G30
 -66828833.38346 -52029886.78044  23773270.2974                   23773272.6454
 -48566048.46148 -37835235.18745  21936350.7114                   21936350.0004
 -42106482.14848 -32769893.12946  20795671.4844                   20795670.0634
   8354100.79346   6525850.51243  24196359.8204                   24196361.2194
 -38223839.05548 -29743555.09847  20415719.3054                   20415718.4304
 -60929057.10948 -47465735.77046  21042840.4534                   21042837.3364
 -16132270.58248 -12530112.37446  22141413.1484                   22141414.1644
 -12806334.94147  -9937947.21845  22178171.2974                   22178170.9384
 11  8 25  1  7  0.0000000  0  8G04G10G12G29G05G02G25G30
 -66851981.59447 -52047924.43344  23768866.2034                   23768867.7464
 -48593780.54748 -37856844.60845  21931073.0864                   21931072.7274
 -42200296.31248 -32842995.07846  20777819.5004                   20777817.7154
   8168392.04746   6381142.42043  24161021.0084                   24161022.1684
 -38355809.21948 -29846388.96547  20390606.4694                   20390605.5124
 -61005459.44548 -47525270.06446  21028301.5704                   21028298.2814
 -16290399.42248 -12653329.63846  22111321.8674                   22111323.4774
 -12959280.12947 -10057125.26945  22149067.0004                   22149066.4734
 11  8 25  1  7 30.0000000  0  8G04G10G12G29G05G02G25G30
 -66875142.06247 -52065971.60444  23764458.7114                   23764460.4844
 -48621052.92248 -37878095.82045  21925883.4924                   21925882.6174
 -42293498.67248 -32915620.30946  20760083.5314                   20760081.9264
   7982655.28546   6236412.47043  24125676.7584                   24125677.4694
 -38487179.48848 -29948755.38847  20365607.2274                   20365606.5474
 -61081695.55948 -47584674.81646  21013794.4454                   21013791.3164
 -16447998.41448 -12776134.04746  22081331.5864                   22081333.2234
 -13111643.68747 -10175850.11845  22120072.8364                   22120072.2464
 11  8 25  1  8  0.0000000  0  8G04G10G12G29G05G02G25G30
 -66898315.35247 -52084028.72643  23760048.9064                   23760050.9144
 -48647868.30147 -37898990.91945  21920780.7194                   21920780.0084
 -42386089.88348 -32987769.32246  20742464.3754                   20742462.5704
   7796890.91446   6091661.07443  24090326.8754                   24090327.1294
 -38617949.55948 -30050654.10747  20340722.5864                   20340721.6294
 -61157766.48448 -47643950.86446  20999318.7034                   20999315.4454
 -16605065.81248 -12898524.21146  22051442.7344                   22051444.3754
 -13263424.19547 -10294120.63245  22091190.1174                   22091189.2584
 11  8 25  1  8 30.0000000  0  8G04G10G12G29G05G02G25G30
 -66921502.18447 -52102096.39643  23755636.6334                   23755638.1994
 -48674229.50447 -37919532.13845  21915764.5004                   21915763.2194
 -42478070.23048 -33059442.34746  20724960.8444                   20724959.2664
   7611099.57046   5946888.62243  24054972.2734                   24054972.3094
 -38748118.93448 -30152084.77147  20315952.2584                   20315951.3444
 -61233673.14548 -47703098.90046  20984874.1884                   20984870.9184
 -16761599.78948 -13020498.73046  22021655.3754                   22021656.5164
 -13414620.06247 -10411935.58345  22062418.6954                   22062418.1484
 11  8 25  1  9  0.0000000  0  8G04G10G12G29G05G02G25G30
 -66944702.18047 -52120174.34843  23751221.4304                   23751222.9534
 -48700138.38747 -37939720.89845  21910834.1804                   21910832.9654
 -42569439.10548 -33130638.88646  20707573.8834                   20707572.4384
   7425283.71947   5802097.03643  24019612.6644                   24019612.5164
 -38877685.77348 -30253045.92747  20291296.5004                   20291295.6094
 -61309415.28148 -47762118.75446  20970460.7034                   20970457.3444
 -16917597.54348 -13142055.41746  21991969.8754                   21991971.4184
 -13565228.79347 -10529293.03945  22033758.2974                   22033757.8984
 11  8 25  1  9 30.0000000  0  8G04G10G12G29G05G02G25G30
 -66967918.05947 -52138264.60743  23746804.1094                   23746803.9534
 -48725599.62947 -37959560.85345  21905989.1334                   21905987.9344
 -42660198.84048 -33201360.77546  20690302.8914                   20690301.2194
   7239442.39147   5657285.63444  23984248.5864                   23984247.9654
 -39006651.66048 -30353538.80247  20266755.0164                   20266754.1254
 -61384995.54348 -47821012.46546  20956078.2814                   20956074.9414
 -17073059.28948 -13263194.41246  21962386.7344                   21962388.0904
 -13715250.89147 -10646193.36145  22005210.1254                   22005210.2424
 11  8 25  1 10  0.0000000  0  8G04G10G12G29G05G02G25G30
 -66991151.03147 -52156368.19143  23742382.9384                   23742382.5234
 -48750616.52747 -37979054.56845  21901228.4064                   21901227.9494
 -42750350.91048 -33271609.16546  20673147.5164                   20673146.3524
   7053575.40246   5512454.23444  23948879.2114                   23948878.9654
 -39135017.06248 -30453563.77147  20242328.1954                   20242327.0314
 -61460415.73448 -47879781.44846  20941726.1804                   20941722.8164
 -17227983.94948 -13383914.92246  21932905.4534                   21932906.6804
 -13864685.42647 -10762635.84045  21976773.9924                   21976773.3874
 11  8 25  1 10 30.0000000  0  8G04G10G12G29G05G02G25G30
 -67014399.53947 -52174483.90243  23737959.5004                   23737958.6094
 -48775189.69947 -37998202.51645  21896551.7344                   21896551.9304
 -42839893.87148 -33341382.91946  20656107.9534                   20656106.8674
   6867685.64847   5367605.13044  23913505.4614                   23913505.4184
 -39262778.93448 -30553118.45447  20218015.7034                   20218014.6684
 -61535674.76248 -47938424.86446  20927404.9384                   20927401.3984
 -17382367.73048 -13504213.96046  21903527.2424                   21903528.5204
 -14013529.01247 -10878617.83545  21948450.1884                   21948449.8284
 11  8 25  1 11  0.0000000  0  8G04G10G12G29G05G02G25G30
 -65462245.98047 -50965013.59843  24033324.7344                   24033323.9844
 -47223903.96547 -36789408.45345  22191751.7274                   22191751.7934
 -41353407.86348 -32183082.14846  20938977.1884                   20938975.6334
   8257197.45746   6450341.66544  24177920.7894                   24177920.8364
 -37814515.48448 -29424601.46047  20493610.9144                   20493609.8244
 -60035353.50448 -46769343.37246  21212906.8054                   21212903.2274
 -15960786.39148 -12396488.22746  22174045.0474                   22174046.2034
 -12586357.81247  -9766536.37345  22220031.8204                   22220031.5124
 11  8 25  1 11 30.0000000  0  8G04G10G12G29G05G02G25G30
 -65485531.26647 -50983157.98743  24028892.8914                   24028892.4184
 -47247602.29347 -36807874.70345  22187242.1884                   22187242.1294
 -41441737.84048 -32251910.72646  20922168.1954                   20922167.1024
   8071261.27346   6305456.40344  24142537.7584                   24142538.5274
 -37941073.49248 -29523218.07147  20469527.6644                   20469526.4804
 -60110296.46147 -46827740.48846  21198645.3834                   21198642.3134
 -16114087.09848 -12515943.31046  22144873.0164                   22144874.0634
 -12734018.95747  -9881596.97845  22191932.6954                   22191932.2504
 11  8 25  1 12  0.0000000  0  8G04G10G12G29G05G02G25G30
 -65508835.79347 -51001317.33843  24024458.2664                   24024458.2544
 -47270867.25447 -36826003.23645  22182814.8134                   22182815.1024
 -41529462.15248 -32320267.35946  20905475.1804                   20905474.1994
   7885303.26246   6160554.11644  24107151.3834                   24107152.3524
 -38067028.71548 -29621364.97547  20445559.1724                   20445558.2384
 -60185082.82848 -46886015.57546  21184414.2424                   21184410.8484
 -16266843.71948 -12634974.43646  22115804.0004                   22115805.6994
 -12881086.81647  -9996195.30945  22163946.5704                   22163946.2544
 11  8 25  1 12 30.0000000  0  8G04G10G12G29G05G02G25G30
 -65532158.62947 -51019491.00243  24020020.1804                   24020020.9694
 -47293700.20347 -36843795.16145  22178470.5474                   22178470.4064
 -41616580.15248 -32388151.53246  20888897.0394                   20888895.7624
   7699325.72346   6015636.66344  24071760.6804                   24071761.0634
 -38192379.50448 -29719040.88947  20421705.9304                   20421704.5004
 -60259711.64547 -46944167.90646  21170212.7114                   21170209.7114
 -16419053.21948 -12753579.22146  22086839.7034                   22086841.1054
 -13027558.57447 -10110329.13745  22136073.6954                   22136073.4494
 11  8 25  1 13  0.0000000  0  8G04G10G12G29G05G02G25G30
 -65555503.46946 -51037681.82743  24015577.6254                   24015578.6764
 -47316106.76247 -36861254.83345  22174206.4534                   22174206.6134
 -41703095.20748 -32455565.88146  20872433.6954                   20872432.6334
   7513326.92246   5870702.58844  24036366.3284                   24036366.5944
 -38317128.32848 -29816247.74047  20397966.9844                   20397965.8364
 -60334186.65248 -47002200.38046  21156040.4144                   21156037.4574
 -16570716.76248 -12871758.58146  22057979.2274                   22057980.3874
 -13173435.76247 -10223999.66145  22108314.2664                   22108314.0554
 11  8 25  1 13 30.0000000  0  8G04G10G12G29G05G02G25G30
 -65578871.50446 -51055890.69243  24011130.4844                   24011132.1884
 -47338090.68747 -36878385.18045  22170023.5634                   22170023.1524
 -41789009.09448 -32522511.79247  20856085.1334                   20856083.7774
   7327306.65646   5725751.81944  24000967.2424                   24000968.0824
 -38441275.92648 -29912986.10247  20374342.2504                   20374341.2344
 -60408509.64547 -47060114.39746  21141897.3364                   21141894.1294
 -16721833.55948 -12989511.91846  22029222.6804                   22029224.3404
 -13318717.82047 -10337206.47445  22080668.2894                   22080667.9024
 11  8 25  1 14  0.0000000  0  8G04G10G12G29G05G02G25G30
 -65602260.64146 -51074116.01544  24006679.4454                   24006681.3014
 -47359652.39147 -36895186.54945  22165920.3914                   22165919.3014
 -41874319.52348 -32588987.46946  20839850.8134                   20839849.7424
   7141269.27746   5580787.73844  23965565.1254                   23965566.1134
 -38564818.73848 -30009253.20447  20350832.7894                   20350831.6804
 -60482678.74648 -47117908.50746  21127783.2584                   21127780.5744
 -16872399.27348 -13106835.83246  22000570.7504                   22000572.1214
 -13463400.82847 -10449946.46845  22053135.7734                   22053135.5664
 11  8 25  1 14 30.0000000  0  8G04G10G12G29G05G02G25G30
 -65625671.74246 -51092358.45644  24002224.7274                   24002226.5514
 -47380794.67647 -36911661.07545  22161897.1724                   22161895.6374
 -41959027.61348 -32654993.78846  20823731.6644                   20823730.1564
   6955214.67646   5435810.23544  23930160.2664                   23930161.3834
 -38687757.41448 -30105049.55047  20327438.4064                   20327437.1414
 -60556695.28147 -47175583.72946  21113698.4384                   21113695.7034
 -17022412.76648 -13223729.44546  21972023.7974                   21972025.1374
 -13607484.00447 -10562219.05745  22025717.8364                   22025717.7584
 11  8 25  1 15  0.0000000  0  8G04G10G12G29G05G02G25G30
 -65649104.50846 -51110617.74344  23997765.2114                   23997767.5944
 -47401519.85247 -36927810.59645  22157953.3054                   22157951.4494
 -42043133.79348 -32720531.08847  20807726.4144                   20807725.1844
   6769144.37946   5290820.49244  23894752.6254                   23894753.1094
 -38810090.78148 -30200374.22147  20304159.0314                   20304157.9574
 -60630559.17648 -47233140.01046  21099642.6484                   21099639.6954
 -17171871.79748 -13340190.99346  21943583.1024                   21943584.1024
 -13750965.24647 -10674022.60445  21998414.1174                   21998413.6374
 11  8 25  1 15 30.0000000  0  8G04G10G12G29G05G02G25G30
 -65672561.28946 -51128895.79444  23993302.6804                   23993303.9264
 -47421832.38347 -36943638.54245  22154087.7584                   22154087.0474
 -42126640.15648 -32785600.99846  20791836.0164                   20791834.4064
   6583058.03146   5145818.26344  23859341.2664                   23859341.7624
 -38931820.20748 -30295228.28647  20280994.8594                   20280994.0044
 -60704272.76248 -47290579.17446  21085615.5634                   21085612.5354
 -17320776.48848 -13456220.59846  21915247.5634                   21915248.2074
 -13893845.15247 -10785357.58945  21971224.7504                   21971224.4454
 11  8 25  1 16  0.0000000  0  8G04G10G12G29G05G02G25G30
 -65696043.10546 -51147193.29144  23988833.6254                   23988835.2584
 -47441735.72747 -36959147.66345  22150299.9224                   22150299.7034
 -42209548.47348 -32850204.89246  20776058.9454                   20776057.5084
   6396956.01246   5000803.78544  23823927.6174                   23823927.1684
 -39052946.31248 -30389612.24347  20257945.1414                   20257943.9184
 -60777837.64548 -47347902.45546  21071616.7344                   21071613.5594
 -17469125.84448 -13571817.48046  21887017.8914                   21887018.3094
 -14036122.93447 -10896223.37745  21944150.5634                   21944149.5634
 11  8 25  1 16 30.0000000  0  8G04G10G12G29G05G02G25G30
 -65719550.75446 -51165510.90644  23984361.2034                   23984361.3284
 -47461233.18447 -36974340.49545  22146589.9924                   22146589.8444
 -42291859.73848 -32914343.54347  20760395.7274                   20760394.3634
   6210839.13747   4855777.72344  23788510.3444                   23788510.4924
 -39173469.02048 -30483526.01447  20235010.4844                   20235009.3404
 -60851254.77048 -47405110.62946  21057645.8524                   21057642.7814
 -17616918.65248 -13686980.67746  21858893.7584                   21858894.6094
 -14177797.85247 -11006619.38645  21917190.8284                   21917189.9344
 11  8 25  1 17  0.0000000  0  8G04G10G12G29G05G02G25G30
 -65743082.16047 -51183847.11744  23979883.4924                   23979883.6764
 -47480324.68447 -36989216.99345  22142956.5704                   22142956.7544
 -42373572.15248 -32978015.56146  20744846.5944                   20744845.2424
   6024711.02347   4710742.93444  23753091.7344                   23753091.6134
 -39293385.52748 -30576967.42147  20212191.1564                   20212189.9804
 -60924522.43448 -47462202.31546  21043703.4924                   21043700.3404
 -17764150.83648 -13801707.03646  21830875.8984                   21830877.6054
 -14318866.05947 -11116542.64245  21890346.3594                   21890345.2934
 11  8 25  1 17 30.0000000  0  8G04G10G12G29G05G02G25G30
 -65766640.43447 -51202204.22643  23975400.2894                   23975400.4304
 -47499015.85247 -37003781.54045  22139399.6254                   22139400.2974
 -42454689.42248 -33041223.82846  20729410.2194                   20729409.3244
   5838569.76647   4565697.84744  23717669.8134                   23717670.5984
 -39412698.60248 -30669938.62747  20189486.6094                   20189485.3674
 -60997644.07048 -47519180.22146  21029788.8204                   21029785.7624
 -17910823.69148 -13915997.54446  21802965.1254                   21802966.9184
 -14459329.29747 -11225994.49345  21863616.6334                   21863616.3404
 11  8 25  1 18  0.0000000  0  8G04G10G12G29G05G02G25G30
 -65790223.27347 -51220580.49143  23970912.6954                   23970912.6214
 -47517306.69547 -37018034.17645  22135918.9774                   22135919.8054
 -42535209.45348 -33103966.70947  20714087.6334                   20714086.1994
   5652419.39147   4420645.65244  23682246.8914                   23682247.0594
 -39531405.35548 -30762437.37647  20166897.1804                   20166896.4454
 -61070617.60248 -47576042.71746  21015902.5944                   21015899.2584
 -18056932.80948 -14029848.78146  21775161.4534                   21775163.1644
 -14599183.39847 -11334971.70145  21837003.2814                   21837002.5904
 11  8 25  1 18 30.0000000  0  8G04G10G12G29G05G02G25G30
 -64238415.09846 -50011379.30443  24266211.2114                   24266211.9304
 -45959784.38347 -35804380.43545  22432306.1804                   22432306.2504
 -41039715.44548 -31938646.69747  20998670.9694                   20998669.5204
   7041682.39147   5503188.31244  23946615.0864                   23946615.4924
 -38074086.31248 -29626864.07247  20444215.7344                   20444215.0744
 -59568026.12948 -46405192.22446  21301836.0474                   21301833.0274
 -16627056.72348 -12915659.60946  22047257.7664                   22047259.5124
 -13163007.44147 -10215873.52345  22110298.6334                   22110298.2894
 11  8 25  1 19  0.0000000  0  8G04G10G12G29G05G02G25G30
 -64262055.36746 -50029800.32143  24261712.1024                   24261713.2624
 -45977290.16447 -35818021.32545  22428975.3524                   22428974.7504
 -41119051.03148 -32000466.63147  20983573.8204                   20983572.6024
   6855510.03547   5358118.99144  23911187.1094                   23911187.7234
 -38191587.17648 -29718423.17447  20421856.2814                   20421855.1294
 -59640712.57448 -46461831.02646  21288004.0634                   21288001.1884
 -16772041.34848 -13028634.64046  22019668.0944                   22019669.7114
 -13301647.42247 -10323904.66245  22083916.2114                   22083915.2934
 11  8 25  1 19 30.0000000  0  8G04G10G12G29G05G02G25G30
 -64285721.55946 -50048241.55843  24257208.6724                   24257209.3874
 -45994404.31647 -35831357.02545  22425718.6094                   22425718.1524
 -41197792.67648 -32061823.75247  20968589.7734                   20968588.7624
   6669331.53147   5213044.82644  23875758.6954                   23875759.1994
 -38308481.55548 -29809509.67147  20399611.9774                   20399610.6484
 -59713253.33248 -46518356.28546  21274200.1254                   21274197.5434
 -16916458.22748 -13141167.26546  21992186.5474                   21992187.8984
 -13439675.30947 -10431458.84345  22057650.0704                   22057649.8634
 11  8 25  1 20  0.0000000  0  8G04G10G12G29G05G02G25G30
 -64309418.71946 -50066706.87143  24252699.2274                   24252700.8364
 -46011134.35247 -35844393.43145  22422534.9774                   22422534.6604
 -41275945.81248 -32122722.29946  20953718.0314                   20953716.7424
   6483143.54347   5067963.27344  23840328.3364                   23840327.9144
 -38424773.96148 -29900127.11047  20377482.3054                   20377480.9774
 -59785653.48448 -46574771.98846  21260422.8054                   21260420.0704
 -17060310.54348 -13253259.96346  21964812.1954                   21964813.8914
 -13577094.60547 -10538538.79845  22031500.5474                   22031499.7344
 11  8 25  1 20 30.0000000  0  8G04G10G12G29G05G02G25G30
 -64333146.16846 -50085195.89943  24248183.3754                   24248185.6134
 -46027482.27747 -35857132.08745  22419424.2424                   22419423.9064
 -41353510.28148 -32183162.14347  20938957.8754                   20938956.7734
   6296948.45747   4922876.17744  23804896.4924                   23804896.4414
 -38540463.29348 -29990274.62647  20355467.3754                   20355465.9844
 -59857912.75847 -46631077.91846  21246672.7344                   21246669.8134
 -17203595.74248 -13364910.75246  21937546.2734                   21937547.1024
 -13713903.28947 -10645142.95145  22005466.5474                   22005466.0204
 11  8 25  1 21  0.0000000  0  8G04G10G12G29G05G02G25G30
 -64356901.72346 -50103706.72943  24243663.3524                   24243665.2814
 -46043447.93447 -35869572.87445  22416386.0864                   22416385.5164
 -41430484.70748 -32243142.21846  20924309.9144                   20924308.6914
   6110749.72747   4777786.24644  23769464.0554                   23769463.6804
 -38655546.93448 -30079950.17047  20333567.7504                   20333566.5124
 -59930029.24247 -46687272.57246  21232949.0084                   21232946.2154
 -17346310.03548 -13476116.67946  21910388.2194                   21910389.5004
 -13850097.82447 -10751268.54345  21979549.6334                   21979549.2034
 11  8 25  1 21 30.0000000  0  8G04G10G12G29G05G02G25G30
 -64380687.52746 -50122241.23943  24239137.4614                   24239138.5354
 -46059036.33647 -35881719.68545  22413419.4924                   22413419.1374
 -41506871.83648 -32302664.66446  20909773.8754                   20909772.6724
   5924546.77747   4632693.02744  23734030.5634                   23734030.5434
 -38770027.08648 -30169155.46247  20311782.7114                   20311781.6374
 -60002005.47347 -46743357.94346  21219252.5084                   21219249.5434
 -17488453.88348 -13586878.11046  21883339.0394                   21883340.4964
 -13985679.15247 -10856916.31545  21953749.1644                   21953748.8754
 11  8 25  1 22  0.0000000  0  8G04G10G12G29G05G02G25G30
 -64404504.87946 -50140800.22643  24234605.7664                   24234606.2344
 -46074251.27747 -35893575.48145  22410523.3754                   22410523.5434
 -41582673.60548 -32361730.97946  20895349.5394                   20895348.2424
   5738340.06347   4487596.88544  23698596.5234                   23698596.1604
 -38883904.41848 -30257891.01847  20290112.6094                   20290111.2774
 -60073843.07047 -46799335.28346  21205582.3444                   21205579.3594
 -17630026.80148 -13697194.66046  21856398.6094                   21856400.2384
 -14120647.05947 -10962086.10445  21928065.9064                   21928065.5944
 11  8 25  1 22 30.0000000  0  9G04G26G10G12G29G05G02G25G30
 -64428358.62146 -50159387.62443  24230066.5554                   24230066.9614
  17045432.38355  13299154.06352  24819238.6484                   24819243.6684
 -46089100.00847 -35905145.95644  22407697.9534                   22407697.8484
 -41657895.72348 -32420345.62346  20881035.3134                   20881033.9454
   5552125.56347   4342494.69244  23663161.4304                   23663160.3484
 -38997183.78948 -30346160.63547  20268556.4694                   20268555.1954
 -60145547.37148 -46855208.75546  21191937.4454                   21191934.4774
 -17771032.21548 -13807069.00146  21829566.2274                   21829567.5824
 -14255005.38747 -11066780.89745  21902498.5634                   21902498.1094
 11  8 25  1 23  0.0000000  0  9G04G26G10G12G29G05G02G25G30
 -64452251.84846 -50178005.75443  24225520.4224                   24225521.0824
  16850782.03545  13147478.83242  24782197.2664                   24782201.3634
 -46103587.97346 -35916435.27044  22404941.0634                   22404940.7274
 -41732542.42648 -32478511.89546  20866830.2344                   20866828.8984
   5365902.19147   4197385.60344  23627724.1174                   23627722.5204
 -39109867.93048 -30433966.44147  20247113.0314                   20247111.6844
 -60217121.80148 -46910981.03246  21178317.1564                   21178313.8524
 -17911471.48048 -13916502.18746  21802841.5784                   21802843.1454
 -14388755.86347 -11171002.03345  21877046.8674                   21877046.0784
 11  8 25  1 23 30.0000000  0  9G04G26G10G12G29G05G02G25G30
 -64476191.95346 -50196660.40243  24220964.7424                   24220965.3364
  16656005.49645  12995705.30942  24745133.0554                   24745136.3244
 -46117725.32047 -35927451.40245  22402251.2894                   22402250.9654
 -41806621.61748 -32536235.94846  20852733.6884                   20852732.1334
   5179664.18447   4052265.08044  23592284.2504                   23592282.6454
 -39221964.06248 -30521314.05647  20225781.7034                   20225780.5984
 -60288573.20347 -46966657.44046  21164720.2274                   21164717.3054
 -18051350.44548 -14025498.77746  21776223.4844                   21776225.0824
 -14521904.75447 -11274754.40645  21851709.1724                   21851708.4024
 11  8 25  1 24  0.0000000  0  9G04G26G10G12G29G05G02G25G30
 -64500177.94547 -50215350.81543  24216400.0554                   24216400.6024
  16461107.09046  12843836.78142  24708044.8284                   24708047.4144
 -46131513.69947 -35938195.61645  22399627.7194                   22399627.1954
 -41880133.27348 -32593517.76246  20838744.8134                   20838743.6334
   4993414.04347   3907135.12943  23556841.8674                   23556841.3164
 -39333471.21148 -30608202.71947  20204562.9384                   20204561.3834
 -60359901.68047 -47022238.06146  21151146.8754                   21151143.7584
 -18190666.71548 -14134056.89746  21749712.3914                   21749713.8954
 -14654450.01247 -11378036.41945  21826486.5004                   21826485.9104
 11  8 25  1 24 30.0000000  0  9G04G26G10G12G29G05G02G25G30
 -64524206.51247 -50234074.40143  24211827.3594                   24211828.5044
  16266093.40646  12691878.46643  24670935.6024                   24670938.5904
 -46144951.92647 -35948666.98045  22397070.7034                   22397069.8054
 -41953074.28147 -32650354.94046  20824864.7034                   20824863.2504
   4807156.43447   3761999.37444  23521398.3674                   23521397.9344
 -39444385.89548 -30694629.72047  20183456.5394                   20183455.4734
 -60431104.14547 -47077720.47546  21137597.8524                   21137594.6684
 -18329415.15248 -14242172.56546  21723309.6094                   21723311.1024
 -14786386.89547 -11480844.36545  21801379.6884                   21801379.0514
 11  8 25  1 25  0.0000000  0  9G04G26G10G12G29G05G02G25G30
 -64548275.73447 -50252829.70243  24207247.4614                   24207248.1214
  16070969.62546  12539834.35043  24633804.3054                   24633807.5354
 -46158040.81647 -35958866.12845  22394580.1334                   22394579.0864
 -42025444.78547 -32706747.54346  20811092.8284                   20811091.8554
   4620894.84847   3616860.52844  23485953.7894                   23485954.6024
 -39554705.77348 -30780593.23847  20162463.1414                   20162462.4144
 -60502178.77348 -47133103.30746  21124072.5554                   21124069.5664
 -18467592.48848 -14349843.21546  21697015.2974                   21697016.6524
 -14917712.62147 -11583176.09645  21776389.2114                   21776388.7234
 11  8 25  1 25 30.0000000  0  9G04G26G10G12G29G05G02G25G30
 -64572385.87546 -50271616.80643  24202658.9614                   24202659.9264
  15875738.43446  12387706.51943  24596651.9694                   24596655.8714
 -46170783.33247 -35968795.37845  22392154.9064                   22392154.5314
 -42097245.46548 -32762696.15246  20797429.6094                   20797428.2584
   4434630.50847   3471719.55844  23450509.4304                   23450509.6454
 -39664431.31248 -30866093.63747  20141583.0164                   20141582.1684
 -60573126.53948 -47188387.28246  21110571.8754                   21110568.7154
 -18605197.69148 -14457068.05246  21670830.2194                   21670831.7894
 -15048426.41847 -11685031.00245  21751515.1254                   21751514.8364
 11  8 25  1 26  0.0000000  0  9G04G26G10G12G29G05G02G25G30
 -64596540.89846 -50290438.87143  24198062.1564                   24198063.1454
  15680399.16446  12235494.39943  24559480.9454                   24559484.0744
 -46183185.91847 -35978459.76445  22389794.2974                   22389794.2304
 -42168480.87548 -32818204.28546  20783874.1724                   20783872.6914
   4248361.39147   3326574.88644  23415063.4774                   23415063.5744
 -39773566.49648 -30951134.01347  20120815.7814                   20120813.9734
 -60643951.50448 -47243575.57046  21097094.5704                   21097091.5984
 -18742233.03548 -14563848.84046  21644753.2974                   21644754.4534
 -15178531.05547 -11786411.24245  21726757.0234                   21726756.7074
 11  8 25  1 26 30.0000000  0  9G04G26G10G12G29G05G02G25G30
 -63045317.83646 -49081693.59943  24493250.2194                   24493251.3674
  17060383.71946  13310807.47143  24822082.6884                   24822086.5944
 -44619828.44946 -34760259.13245  22687291.5004                   22687291.6524
 -40663728.09048 -31645669.67946  21070219.0314                   21070217.3634
   5637517.18847   4409034.00844  23679410.5704                   23679411.3364
 -38306685.55548 -29808109.88147  20399953.3754                   20399952.1484
 -59139229.28148 -46071064.74346  21383433.3674                   21383430.2974
 -17303270.43448 -13442579.29346  21918578.6334                   21918580.0044
 -13732599.14147 -10659711.05545  22001908.9774                   22001908.4694
 11  8 25  1 27  0.0000000  0  9G04G26G10G12G29G05G02G25G30
 -63069553.55946 -49100578.59643  24488637.6724                   24488639.2664
  16864846.97746  13158441.45742  24784872.9924                   24784876.5904
 -44631549.78146 -34769392.68145  22685060.9144                   22685060.9654
 -40733828.01648 -31700293.00646  21056879.2664                   21056878.0234
   5451251.54347   4263892.03344  23643965.6804                   23643965.9964
 -38414630.77048 -29892223.00647  20379412.1174                   20379411.2074
 -59209800.37948 -46126055.20346  21370004.0234                   21370000.9104
 -17439153.09448 -13548461.88446  21892721.1484                   21892722.1094
 -13861473.74247 -10760132.82145  21977384.5394                   21977384.5084
 11  8 25  1 27 30.0000000  0  9G04G26G10G12G29G05G02G25G30
 -63093830.39546 -49119495.59442  24484018.2664                   24484019.8834
  16669215.28145  13006001.48843  24747644.5084                   24747648.4304
 -44642935.21546 -34778264.45345  22682894.6954                   22682894.4614
 -40803362.49648 -31754475.74146  21043647.5944                   21043646.1134
   5264989.34847   4118752.75045  23608521.2194                   23608521.7544
 -38521982.03948 -29975873.32247  20358983.8984                   20358982.8054
 -59280245.79347 -46180947.73446  21356598.5394                   21356595.5514
 -17574458.19548 -13653894.43546  21866973.6024                   21866974.4734
 -13989732.78947 -10860074.94345  21952977.8134                   21952977.3094
 11  8 25  1 28  0.0000000  0  9G04G26G10G12G29G05G02G25G30
 -63118147.39846 -49138443.87943  24479390.9224                   24479392.2664
  16473492.65245  12853490.62542  24710398.7734                   24710403.6564
 -44653986.48847 -34786875.84144  22680791.3594                   22680790.8444
 -40872331.68747 -31808217.98546  21030523.2424                   21030521.8404
   5078732.89547   3973617.94444  23573077.6724                   23573077.4734
 -38628738.24248 -30059059.95347  20338668.8674                   20338667.5354
 -59350564.98047 -46235741.90246  21343217.2194                   21343214.0594
 -17709183.49248 -13758875.18446  21841335.7894                   21841336.8324
 -14117374.30147 -10959535.84645  21928688.4844                   21928688.0784
 11  8 25  1 28 30.0000000  0  9G04G26G10G12G29G05G02G25G30
 -63142506.47746 -49157425.05142  24474754.2664                   24474757.6024
  16277680.79745  12700910.25042  24673137.2894                   24673141.4264
 -44664708.09847 -34795230.35344  22678751.1484                   22678750.9614
 -40940738.53948 -31861522.05046  21017505.6724                   21017504.3634
   4892481.82447   3828487.35444  23537635.0704                   23537635.0704
 -38734901.75448 -30141784.74247  20318466.6094                   20318465.4614
 -59420760.09447 -46290439.38746  21329859.4694                   21329856.6174
 -17843329.58247 -13863404.60946  21815808.3364                   21815809.8794
 -14244399.47747 -11058516.51445  21904516.5164                   21904515.8404
 11  8 25  1 29  0.0000000  0  9G04G26G10G12G29G05G02G25G30
 -63166906.28946 -49176437.99243  24470112.5704                   24470114.3444
  16081783.98445  12548263.64542  24635858.7734                   24635863.5634
 -44675101.41047 -34803329.05344  22676773.7274                   22676773.0824
 -41008582.95748 -31914387.85646  21004595.4064                   21004594.1254
   4706238.81347   3683363.00444  23502194.0944                   23502193.7304
 -38840471.44148 -30224046.81747  20298377.3754                   20298376.2504
 -59490830.23448 -46345039.50046  21316525.7504                   21316522.7774
 -17976894.04748 -13967480.82146  21790392.2584                   21790393.7194
 -14370806.18047 -11157015.24145  21880461.6724                   21880461.8324
 11  8 25  1 29 30.0000000  0  9G04G26G10G12G29G05G02G25G30
 -63191347.42646 -49195482.99343  24465460.8444                   24465463.5944
  15885805.10946  12395553.09643  24598565.5944                   24598569.8484
 -44685169.17647 -34811174.10944  22674857.6484                   22674857.0124
 -41075866.56648 -31966816.66146  20991791.9224                   20991790.2234
   4520005.45746   3538246.21344  23466754.5944                   23466754.9494
 -38945447.46148 -30305846.28647  20278400.9384                   20278400.1214
 -59560775.83248 -46399542.55946  21303215.6804                   21303212.6254
 -18109875.82048 -14071102.99346  21765086.7034                   21765088.0904
 -14496593.87147 -11255031.61545  21856525.2584                   21856524.9534
 11  8 25  1 30  0.0000000  0  9G04G26G10G12G29G05G02G25G30
 -63215833.78546 -49214563.22943  24460802.2504                   24460803.6414
  15689742.94146  12242777.57643  24561255.8594                   24561260.4104
 -44694918.57047 -34818771.07444  22673002.3914                   22673002.3634
 -41142594.87148 -32018812.76646  20979094.1094                   20979092.5514
   4333779.03547   3393134.80244  23431317.5394                   23431316.8164
 -39049834.66048 -30387186.93647  20258536.7814                   20258535.5904
 -59630601.81248 -46453952.42546  21289928.3134                   21289925.4654
 -18242278.15648 -14174273.66446  21739891.3284                   21739892.8404
 -14621766.17247 -11352568.47645  21832706.0004                   21832705.4454
 11  8 25  1 30 30.0000000  0  9G04G26G10G12G29G05G02G25G30
 -63240361.08246 -49233675.42243  24456134.5394                   24456135.1914
  15493605.27746  12089943.25343  24523932.8134                   24523936.5784
 -44704347.97747 -34826118.66544  22671208.0164                   22671208.0004
 -41208764.66048 -32070373.65946  20966501.8444                   20966500.7424
   4147565.18447   3248033.19344  23395881.8054                   23395881.4344
 -39153629.11748 -30468065.71147  20238785.3834                   20238783.8524
 -59700304.09848 -46508265.90646  21276664.5864                   21276661.7584
 -18374095.56247 -14276988.53446  21714807.3834                   21714808.5084
 -14746318.10947 -11449621.92545  21809004.7274                   21809003.8054
 11  8 25  1 31  0.0000000  0  9G04G26G10G12G29G05G02G25G30
 -63264931.49246 -49252821.12743  24451458.8524                   24451459.8914
  15297393.29746  11937051.14443  24486594.7194                   24486598.3794
 -44713461.84846 -34833220.41044  22669473.5784                   22669474.0474
 -41274379.15648 -32121501.85846  20954016.0554                   20954014.8554
   3961363.48447   3102941.04344  23360448.8204                   23360448.3134
 -39256832.91448 -30548484.23747  20219146.2734                   20219145.5004
 -59769884.91847 -46562484.73846  21263423.7034                   21263420.6684
 -18505328.97347 -14379248.33846  21689834.2504                   21689835.6334
 -14870250.94147 -11546192.96545  21785420.9924                   21785420.1134
 11  8 25  1 31 30.0000000  0  9G04G26G10G12G29G05G02G25G30
 -63289542.86346 -49271998.81543  24446775.5004                   24446776.7074
  15101112.33246  11784105.14943  24449243.0864                   24449246.4414
 -44722260.80146 -34840076.75744  22667799.3444                   22667799.0004
 -41339437.93448 -32172197.01946  20941635.7734                   20941634.4264
   3775177.84047   2957861.41045  23325019.1414                   23325018.1604
 -39359443.96548 -30628440.88247  20199620.3054                   20199618.8634
 -59839342.31647 -46616607.40946  21250206.3134                   21250203.4494
 -18635974.87147 -14481050.35146  21664973.7194                   21664975.1884
 -14993561.72747 -11642279.29545  21761955.8444                   21761954.9654
 11  8 25  1 32  0.0000000  0  9G04G26G10G12G29G05G02G25G30
 -63314199.87946 -49291212.08643  24442083.9694                   24442084.4734
  14904761.09446  11631104.47343  24411878.7664                   24411880.9774
 -44730752.00846 -34846693.26944  22666183.5784                   22666183.4534
 -41403946.75448 -32222463.64746  20929360.2344                   20929358.9304
   3589005.16847   2812791.84845  23289591.2504                   23289590.9694
 -39461467.40648 -30707939.65647  20180205.5084                   20180204.5434
 -59908681.71147 -46670638.13046  21237011.3364                   21237008.8634
 -18766037.07048 -14582397.53546  21640223.3594                   21640225.2274
 -15116254.62547 -11737884.16045  21738608.3134                   21738607.6374
 11  8 25  1 32 30.0000000  0  9G04G26G10G12G29G05G02G25G30
 -63338900.78547 -49310459.52243  24437383.1024                   24437383.4804
  14708343.77346  11478052.14443  24374501.5474                   24374503.9264
 -44738936.64546 -34853070.91944  22664626.4774                   22664625.8554
 -41467905.50448 -32272301.64246  20917189.2814                   20917188.3524
   3402848.19947   2667734.53144  23254166.3284                   23254166.5824
 -39562902.56648 -30786980.02847  20160903.2504                   20160902.3244
 -59977901.30147 -46724575.47646  21223839.2034                   21223836.7234
 -18895513.15248 -14683287.99646  21615585.1644                   21615586.7234
 -15238327.69147 -11833006.04045  21715378.1024                   21715377.8404
 11  8 25  1 33  0.0000000  0  9G04G26G10G12G29G05G02G25G30
 -63363648.14847 -49329743.19443  24432674.3134                   24432674.3594
  14511861.58246  11324949.41443  24337112.4064                   24337114.6214
 -44746820.19146 -34859213.94244  22663125.8914                   22663125.8834
 -41531318.17648 -32321714.13546  20905122.4064                   20905120.9494
   3216706.07847   2522688.76645  23218745.2344                   23218745.1994
 -39663752.08648 -30865564.04547  20141712.1254                   20141710.9344
 -60047004.18047 -46778421.89046  21210689.5554                   21210686.7464
 -19024404.65248 -14783722.93646  21591057.8284                   21591059.0824
 -15359782.95747 -11927646.50846  21692266.3054                   21692265.9104
 11  8 25  1 33 30.0000000  0  9G04G26G10G12G29G05G02G25G30
 -63388439.41047 -49349061.09443  24427956.4224                   24427957.4414
  14315320.25446  11171800.56743  24299711.0784                   24299714.1724
 -44754402.55546 -34865122.31444  22661682.9774                   22661683.0084
 -41594183.65648 -32370700.24346  20893159.6094                   20893158.4184
   3030583.39847   2377658.14345  23183326.7504                   23183327.0274
 -39764013.53148 -30943689.83347  20122632.9224                   20122631.7974
 -60115987.92247 -46832175.46546  21197562.4144                   21197559.6994
 -19152707.75447 -14883699.39546  21566642.7974                   21566643.7234
 -15480617.01248 -12021802.93446  21669272.1954                   21669271.6644
 11  8 25  1 34  0.0000000  0  9G04G26G10G12G29G05G02G25G30
 -61837853.76646 -48140812.50343  24723023.5784                   24723023.3164
  15694149.47746  12246213.09442  24562093.4614                   24562095.8524
 -43186266.31646 -33643197.98144  22960089.6334                   22960089.6374
 -40081081.42648 -31191659.56246  21181093.2194                   21181092.1374
   4419908.00047   3460248.77245  23447706.6174                   23447706.8984
 -38288264.55148 -29793755.55347  20403458.7194                   20403457.3324
 -58609430.64847 -45658234.74946  21484250.4534                   21484247.7074
 -17704997.44148 -13755613.44446  21842132.7114                   21842133.7384
 -14025405.60948 -10887872.00246  21946189.7034                   21946189.6844
 11  8 25  1 34 30.0000000  0  9G04G26G10G12G29G05G02G25G30
 -61862729.73046 -48160196.38843  24718289.5784                   24718289.8914
  15497502.77346  12092982.11643  24524671.8444                   24524675.1484
 -43193251.55146 -33648641.09844  22958760.5164                   22958760.2704
 -40142853.48448 -31239793.65746  21169338.2034                   21169337.2154
   4233832.04747   3315254.54945  23412297.3134                   23412297.9024
 -38387349.04348 -29870964.22847  20384603.7584                   20384602.0204
 -58678174.30947 -45711801.22946  21471169.1564                   21471166.2074
 -17832118.21948 -13854668.58846  21817942.4694                   21817943.1884
 -14144993.13348 -10981057.09046  21923433.0474                   21923432.9734
 11  8 25  1 35  0.0000000  0  9G04G26G10G12G29G05G02G25G30
 -61887651.58646 -48179615.99243  24713546.5864                   24713547.2934
  15300804.54346  11939710.99343  24487241.2734                   24487244.9384
 -43199945.59847 -33653857.26444  22957486.8594                   22957486.5434
 -40204084.85248 -31287506.41946  21157686.7584                   21157685.3444
   4047778.04747   3170277.42445  23376892.6094                   23376892.5944
 -38485849.25448 -29947717.62747  20365859.6334                   20365858.2854
 -58746802.01248 -45765277.37946  21458109.5474                   21458106.6564
 -17958650.08248 -13953264.85246  21793864.2584                   21793865.1994
 -14263960.31648 -11073758.82946  21900794.4384                   21900794.2424
 11  8 25  1 35 30.0000000  0  9G04G26G10G12G29G05G02G25G30
 -61912614.91846 -48199067.95043  24708796.0314                   24708797.6564
  15104062.46146  11786405.60543  24449802.1804                   24449806.1334
 -43206347.31246 -33658845.63444  22956268.5004                   22956268.3634
 -40264772.79748 -31334795.75746  21146138.0314                   21146136.6564
   3861751.63347   3025321.79445  23341492.9534                   23341493.0984
 -38583761.53148 -30024012.89247  20347227.2974                   20347226.1764
 -58815309.50848 -45818659.86346  21445072.9224                   21445069.9454
 -18084587.89848 -14051398.20546  21769898.7664                   21769899.8634
 -14382302.46148 -11165973.50946  21878274.7034                   21878274.5634
 11  8 25  1 36  0.0000000  0  9G04G26G10G12G29G05G02G25G30
 -61937623.40446 -48218554.97643  24704037.1954                   24704038.9574
  14907276.18446  11633065.80843  24412356.4144                   24412359.5204
 -43212462.57846 -33663610.77144  22955103.7504                   22955104.0514
 -40324922.17248 -31381665.41546  21134691.8594                   21134690.6954
   3675751.45746   2880386.59445  23306098.3524                   23306098.4304
 -38681090.12147 -30099853.33647  20328706.3524                   20328705.0314
 -58883700.94947 -45871951.90146  21432058.7194                   21432055.6994
 -18209934.43748 -14149070.83146  21746046.1954                   21746047.3244
 -14500022.87948 -11257703.74946  21855872.9384                   21855873.1804
 11  8 25  1 36 30.0000000  0  9G04G26G10G12G29G05G02G25G30
 -61962679.00046 -48238078.89943  24699268.9304                   24699271.5004
  14710446.74246  11479692.44043  24374900.5394                   24374903.3754
 -43218296.06646 -33668156.38244  22953994.2034                   22953994.7734
 -40384536.87548 -31428118.45046  21123347.6094                   21123346.1764
   3489776.45746   2735471.03145  23270708.3524                   23270708.3834
 -38777837.57847 -30175240.95647  20310296.0084                   20310294.8754
 -58951978.62547 -45925155.29046  21419066.0004                   21419062.9574
 -18334691.10548 -14246283.80846  21722305.5474                   21722307.1684
 -14617123.45348 -11348950.97846  21833589.5634                   21833589.3714
 11  8 25  1 37  0.0000000  0  9G04G26G10G12G29G05G02G25G30
 -61987778.17645 -48257636.62543  24694492.9304                   24694495.8054
  14513581.30246  11326290.94843  24337437.5704                   24337440.7424
 -43223846.94546 -33672481.77044  22952938.1644                   22952938.3404
 -40443614.99248 -31474153.37846  21112105.3984                   21112104.1914
   3303832.13346   2590579.36545  23235324.5704                   23235324.1914
 -38874001.08248 -30250173.53447  20291996.6174                   20291995.2424
 -59020139.15248 -45978267.39946  21406095.7504                   21406092.4654
 -18458853.44148 -14343033.66746  21698678.3524                   21698679.5554
 -14733600.14548 -11439712.05746  21811424.9144                   21811425.0234
 11  8 25  1 37 30.0000000  0  8G26G10G12G29G05G02G25G30
  14316680.44147  11172861.94743  24299968.9924                   24299971.5864
 -43229120.68746 -33676591.19544  22951934.8984                   22951935.4804
 -40502160.71948 -31519773.44846  21100964.6414                   21100963.1804
   3117917.66446   2445710.97945  23199946.2034                   23199945.7504
 -38969583.72347 -30324653.49147  20273807.6954                   20273806.6724
 -59088185.23448 -46031290.32146  21393146.9614                   21393143.3714
 -18582423.14848 -14439321.74246  21675164.0314                   21675165.2424
 -14849455.12948 -11529988.68446  21789378.3594                   21789378.0594
 11  8 25  1 38  0.0000000  0  8G26G10G12G29G05G02G25G30
  14119747.46947  11019407.92443  24262494.1884                   24262496.4384
 -43234120.31646 -33680487.02044  22950983.7814                   22950983.7304
 -40560175.89148 -31564980.09746  21089924.7034                   21089923.2154
   2932034.22346   2300866.75545  23164573.5234                   23164573.1724
 -39064586.38348 -30398681.52147  20255729.3754                   20255728.4064
 -59156117.68748 -46084224.70446  21380219.7894                   21380216.5084
 -18705399.97748 -14535147.83646  21651762.0084                   21651763.5164
 -14964688.64848 -11619781.04446  21767449.8914                   21767450.0784
 11  8 25  1 38 30.0000000  0  8G26G10G12G29G05G02G25G30
  13922795.18446  10865938.71643  24225014.7664                   24225017.0514
 -43238838.68747 -33684163.71344  22950086.2344                   22950085.5274
 -40617651.98848 -31609766.68946  21078987.0704                   21078985.8484
   2746193.75847   2156056.02145  23129209.3054                   23129208.5474
 -39158999.77748 -30472250.39147  20237763.1334                   20237761.7344
 -59223926.83248 -46137062.99546  21367315.8444                   21367312.9964
 -18827773.23848 -14630503.60646  21628475.2344                   21628476.7894
 -15079290.48048 -11709081.16846  21745642.0944                   21745642.2584
 11  8 25  1 39  0.0000000  0  8G26G10G12G29G05G02G25G30
  13725831.55946  10712460.77243  24187533.9694                   24187535.7584
 -43243273.73846 -33687619.60244  22949241.2734                   22949241.6134
 -40674586.60948 -31654131.35646  21068153.0864                   21068151.7584
   2560402.20747   2011283.37544  23093854.0944                   23093853.4924
 -39252820.82048 -30545357.67447  20219909.5314                   20219908.4344
 -59291608.23448 -46189801.74246  21354436.5704                   21354433.4454
 -18949537.82848 -14725385.09546  21605304.3834                   21605305.1334
 -15193256.00848 -11797885.47946  21723955.0394                   21723954.8404
 11  8 25  1 39 30.0000000  0  8G26G10G12G29G05G02G25G30
  13528855.82846  10558973.40643  24150050.2814                   24150052.2034
 -43247432.45746 -33690860.21744  22948450.0164                   22948448.6174
 -40730985.51648 -31698078.57846  21057420.6954                   21057419.1524
   2374656.84847   1866546.75045  23058507.9614                   23058508.3524
 -39346053.96148 -30618006.86347  20202168.1564                   20202166.6954
 -59359166.93448 -46242444.86946  21341580.7194                   21341577.5084
 -19070697.42648 -14819795.17446  21582248.3914                   21582249.7584
 -15306589.44948 -11886197.25446  21702388.4614                   21702388.3014
 11  8 25  1 40  0.0000000  0  8G26G10G12G29G05G02G25G30
  13331871.01646  10405478.90843  24112564.1724                   24112566.8594
 -43251317.68046 -33693887.67444  22947710.6414                   22947709.9104
 -40786850.31248 -31741609.61346  21046789.9384                   21046788.6134
   2188959.85947   1721847.81545  23023170.6804                   23023171.0434
 -39438700.20748 -30690198.72947  20184537.8364                   20184536.2704
 -59426602.60947 -46294992.15646  21328747.8754                   21328745.0084
 -19191251.38748 -14913733.31646  21559307.9844                   21559309.2304
 -15419290.67648 -11974016.37546  21680942.3134                   21680942.0784
 11  8 25  1 40 30.0000000  0  8G26G10G12G29G05G02G25G30
  13134876.87146  10251977.13643  24075077.4614                   24075080.0904
 -43254936.02347 -33696707.21444  22947022.2734                   22947021.7074
 -40842187.52048 -31784729.53646  21036259.5234                   21036258.6174
   2003308.49247   1577184.43144  22987842.4614                   22987842.9344
 -39530764.37948 -30761937.02747  20167018.6644                   20167017.3444
 -59493919.52348 -46347446.89246  21315937.9694                   21315934.9304
 -19311203.10948 -15007202.17746  21536481.5864                   21536483.1954
 -15531363.40648 -12061345.76146  21659615.5554                   21659615.1334
 11  8 25  1 41  0.0000000  0  8G26G10G12G29G05G02G25G30
  12937877.44146  10098471.28942  24037590.2034                   24037591.8484
 -43258289.39847 -33699320.25344  22946383.8054                   22946384.0204
 -40896997.41048 -31827438.56946  21025829.7114                   21025828.2974
   1817705.48447   1432558.72445  22952523.4774                   22952523.9384
 -39622246.30948 -30833221.62247  20149610.1564                   20149608.8554
 -59561116.96148 -46399808.52846  21303150.7504                   21303147.2154
 -19430551.07048 -15100200.57946  21513770.4144                   21513772.1804
 -15642806.74248 -12148184.71046  21638408.6644                   21638407.8794
 11  8 25  1 41 30.0000000  0  8G26G10G12G29G05G02G25G30
  14316299.88746  11172566.88843  24299895.0004                   24299897.2194
 -41685963.14147 -32474130.98344  23245588.1414                   23245588.4884
 -39375862.89148 -30642138.97046  21315292.0554                   21315290.8954
   3207575.98047   2515574.71745  23217007.5314                   23217007.5864
 -38137726.41848 -29676452.86447  20432105.0084                   20432103.8954
 -58052775.62148 -45224477.60246  21590178.6724                   21590175.4614
 -17973873.70348 -13965127.30046  21790966.7584                   21790968.6134
 -14178199.80548 -11006932.53546  21917114.2584                   21917112.7854
 11  8 25  1 42  0.0000000  0  8G26G10G12G29G05G02G25G30
  14119293.71546  11019055.69643  24262405.5164                   24262408.0354
 -41688800.77347 -32476342.12044  23245047.6884                   23245048.3364
 -39429629.78948 -30684035.27746  21305060.6414                   21305059.5984
   3022068.69547   2371023.64145  23181706.6644                   23181706.2814
 -38228052.50848 -29746836.81747  20414916.8754                   20414915.0514
 -58119740.88748 -45276658.31846  21577435.3834                   21577432.5634
 -18092019.07048 -14057188.61246  21768484.8284                   21768486.2624
 -14288390.73848 -11092795.58545  21896145.6484                   21896144.4064
 11  8 25  1 42 30.0000000  0  8G26G10G12G29G05G02G25G30
  13922288.93846  10865545.66343  24224917.4454                   24224919.2734
 -41691384.97747 -32478355.78444  23244556.0394                   23244556.6684
 -39482878.59848 -30725527.87146  21294927.6804                   21294926.4734
   2836611.37547   2226511.48745  23146415.0554                   23146415.2194
 -38317802.59848 -29816771.92647  20397837.5634                   20397836.1094
 -58186591.49648 -45328749.68646  21564714.1334                   21564711.0474
 -18209562.95348 -14148781.24246  21746116.9454                   21746118.3094
 -14397956.03548 -11178171.10645  21875296.0554                   21875295.1484
 11  8 25  1 43  0.0000000  0  8G26G10G12G29G05G02G25G30
  13725288.91446  10712039.30043  24187429.0634                   24187431.1374
 -41693718.27747 -32480173.98944  23244112.0634                   23244112.6024
 -39535611.03548 -30766618.10746  21284892.8984                   21284891.8164
   2651205.87547   2082039.71845  23111133.4534                   23111133.4104
 -38406977.56648 -29886258.89647  20380868.1804                   20380866.5314
 -58253327.09848 -45380751.43346  21552015.0784                   21552011.6334
 -18326504.78948 -14239904.74746  21723863.4694                   21723865.0434
 -14506895.60248 -11263059.06845  21854565.3594                   21854564.5634
 11  8 25  1 43 30.0000000  0  8G26G10G12G29G05G02G25G30
  13528295.23046  10558537.92243  24149943.1334                   24149944.6564
 -41695805.16847 -32481800.13244  23243715.3524                   23243714.9654
 -39587830.93748 -30807308.95946  21274955.8204                   21274954.5204
   2465852.01247   1937608.21645  23075861.7974                   23075861.3094
 -38495580.40248 -29955300.05447  20364007.7734                   20364006.2504
 -58319949.52048 -45432665.01146  21539337.2274                   21539333.8714
 -18442846.06248 -14330560.27246  21701724.5084                   21701725.8244
 -14615211.44148 -11347460.98645  21833953.6564                   21833952.6994
 11  8 25  1 44  0.0000000  0  8G26G10G12G29G05G02G25G30
  13331311.72746  10405044.44543  24112457.4844                   24112459.5084
 -41697647.64847 -32483235.86044  23243364.6804                   23243363.8984
 -39639539.56648 -30847601.40946  21265115.9694                   21265115.0354
   2280552.14147   1793218.76745  23040600.2114                   23040599.9304
 -38583611.04348 -30023895.34047  20347255.9224                   20347254.4734
 -58386458.66048 -45484490.29546  21526681.1094                   21526677.6414
 -18558585.76648 -14420747.05846  21679700.1094                   21679701.4264
 -14722903.02048 -11431376.47645  21813460.5554                   21813459.9454
 11  8 25  1 44 30.0000000  0  8G26G10G12G29G05G02G25G30
  13134340.95346  10251560.87943  24074975.1884                   24074977.8984
 -41699249.69147 -32484484.21144  23243059.7894                   23243059.5554
 -39690739.63348 -30887497.58046  21255372.8674                   21255372.0434
   2095307.00847   1648871.97545  23005349.2894                   23005349.2384
 -38671071.85248 -30092046.60547  20330612.4924                   20330611.3634
 -58452855.89148 -45536228.40146  21514046.0944                   21514042.7504
 -18673724.51248 -14510465.56246  21657789.8914                   21657790.9884
 -14829971.54748 -11514806.48945  21793085.7664                   21793085.2074
 11  8 25  1 45  0.0000000  0  8G26G10G12G29G05G02G25G30
  12937384.53547  10098088.46343  24037495.8984                   24037497.5824
 -41700615.37947 -32485548.42644  23242799.7274                   23242799.9574
 -39741435.14548 -30927000.59646  21245726.0234                   21245724.7894
   1910116.69947   1504567.90845  22970108.5474                   22970108.5944
 -38757965.35248 -30159755.80847  20314077.4694                   20314075.8164
 -58519142.98448 -45587880.66846  21501432.2504                   21501428.4924
 -18788263.79348 -14599716.94546  21635993.5784                   21635994.9454
 -14936418.92248 -11597752.47045  21772829.3834                   21772828.9454
 11  8 25  1 45 30.0000000  0  8G26G10G12G29G05G02G25G30
  12740443.71146   9944628.31244  24000019.0474                   24000021.1134
 -41701750.05947 -32486432.60344  23242584.1094                   23242583.6254
 -39791630.19148 -30966113.63446  21236174.3524                   21236173.0704
   1724980.52047   1360306.02545  22934878.3754                   22934877.8364
 -38844295.00048 -30227025.64147  20297649.3754                   20297647.9344
 -58585322.42648 -45639449.06946  21488838.3204                   21488835.2894
 -18902205.58248 -14688502.76046  21614311.4304                   21614312.7584
 -15042247.72748 -11680216.46645  21752690.9224                   21752690.7034
 11  8 25  1 46  0.0000000  0  8G26G10G12G29G05G02G25G30
  12543527.08247   9791186.87743  23962547.0784                   23962549.3834
 -41702651.17647 -32487134.83844  23242412.6884                   23242412.2344
 -39841322.14848 -31004834.65246  21226718.2274                   21226717.4494
   1539905.59447   1216091.86745  22899659.6024                   22899659.5514
 -38930056.95348 -30293853.12447  20281329.4534                   20281328.1134
 -58651389.26248 -45690929.71746  21476266.3524                   21476262.7974
 -19015544.62148 -14776818.90346  21592743.3984                   21592744.6484
 -15147453.11748 -11762194.66745  21732671.3364                   21732670.6994
 11  8 25  1 46 30.0000000  0  8G26G10G12G29G05G02G25G30
  12346632.22347   9637762.47944  23925078.8364                   23925080.9144
 -41703327.16047 -32487661.59944  23242284.3914                   23242284.2854
 -39890518.37548 -31043169.38746  21217356.6644                   21217355.4844
   1354887.91047   1071922.29845  22864452.1644                   22864451.9774
 -39015257.87948 -30360243.43347  20265115.8914                   20265114.5704
 -58717349.32848 -45742327.16846  21463714.6804                   21463710.9184
 -19128286.26248 -14864669.53846  21571289.2974                   21571290.9104
 -15252041.03948 -11843691.74845  21712768.5634                   21712768.2074
 11  8 25  1 47  0.0000000  0  8G26G10G12G29G05G02G25G30
  12149764.47347   9484359.18944  23887616.0704                   23887618.1914
 -41703778.82847 -32488013.57444  23242198.3984                   23242198.4304
 -39939218.81248 -31081117.79546  21208089.0864                   21208088.1844
   1169931.32447    927800.32945  22829255.6024                   22829255.5984
 -39099897.03148 -30426196.00347  20249010.0474                   20249008.6054
 -58783200.63348 -45793639.87746  21451183.1414                   21451179.9264
 -19240428.38748 -14952053.02946  21549949.6254                   21549951.2154
 -15356009.86747 -11924706.41345  21692984.1414                   21692983.7624
 11  8 25  1 47 30.0000000  0  8G26G10G12G29G05G02G25G30
  11952927.23446   9330979.64043  23850159.2344                   23850161.1524
 -41704008.96547 -32488192.92244  23242154.0164                   23242154.6054
 -39987425.85248 -31118681.73546  21198915.5704                   21198914.6484
    985037.09047    783726.97645  22794071.3834                   22794071.9414
 -39183975.52048 -30491711.69147  20233010.2734                   20233009.0314
 -58848943.79348 -45844868.30846  21438673.0554                   21438669.3164
 -19351971.04348 -15038969.40246  21528723.4614                   21528725.3134
 -15459360.18748 -12005239.12245  21673317.1414                   21673316.9414
 11  8 25  1 48  0.0000000  0  8G26G10G12G29G05G02G25G30
  11756124.08246   9177626.73344  23812708.8204                   23812710.6764
 -41704019.88347 -32488201.42044  23242152.0394                   23242152.4224
 -40035141.28148 -31155862.61246  21189835.9534                   21189834.7734
    800207.75447    639704.16545  22758899.8054                   22758899.8164
 -39267494.34848 -30556791.27147  20217117.2034                   20217115.8284
 -58914578.51648 -45896012.23546  21426183.0944                   21426179.5314
 -19462913.70348 -15125418.25546  21507612.2344                   21507613.8134
 -15562092.04348 -12085289.92846  21653767.6564                   21653767.6804
 11  8 25  1 48 30.0000000  0  8G26G10G12G29G05G02G25G30
  11559358.48447   9024303.01544  23775265.1564                   23775267.1174
 -41703814.42647 -32488041.35444  23242191.6954                   23242191.1884
 -40082367.34048 -31192662.14146  21180849.0704                   21180847.8794
    615444.89847    495733.16245  22723740.5944                   22723740.0634
 -39350454.69148 -30621435.68447  20201330.3444                   20201328.6844
 -58980105.42248 -45947072.17046  21413713.4924                   21413710.4104
 -19573256.52748 -15211399.70446  21486614.3204                   21486616.0204
 -15664205.96148 -12164859.22646  21634336.2114                   21634336.0704
 11  8 25  1 49  0.0000000  0  8G26G10G12G29G05G02G25G30
  11362633.21146   8871010.74144  23737829.2344                   23737831.2274
 -41703395.84447 -32487715.17144  23242271.0474                   23242271.4344
 -40129106.64848 -31229082.40046  21171954.6954                   21171953.8444
    430749.34447    351814.58045  22688593.9694                   22688593.6174
 -39432858.84848 -30685646.69947  20185649.4614                   20185648.0744
 -59045525.25448 -45998048.66146  21401264.9614                   21401261.3954
 -19683000.09848 -15296914.19346  21465730.9924                   21465732.4144
 -15765703.18048 -12243947.97546  21615022.0704                   21615021.8014
 11  8 25  1 49 30.0000000  0  8G26G10G12G29G05G02G25G30
  12741380.15246   9945359.17644  24000195.9534                   24000197.8244
 -40127345.01247 -31259623.61844  23542183.7424                   23542184.1604
 -38599937.94948 -30037522.39346  21462945.9774                   21462945.1174
   1821551.11347   1435556.25045  22953254.4454                   22953254.9774
 -37939283.21548 -29521821.50947  20469867.1804                   20469865.7894
 -57535414.00048 -44821338.60146  21688629.0944                   21688626.0594
 -18216718.79348 -14154357.37146  21744754.8834                   21744756.4924
 -14291158.85948 -11094952.42346  21895618.3444                   21895617.9774
 11  8 25  1 50  0.0000000  0  8G26G10G12G29G05G02G25G30
  12544748.39146   9792139.77944  23962778.2344                   23962780.0204
 -40126505.86747 -31258969.74244  23542343.2504                   23542343.5434
 -38645708.24248 -30073187.56946  21454236.2664                   21454235.1564
   1636998.55547   1291749.11045  22918135.3054                   22918135.1174
 -38020575.85248 -29585166.40747  20454398.0084                   20454396.0664
 -57600617.61348 -44872146.61946  21676221.8674                   21676218.3714
 -18325261.27048 -14238935.94646  21724100.0944                   21724101.5664
 -14391421.58647 -11173079.23646  21876539.0474                   21876539.1884
 11  8 25  1 50 30.0000000  0  8G26G10G12G29G05G02G25G30
  12348168.13746   9638960.50844  23925370.2504                   23925372.0164
 -40125460.81247 -31258155.44344  23542542.4694                   23542541.9734
 -38690997.85548 -30108478.20146  21445617.7424                   21445617.0474
   1452519.82447   1147999.46945  22883030.2194                   22883029.6684
 -38101315.17248 -29648080.15747  20439033.4534                   20439032.1994
 -57665713.64148 -44922870.80946  21663834.2034                   21663830.7154
 -18433203.60948 -14323046.88146  21703559.3054                   21703560.9694
 -14491068.25048 -11250726.02746  21857577.0084                   21857577.1524
 11  8 25  1 51  0.0000000  0  8G26G10G12G29G05G02G25G30
  12151643.51246   9485824.57944  23887972.7274                   23887974.9384
 -40124211.93747 -31257182.31444  23542779.9304                   23542779.1644
 -38735808.14148 -30143395.32446  21437090.8524                   21437089.8054
   1268117.32047   1004309.23745  22847939.7114                   22847938.9104
 -38181502.00448 -29710563.39247  20423774.5004                   20423772.8444
 -57730701.46148 -44973510.67646  21651467.5474                   21651464.0744
 -18540545.32448 -14406689.80046  21683133.1884                   21683134.4064
 -14590098.91448 -11327892.79746  21838732.3754                   21838731.6414
 11  8 25  1 51 30.0000000  0  8G26G10G12G29G05G02G25G30
  11955178.75046   9332735.31344  23850586.4534                   23850588.1294
 -40122760.91447 -31256051.64043  23543055.1564                   23543054.5784
 -38780140.37148 -30177939.94346  21428654.4924                   21428653.6094
   1083793.77747    860680.52345  22812863.7814                   22812863.1214
 -38261136.12548 -29772615.95147  20408620.5474                   20408619.2624
 -57795580.57848 -45024065.84646  21639121.7814                   21639118.3834
 -18647285.53948 -14489864.01946  21662821.1174                   21662822.5984
 -14688513.25448 -11404579.32946  21820004.6484                   21820004.3754
 11  8 25  1 52  0.0000000  0  8G26G10G12G29G05G02G25G30
  11758775.74246   9179694.16844  23813211.9454                   23813213.8794
 -40121112.46947 -31254767.23543  23543369.8284                   23543368.9694
 -38823999.00448 -30212115.53246  21420308.6564                   21420307.4884
    899549.28947    717113.40845  22777803.1884                   22777803.0274
 -38340221.53548 -29834240.93147  20393571.1484                   20393569.4024
 -57860352.79348 -45074537.71546  21626795.7504                   21626792.3794
 -18753426.12948 -14572570.99146  21642623.3444                   21642624.9884
 -14786313.62948 -11480787.45146  21801393.9144                   21801393.1764
 11  8 25  1 52 30.0000000  0  8G26G10G12G29G05G02G25G30
  11562431.60546   9026698.91844  23775849.0164                   23775850.9534
 -40119275.50847 -31253335.80443  23543718.6884                   23543718.3984
 -38867392.37548 -30245928.57146  21412051.1484                   21412050.1134
    715379.39547    573604.43845  22742757.5004                   22742756.9924
 -38418765.75448 -29895444.20947  20378624.7814                   20378623.4774
 -57925024.82848 -45124931.50346  21614488.8914                   21614485.6374
 -18858973.59048 -14654815.77646  21622538.3204                   21622539.7584
 -14883507.04748 -11556522.61346  21782898.6254                   21782898.2584
 11  8 25  1 53  0.0000000  0  8G26G10G12G29G05G02G25G30
  11366157.72346   8873758.38044  23738498.7584                   23738500.8364
 -40117244.78147 -31251753.47944  23544105.8134                   23544105.6484
 -38910314.89547 -30279374.71346  21403883.1334                   21403882.2274
    531293.83247    430161.18445  22707726.5784                   22707726.3954
 -38496762.18448 -29956220.64747  20363782.3674                   20363781.1214
 -57989588.82448 -45175241.11046  21602202.6484                   21602199.0704
 -18963920.18048 -14736592.33646  21602567.8834                   21602568.8094
 -14980086.39848 -11631779.28446  21764520.1254                   21764519.6484
 11  8 25  1 53 30.0000000  0  8G26G10G12G29G05G02G25G30
  11169952.45746   8720871.32244  23701162.0234                   23701164.2424
 -40115028.14547 -31250026.24144  23544527.4144                   23544528.0944
 -38952774.11748 -30312459.85546  21395803.6414                   21395802.6604
    347289.35947    286781.08845  22672711.9844                   22672711.3984
 -38574217.46548 -30016575.40247  20349043.2504                   20349041.8164
 -58054049.65247 -45225470.32346  21589936.1804                   21589932.9844
 -19068271.21548 -14817904.85146  21582710.3134                   21582711.3014
 -15076057.37547 -11706561.89446  21746257.4774                   21746257.0904
 11  8 25  1 54  0.0000000  0  8G26G10G12G29G05G02G25G30
  10973813.40246   8568035.82544  23663838.4534                   23663840.0474
 -40112633.76247 -31248160.50744  23544983.2584                   23544983.8014
 -38994778.24647 -30345190.37246  21387810.2584                   21387809.5234
    163361.91047    143461.02145  22637711.6804                   22637710.9614
 -38651138.64848 -30076513.96447  20334405.3444                   20334404.0514
 -58118413.57047 -45275624.01546  21577688.2894                   21577684.7034
 -19172032.82047 -14898758.05146  21562965.2814                   21562966.4694
 -15171426.74247 -11780875.73046  21728109.3134                   21728108.5204
 11  8 25  1 54 30.0000000  0  9G15G26G10G12G29G05G02G25G30
  22958074.37555  18062962.85053  24529459.7974                   24529464.8874
  10777738.14146   8415250.02644  23626526.3054                   23626527.8284
 -40110070.44147 -31246163.13544  23545470.7974                   23545471.9614
 -39036335.52048 -30377572.69646  21379901.9614                   21379901.2894
    -20492.85947       197.58245  22602725.4454                   22602725.5164
 -38727533.41048 -30136042.34247  20319868.1334                   20319866.6764
 -58182687.03148 -45325707.22946  21565457.1094                   21565454.0944
 -19275211.33648 -14979156.88046  21543330.9924                   21543332.1454
 -15266201.31248 -11854726.06246  21710074.0474                   21710073.9344
 11  8 25  1 55  0.0000000  0  9G15G26G10G12G29G05G02G25G30
  22763278.64546  17911174.42743  24492390.8134                   24492396.6294
  10581735.41446   8262520.76844  23589227.6334                   23589229.4064
 -40107335.87547 -31244032.35044  23545991.0864                   23545991.8714
 -39077442.80147 -30409604.36546  21372080.1414                   21372079.1374
   -204267.34447   -143003.29245  22567753.9144                   22567754.3164
 -38803397.87548 -30195157.49447  20305431.6564                   20305430.0904
 -58246864.71548 -45375715.81146  21553244.7034                   21553241.4774
 -19377801.71547 -15059097.44246  21523808.7194                   21523810.0084
 -15360376.61748 -11928109.46345  21692153.5554                   21692152.9104
 11  8 25  1 55 30.0000000  0  9G15G26G10G12G29G05G02G25G30
  22568366.93446  17759295.54443  24455301.2344                   24455305.0004
  10385808.18446   8109850.31244  23551944.2584                   23551945.8204
 -40104433.18047 -31241770.50344  23546543.6484                   23546543.3874
 -39118103.42647 -30441287.99546  21364342.5314                   21364341.8874
   -387960.21147   -286140.57245  22532798.7504                   22532798.2274
 -38878734.42248 -30253861.28347  20291095.6334                   20291093.7424
 -58310946.86748 -45425649.94346  21541050.4224                   21541047.5824
 -19479804.72747 -15138580.29446  21504398.2344                   21504400.0514
 -15453953.96547 -12001026.88945  21674346.3524                   21674345.7114
 11  8 25  1 56  0.0000000  0  9G15G26G10G12G29G05G02G25G30
  22373345.26646  17607330.92242  24418188.4064                   24418192.8134
  10189963.71546   7957244.32244  23514676.0784                   23514677.6684
 -40101361.19547 -31239376.78444  23547128.0084                   23547127.8484
 -39158316.12947 -30472622.60946  21356690.2814                   21356689.3794
   -571565.98447   -429209.99445  22497859.5474                   22497859.1604
 -38953540.71948 -30312151.88947  20276860.3984                   20276858.9304
 -58374930.27348 -45475507.13646  21528874.5634                   21528871.1914
 -19581217.27347 -15217603.05746  21485100.1884                   21485101.2934
 -15546930.70747 -12073476.32245  21656653.5234                   21656652.6484
 11  8 25  1 56 30.0000000  0  9G15G26G10G12G29G05G02G25G30
  22178216.63346  17455283.01642  24381056.0554                   24381060.7814
   9994205.55146   7804705.61944  23477424.6484                   23477426.6524
 -40098122.56247 -31236853.16743  23547743.8914                   23547744.3204
 -39198083.12547 -30503609.90446  21349122.9774                   21349121.7424
   -755083.09047   -572210.33145  22462937.2034                   22462936.4344
 -39027818.27348 -30370030.50647  20262725.8444                   20262724.4614
 -58438814.91448 -45525287.37146  21516718.1884                   21516714.8134
 -19682039.59847 -15296165.88846  21465914.4144                   21465915.6174
 -15639307.75447 -12145458.46345  21639074.2424                   21639073.9654
 11  8 25  1 57  0.0000000  0  9G15G26G10G12G29G05G02G25G30
  23558413.49645  18530761.42242  24643699.4064                   24643702.7814
  11373967.18446   8879844.73544  23739984.4384                   23739986.0084
 -38519296.56646 -30006599.19843  23848184.6564                   23848184.4224
 -37661982.20348 -29306648.17646  21641433.1804                   21641432.0394
    636920.31347    512467.67845  22727826.7814                   22727825.9384
 -37526142.78948 -29199893.74647  20548485.2974                   20548484.0514
 -56927175.23848 -44347386.32646  21804373.5864                   21804370.1054
 -18206845.28148 -14146663.83146  21746634.0004                   21746635.7504
 -14155659.39147 -10989368.82845  21921403.3754                   21921402.7894
 11  8 25  1 57 30.0000000  0  9G15G26G10G12G29G05G02G25G30
  23363084.52345  18378557.37542  24606529.3134                   24606533.0394
  11178398.28147   8727453.48544  23702768.6804                   23702770.1094
 -38515726.34846 -30003817.25943  23848863.8204                   23848864.0664
 -37700859.34047 -29336942.07746  21634035.2194                   21634034.0004
    453593.32847    369615.50845  22692940.8914                   22692940.3714
 -37599361.74648 -29256947.47447  20534551.9844                   20534550.5044
 -56990856.82848 -44397008.35346  21792255.4384                   21792251.8914
 -18306482.24248 -14224303.01146  21727673.8834                   21727675.5514
 -14246833.55548 -11060413.64845  21904053.5394                   21904053.3914
 11  8 25  1 58  0.0000000  0  9G15G26G10G12G29G05G02G25G30
  23167659.84845  18226278.75842  24569341.3834                   24569344.2154
  10982930.09847   8575140.73944  23665572.6564                   23665573.3984
 -38511993.58246 -30000908.66443  23849574.5004                   23849574.6414
 -37739294.45747 -29366891.55246  21626721.0864                   21626720.4104
    270364.53947    226839.86945  22658073.6804                   22658073.1094
 -37672053.09448 -29313590.09047  20520719.3914                   20520718.2154
 -57054436.05948 -44446550.60246  21780156.5704                   21780153.0394
 -18405526.59048 -14301480.41846  21708826.1954                   21708827.9064
 -14337407.15648 -11130990.49745  21886818.0314                   21886817.3954
 11  8 25  1 58 30.0000000  0  9G15G26G10G12G29G05G02G25G30
  22972140.742 5                  24532134.797
  10787564.57447   8422908.00244  23628395.5394                   23628396.8484
 -38508102.39147 -29997876.59443  23850316.0864                   23850315.4964
 -37777291.43048 -29396499.62646  21619490.6484                   21619489.8714
     87234.55947     84141.21745  22623224.8364                   22623224.6254
 -37744219.93448 -29369823.97247  20506986.2424                   20506985.2624
 -57117914.66048 -44496014.43746  21768076.9614                   21768073.3054
 -18503980.31648 -14378197.61146  21690091.3444                   21690093.2114
 -14427382.70748 -11201101.30345  21869696.2584                   21869695.5594
 11  8 25  1 59  0.0000000  0  9G15G26G10G12G29G05G02G25G30
  22776530.891 5                  24494910.516
  10592306.48047   8270758.94144  23591238.7894                   23591240.4344
 -38504054.17247 -29994722.15043  23851086.4844                   23851086.2854
 -37814851.74648 -29425767.44446  21612343.0394                   21612342.5744
    -95793.43047    -58477.94445  22588395.9694                   22588395.3594
 -37815862.80548 -29425649.57647  20493353.2894                   20493351.7934
 -57181291.45748 -44545398.95746  21756016.7034                   21756013.3324
 -18601842.63348 -14454453.95146  21671468.8134                   21671470.4494
 -14516760.00448 -11270745.94945  21852687.9774                   21852687.9774
 11  8 25  1 59 30.0000000  0  9G15G26G10G12G29G05G02G25G30
  22580830.699 5                  24457669.977
  10397157.30147   8118694.80544  23554103.5164                   23554104.5084
 -38499853.69947 -29991449.01443  23851885.3364                   23851884.5944
 -37851979.85948 -29454698.46646  21605278.2814                   21605277.0984
   -278719.55947   -201017.73745  22553586.3524                   22553585.5204
 -37886985.53148 -29481069.87347  20479818.7584                   20479817.7584
 -57244568.66048 -44594705.86146  21743974.9304                   21743972.0314
 -18699116.25448 -14530251.58546  21652957.8284                   21652959.5784
 -14605542.25848 -11339926.93745  21835793.6564                   21835793.5044
 11  8 25  2  0  0.0000000  0  9G15G26G10G12G29G05G02G25G30
  22385046.133 5                  24420412.320
  10202123.83647   7966720.77344  23516989.5634                   23516990.7074
 -38495500.32047 -29988056.74543  23852713.6884                   23852713.2854
 -37888675.18448 -29483292.26046  21598295.3284                   21598294.5744
   -461538.60247   -343474.08945  22518796.6254                   22518796.4804
 -37957586.32848 -29536083.48047  20466384.1804                   20466382.8954
 -57307743.04347 -44643932.64446  21731953.5634                   21731950.6414
 -18795798.54348 -14605588.43446  21634560.1644                   21634561.8204
 -14693727.35548 -11408642.59445  21819012.6644                   21819012.3324
 11  8 25  2  0 30.0000000  0  9G15G26G10G12G29G05G02G25G30
  22189175.238 5                  24383139.555
  10007205.28147   7814836.39344  23479897.6254                   23479898.6994
 -38491001.11346 -29984550.87843  23853569.5944                   23853569.6134
 -37924944.58248 -29511554.14746  21591393.5864                   21591392.5984
   -644253.12547   -485848.97645  22484027.1724                   22484026.8634
 -38027671.62547 -29590695.39647  20453047.2114                   20453046.0944
 -57370819.39548 -44693083.03446  21719950.3754                   21719947.6954
 -18891894.53948 -14680468.42446  21616273.3284                   21616275.4654
 -14781321.01648 -11476897.39146  21802344.2114                   21802343.8054
 11  8 25  2  1  0.0000000  0  9G15G26G10G12G29G05G02G25G30
  21993222.211 6                  24345850.578
   9812406.36347   7663045.12844  23442827.8054                   23442829.5944
 -38486357.48446 -29980932.48743  23854452.8524                   23854453.7344
 -37960789.50448 -29539485.29046  21584572.5084                   21584571.5274
   -826859.72747   -628139.78745  22449278.1884                   22449277.8984
 -38097241.86748 -29644905.96347  20439808.3054                   20439807.2034
 -57433796.12148 -44742155.79546  21707966.5864                   21707963.1454
 -18987403.60948 -14754891.08446  21598098.5944                   21598100.4534
 -14868322.91848 -11544691.07745  21785788.1254                   21785787.6484
 11  8 25  2  1 30.0000000  0  9G15G26G10G12G29G05G02G25G30
  21797190.63346  17158382.86053  24308546.7344                   24308551.0864
   9617731.70347   7511350.72744  23405783.2344                   23405784.4614
 -38481570.62146 -29977202.50343  23855363.8984                   23855364.6994
 -37996211.32048 -29567086.73246  21577831.5554                   21577830.6374
  -1009355.60247   -770344.31745  22414550.2894                   22414550.0274
 -38166297.58648 -29698715.60047  20426667.5704                   20426666.5354
 -57496672.28948 -44791150.19946  21696001.4224                   21695998.3284
 -19082325.28148 -14828856.03546  21580035.5784                   21580037.1804
 -14954733.28548 -11612023.82645  21769344.7424                   21769344.4774
 11  8 25  2  2  0.0000000  0  9G15G26G10G12G29G05G02G25G30
  21601082.17646  17005571.36843  24271229.3204                   24271233.1564
   9423184.14547   7359755.37544  23368761.7734                   23368763.5514
 -38476644.19146 -29973363.75843  23856301.5944                   23856302.1484
 -38031213.82448 -29594361.44046  21571170.9454                   21571170.4414
  -1191739.51647   -912461.57745  22379844.0234                   22379843.7344
 -38234841.43448 -29752126.39147  20413624.3594                   20413622.9614
 -57559448.98847 -44840067.10246  21684055.7344                   21684052.4184
 -19176661.13348 -14902364.49746  21562084.1954                   21562085.7974
 -15040554.17248 -11678897.23546  21753013.6174                   21753013.1564
 11  8 25  2  2 30.0000000  0  9G15G26G10G12G29G05G02G25G30
  21404902.98046  16852704.77843  24233897.1564                   24233901.1484
   9228770.40247   7208264.26344  23331765.7734                   23331767.2704
 -38471577.60246 -29969415.72043  23857264.7114                   23857265.8914
 -38065795.90247 -29621308.53546  21564590.1024                   21564589.3754
  -1374006.03947  -1054487.37545  22345159.4774                   22345159.2664
 -38302872.09048 -29805137.28447  20400678.3984                   20400677.3554
 -57622122.81647 -44888903.85946  21672129.3054                   21672125.9964
 -19270408.71147 -14975414.56246  21544244.6644                   21544246.3244
 -15125783.68048 -11745309.84046  21736795.4844                   21736794.4024
 11  8 25  2  3  0.0000000  0  9G15G26G10G12G29G05G02G25G30
  21208653.60246  16699783.48343  24196551.7344                   24196555.0434
   9034492.62546   7056879.11644  23294795.8674                   23294797.2154
 -38466375.24646 -29965361.98143  23858255.9304                   23858255.9534
 -38099962.38347 -29647931.78246  21558088.7114                   21558087.8364
  -1556155.17247  -1196421.70345  22310498.0394                   22310497.4694
 -38370393.35548 -29857751.24747  20387829.5554                   20387828.1954
 -57684695.75447 -44937661.99946  21660221.9694                   21660218.1604
 -19363570.50847 -15048008.17346  21526516.2894                   21526518.3554
 -15210424.77748 -11811263.94846  21720688.3984                   21720687.9924
 11  8 25  2  3 30.0000000  0  9G15G26G10G12G29G05G02G25G30
  21012337.02346  16546809.79743  24159193.8054                   24159196.1914
   8840354.23846   6905602.59044  23257852.5084                   23257854.1684
 -38461039.24646 -29961204.07243  23859270.7814                   23859271.2774
 -38133715.60547 -29674233.01146  21551665.6174                   21551664.1884
  -1738184.78947  -1338262.90145  22275858.6804                   22275858.0634
 -38437406.35248 -29909969.15147  20375077.4924                   20375075.8094
 -57747167.68447 -44986341.43146  21648333.9454                   21648329.9574
 -19456147.07448 -15120145.77746  21508900.0554                   21508901.4144
 -15294478.67248 -11876760.48646  21704693.2504                   21704693.1294
 11  8 25  2  4  0.0000000  0  9G15G26G10G12G29G05G02G25G30
  20815955.23046  16393785.36443  24121824.1644                   24121826.4264
   8646358.20747   6754436.97844  23220935.9614                   23220937.3054
 -38455572.93047 -29956944.62743  23860311.1024                   23860311.5434
 -38167058.66447 -29700214.61846  21545320.7344                   21545319.3244
  -1920093.58247  -1480009.94445  22241242.3754                   22241241.9264
 -38503913.94148 -29961793.25347  20362421.4694                   20362420.0704
 -57809539.09047 -45034942.54945  21636464.9224                   21636461.3364
 -19548139.87148 -15191828.48946  21491394.1724                   21491395.7934
 -15377947.25448 -11941800.94746  21688809.7114                   21688809.7424
 11  8 25  2  4 30.0000000  0  9G15G26G10G12G29G05G02G25G30
  20619508.81346  16240710.60843  24084440.6094                   24084443.4224
   8452506.07447   6603383.48544  23184047.3364                   23184048.7854
 -38449980.83246 -29952587.17043  23861375.9774                   23861375.4184
 -38199996.49647 -29725880.48045  21539052.5704                   21539051.8714
  -2101881.63347  -1621662.91345  22206649.1804                   22206648.7814
 -38569919.95348 -30013226.50547  20349860.9304                   20349859.3554
 -57871812.30947 -45083467.14545  21624615.1174                   21624610.9884
 -19639551.96948 -15263058.70546  21473999.4144                   21474000.3554
 -15460834.20348 -12006388.17646  21673036.8984                   21673036.8794
 11  8 25  2  5  0.0000000  0  9G15G26G10G12G29G05G02G25G30
  21998430.72346  17315195.50442  24346840.0944                   24346843.2584
   9834231.63747   7680052.85644  23446981.1564                   23446982.4804
 -36868842.09047 -28720531.02243  24162256.3594                   24162255.6254
 -36657106.88747 -28523628.82846  21832655.2424                   21832653.9964
   -708116.93747   -535612.43645  22471873.8444                   22471873.1254
 -37060000.40248 -28836665.80947  20637189.1884                   20637187.6134
 -56358561.43747 -43904310.64445  21912577.1174                   21912573.3204
 -18154957.39847 -14106231.79146  21756508.4384                   21756509.1684
 -13967714.29348 -10842918.12846  21957167.9144                   21957168.2584
 11  8 25  2  5 30.0000000  0  9G15G26G10G12G29G05G02G25G30
  21801868.15246  17162030.23042  24309435.5784                   24309437.8984
   9640683.39147   7529236.16644  23410149.4614                   23410151.0394
 -36863001.10247 -28715979.56143  24163368.4384                   24163367.3754
 -36689237.12547 -28548665.38045  21826540.7584                   21826539.6884
   -889651.65247   -677068.00645  22437329.0004                   22437327.8364
 -37125003.82848 -28887317.82647  20624819.3594                   20624818.0124
 -56420632.69148 -43952677.85845  21900765.0704                   21900762.0274
 -18245205.25448 -14176554.81646  21739334.7734                   21739335.9804
 -14049436.63748 -10906597.89246  21941617.2114                   21941617.2304
 11  8 25  2  6  0.0000000  0  9G15G26G10G12G29G05G02G25G30
  21605249.19546  17008820.96142  24272018.8524                   24272023.1524
   9447289.87947   7378540.04644  23373348.4144                   23373349.4654
 -36857042.21547 -28711336.30743  24164502.3754                   24164501.5704
 -36720970.21547 -28573392.46045  21820502.0474                   21820500.8714
  -1071059.60247   -818424.80145  22402807.4774                   22402807.0634
 -37189511.25048 -28937583.34447  20612544.1884                   20612542.5434
 -56482605.86747 -44000968.64645  21888971.8834                   21888968.9304
 -18334874.94148 -14246427.31646  21722270.8984                   21722272.5004
 -14130581.48848 -10969827.65146  21926175.8364                   21926175.7464
 11  8 25  2  6 30.0000000  0  9G15G26G10G12G29G05G02G25G30
  21408575.77346  16855569.20342  24234593.8914                   24234596.2854
   9254054.19147   7227966.89044  23336576.6024                   23336577.5704
 -36850968.52046 -28706603.54043  24165657.2114                   24165657.4924
 -36752309.32047 -28597812.54945  21814538.8594                   21814537.2734
  -1252339.12547   -959681.53545  22368311.3524                   22368311.2854
 -37253525.21948 -28987464.35547  20600362.5394                   20600361.1524
 -56544481.22347 -44049183.22545  21877197.4614                   21877194.3014
 -18423967.92648 -14315850.45246  21705317.4844                   21705318.5904
 -14211150.82048 -11032608.96446  21910843.7974                   21910843.6954
 11  8 25  2  7  0.0000000  0  9G15G26G10G12G29G05G02G25G30
  21211853.74646  16702279.62142  24197159.6644                   24197159.3444
   9060983.23447   7077522.10144  23299836.4064                   23299837.4654
 -36844779.17646 -28701780.68843  24166834.5234                   24166835.3134
 -36783253.95747 -28621925.26445  21808650.0234                   21808648.5944
  -1433485.04347  -1100834.15545  22333841.0784                   22333840.0744
 -37317044.80547 -29036960.11347  20588275.1094                   20588273.7814
 -56606255.48047 -44097318.99846  21865442.3204                   21865439.4774
 -18512482.02348 -14384822.49946  21688473.8364                   21688474.7974
 -14291142.95748 -11094940.52545  21895622.0474                   21895621.6564
 11  8 25  2  7 30.0000000  0  9G15G26G10G12G29G05G02G25G30
  21015084.30146  16548953.06642  24159714.4774                   24159715.5274
   8868078.69147   6927206.96544  23263128.1174                   23263128.4144
 -36838478.44546 -28696871.05643  24168033.9694                   24168034.1724
 -36813808.48847 -28645734.00245  21802835.4144                   21802834.3954
  -1614497.03947  -1241882.41145  22299395.7894                   22299394.5984
 -37380073.35947 -29086073.26847  20576281.3134                   20576279.6844
 -56667930.44147 -44145377.41846  21853706.2114                   21853703.0204
 -18600419.99648 -14453345.63346  21671739.6564                   21671740.8754
 -14370561.20348 -11156824.90345  21880509.3284                   21880508.6724
 11  8 25  2  8  0.0000000  0  9G15G26G10G12G29G05G02G25G30
  20818267.97746  16395589.94142  24122261.4064                   24122262.6994
   8675342.27047   6777022.86544  23226450.8594                   23226452.1024
 -36832070.77746 -28691878.09843  24169252.8674                   24169253.6374
 -36843978.11347 -28669242.82045  21797094.8134                   21797093.6644
  -1795375.07047  -1382826.31345  22264975.4144                   22264974.5904
 -37442614.86348 -29134806.89147  20564379.9144                   20564378.8524
 -56729508.10547 -44193360.01746  21841988.2114                   21841985.0664
 -18687784.76248 -14521422.09746  21655114.7114                   21655115.9884
 -14449409.03148 -11218264.79845  21865504.7274                   21865505.0234
 11  8 25  2  8 30.0000000  0  9G15G26G10G12G29G05G02G25G30
  20621411.55946  16242195.63443  24084801.0784                   24084803.0204
   8482781.75847   6626975.82344  23189808.0164                   23189808.8754
 -36825554.63346 -28686800.57943  24170493.7194                   24170493.9024
 -36873761.40647 -28692450.58045  21791427.3134                   21791425.8244
  -1976112.91047  -1523660.95145  22230582.5084                   22230581.1804
 -37504667.27748 -29183159.40646  20552571.5394                   20552570.2194
 -56790984.71147 -44241263.86046  21830289.9384                   21830286.5004
 -18774573.41448 -14589049.66346  21638599.5704                   21638601.2234
 -14527684.05948 -11279258.36745  21850609.8674                   21850609.5164
 11  8 25  2  9  0.0000000  0  9G15G26G10G12G29G05G02G25G30
  20424517.16046  16088771.58943  24047332.8984                   24047335.5784
   8290399.82847   6477067.92544  23153199.0634                   23153199.4184
 -36818933.42146 -28681641.18043  24171753.7504                   24171753.3014
 -36903161.75047 -28715359.95946  21785832.2274                   21785831.3984
  -2156709.28547  -1664385.37045  22196215.8134                   22196215.2934
 -37566233.26247 -29231132.87547  20540855.8524                   20540854.8324
 -56852360.71948 -44289089.32646  21818610.1484                   21818606.9224
 -18860787.82848 -14656229.75646  21622193.1644                   21622194.7974
 -14605388.68048 -11339807.45645  21835823.0944                   21835822.8094
 11  8 25  2  9 30.0000000  0  9G15G26G10G12G29G05G02G25G30
  20227586.57846  15935319.54043  24009857.5394                   24009859.9454
   8098199.35947   6327301.44244  23116623.8674                   23116624.7194
 -36812210.02746 -28676402.17443  24173033.4844                   24173032.5594
 -36932182.92647 -28737973.88245  21780309.8914                   21780308.5904
  -2337162.87547  -1804998.52845  22161876.7424                   22161875.9734
 -37627316.02048 -29278729.81046  20529232.2504                   20529231.2194
 -56913636.77748 -44336836.88846  21806949.6564                   21806946.5594
 -18946429.80948 -14722963.78946  21605896.1484                   21605897.8134
 -14682525.25448 -11399913.91345  21821144.3524                   21821144.4064
 11  8 25  2 10  0.0000000  0  9G15G26G10G12G29G05G02G25G30
  20030620.84046  15781839.97443  23972376.0084                   23972378.3674
   7906182.35546   6177677.91944  23080084.7194                   23080085.1564
 -36805389.16846 -28671087.21043  24174331.5394                   24174331.4734
 -36960829.64848 -28760296.02945  21774858.4304                   21774857.6454
  -2517473.74647  -1945500.47845  22127564.7814                   22127563.8794
 -37687919.17648 -29325953.04547  20517699.9774                   20517698.5004
 -56974814.99247 -44384508.22246  21795307.9064                   21795304.7154
 -19031502.41048 -14789254.15946  21589707.6644                   21589708.9774
 -14759097.29347 -11459580.49145  21806573.2814                   21806573.2074
 11  8 25  2 10 30.0000000  0  9G15G26G10G12G29G05G02G25G30
  19833623.95346  15628336.10643  23934888.8364                   23934890.3794
   7714353.51246   6028200.99544  23043580.7274                   23043581.2934
 -36798471.96946 -28665697.29743  24175647.8754                   24175647.2274
 -36989102.91447 -28782327.16445  21769478.5234                   21769477.5594
  -2697638.16047  -2085888.30745  22093280.5234                   22093279.3634
 -37748043.47747 -29372803.12847  20506258.7974                   20506257.2704
 -57035894.03947 -44432102.28746  21783685.0784                   21783681.3594
 -19116005.47748 -14855100.72246  21573626.9844                   21573628.6294
 -14835105.28947 -11518807.52545  21792109.2114                   21792109.4844
 11  8 25  2 11  0.0000000  0  9G15G26G10G12G29G05G02G25G30
  19636600.62146  15474811.75043  23897396.6414                   23897397.6214
   7522718.58247   5878875.16044  23007113.5394                   23007114.3484
 -36791459.02746 -28660232.67043  24176982.2114                   24176981.5354
 -37017003.96947 -28804068.27445  21764169.0084                   21764168.1604
  -2877652.23847  -2226158.99645  22059024.6564                   22059024.0354
 -37807689.32048 -29419280.41747  20494908.4694                   20494906.9454
 -57096871.71947 -44479617.35845  21772081.1954                   21772077.4804
 -19199938.18748 -14920502.85946  21557655.1414                   21557656.6844
 -14910548.73048 -11577594.67345  21777752.9304                   21777752.6604
 11  8 25  2 11 30.0000000  0  9G15G26G10G12G29G05G02G25G30
  19439550.91046  15321266.67242  23859898.7894                   23859899.9304
   7331278.42247   5729701.13944  22970683.6954                   22970684.1524
 -36784355.37146 -28654697.36743  24178333.4534                   24178333.3404
 -37044538.56647 -28825523.83445  21758929.2734                   21758928.4734
  -3057516.78547  -2366313.15145  22024797.7034                   22024796.7664
 -37866861.13348 -29465388.31846  20483648.7974                   20483646.8914
 -57157750.64847 -44527055.47545  21760496.4064                   21760492.5474
 -19283304.51248 -14985463.65346  21541791.4924                   21541792.8404
 -14985432.29348 -11635945.53145  21763503.1724                   21763503.2504
 11  8 25  2 12  0.0000000  0  9G15G26G10G12G29G05G02G25G30
  19242478.46545  15167704.02042  23822396.8524                   23822398.6454
   7140037.46547   5580682.33244  22934291.4534                   22934292.2154
 -36777162.53146 -28649092.57243  24179701.3364                   24179701.9694
 -37071708.24647 -28846695.04245  21753759.0784                   21753758.1134
  -3237228.36347  -2506348.09845  21990600.0864                   21990598.8524
 -37925560.27348 -29511127.91047  20472478.4304                   20472476.6484
 -57218529.74247 -44574415.81445  21748930.0784                   21748927.0164
 -19366104.69148 -15049983.28846  21526034.8914                   21526036.7034
 -15059756.66048 -11693860.68245  21749359.5004                   21749359.6174
 11  8 25  2 12 30.0000000  0  9G15G26G10G12G29G05G02G25G30
  20620810.48445  16241729.22342  24084684.5554                   24084686.7344
   8524423.95747   6659425.20844  23197731.4384                   23197731.8634
 -35194465.17646 -27415821.93042  24480878.8204                   24480879.6994
 -35523096.91848 -27639984.93745  22048450.0554                   22048448.9574
  -1841360.97747  -1418659.18146  22256224.6884                   22256223.2664
 -36408368.78548 -28328900.76847  20761190.2974                   20761188.5044
 -55703789.16047 -43394098.47445  22037175.9774                   22037172.8134
 -17872919.19148 -13886462.13746  21810178.3834                   21810180.2814
 -13558103.18048 -10523741.13845  22035115.1094                   22035114.7234
 11  8 25  2 13  0.0000000  0  9G15G26G10G12G29G05G02G25G30
  20423700.91045  16088137.50042  24047175.1094                   24047176.3914
   8333592.59446   6510725.57544  23161417.4304                   23161417.8674
 -35187101.02746 -27410083.64842  24482280.2734                   24482280.5204
 -35549545.41847 -27660594.19045  22043417.3364                   22043416.0984
  -2020760.47347  -1558450.95346  22222085.9224                   22222085.0234
 -36466128.78148 -28373908.55547  20750199.0704                   20750197.3284
 -55764368.98847 -43441303.53545  22025648.0314                   22025645.0744
 -17954590.86748 -13950102.41246  21794636.8754                   21794638.6484
 -13631314.61748 -10580789.05445  22021183.2194                   22021183.0314
 11  8 25  2 13 30.0000000  0  9G15G26G10G12G29G05G02G25G30
  20226578.19946  15934535.61342  24009663.9144                   24009663.8484
   8142972.99246   6362190.90444  23125143.3674                   23125143.8054
 -35179653.95346 -27404280.75842  24483698.4694                   24483696.6024
 -35575636.58647 -27680924.99845  22038452.2344                   22038450.9884
  -2199999.77747  -1698117.90946  22187977.8754                   22187976.8014
 -36523421.09848 -28418551.93147  20739296.6884                   20739295.0234
 -55824847.77347 -43488429.86045  22014138.8914                   22014136.3244
 -18035699.11348 -14013303.65246  21779202.6174                   21779204.2974
 -13703971.02747 -10637404.47745  22007357.7664                   22007357.3324
 11  8 25  2 14  0.0000000  0  9G15G26G10G12G29G05G02G25G30
  20029440.35946  15780921.92642  23972150.7114                   23972149.5164
   7952563.44946   6213819.95444  23088910.2194                   23088910.2074
 -35172131.01246 -27398418.77042  24485130.6024                   24485128.5124
 -35601378.23847 -27700983.45245  22033553.7814                   22033552.8134
  -2379081.52747  -1837662.09046  22153899.5164                   22153898.8164
 -36580252.82848 -28462836.39047  20728482.0234                   20728480.4184
 -55885230.30547 -43535481.18345  22002648.9694                   22002645.8554
 -18116250.16448 -14076070.70946  21763873.7974                   21763875.7034
 -13776079.31648 -10693592.77945  21993635.5164                   21993635.4964
 11  8 25  2 14 30.0000000  0  9G15G26G10G12G29G05G02G25G30
  19832293.39146  15627301.16442  23934634.1884                   23934634.3914
   7762371.06647   6065618.21844  23052717.6254                   23052717.4694
 -35164531.29746 -27392496.91042  24486576.4694                   24486575.2464
 -35626769.70747 -27720769.04845  22028721.7344                   22028720.7504
  -2558000.14847  -1977079.16545  22119852.3364                   22119851.6294
 -36636622.59848 -28506760.87247  20717754.9224                   20717753.6174
 -55945513.32848 -43582454.94845  21991177.3754                   21991174.7034
 -18196241.94548 -14138401.97646  21748652.2034                   21748653.8484
 -13847637.94147 -10749352.77345  21980018.5784                   21980017.9844
 11  8 25  2 15  0.0000000  0  9G15G26G10G12G29G05G02G25G30
  19635139.81346  15473675.23042  23897116.9304                   23897117.1334
   7572399.32446   5917588.37844  23016567.2664                   23016567.4454
 -35156857.77746 -27386517.46943  24488036.4694                   24488036.1954
 -35651813.76247 -27740283.91945  22023955.8754                   22023955.0634
  -2736753.74647  -2116367.63245  22085836.7114                   22085835.7504
 -36692533.09048 -28550327.48947  20707115.4384                   20707114.2894
 -56005696.76247 -43629351.13345  21979724.8054                   21979721.3714
 -18275676.19148 -14200298.79846  21733536.4144                   21733538.0084
 -13918649.09047 -10804686.15045  21966505.7664                   21966504.8594
 11  8 25  2 15 30.0000000  0  9G15G26G10G12G29G05G02G25G30
  19437984.93046  15320048.35043  23859599.5004                   23859599.2034
   7382654.36747   5769735.27144  22980459.5554                   22980460.0594
 -35149110.07846 -27380480.39643  24489510.2814                   24489510.3444
 -35676511.74247 -27759529.12845  22019256.3984                   22019255.4964
  -2915337.97747  -2255524.14346  22051852.8524                   22051852.3244
 -36747984.23448 -28593536.15847  20696563.7584                   20696562.1914
 -56065778.03147 -43676167.68145  21968291.3204                   21968288.3444
 -18354551.85948 -14261760.36146  21718526.6954                   21718528.5204
 -13989112.18747 -10859592.48845  21953097.1174                   21953096.5594
 11  8 25  2 16  0.0000000  0  9G15G26G10G12G29G05G02G25G30
  19240830.98446  15166422.12243  23822082.6174                   23822082.0704
   7193139.10547   5622061.14544  22944395.6024                   22944396.4344
 -35141291.04346 -27374387.62643  24490998.7504                   24490999.0274
 -35700867.03547 -27778507.31945  22014621.8524                   22014620.8364
  -3093750.86747  -2394547.14145  22017902.1414                   22017900.7274
 -36802978.46148 -28636388.78946  20686098.6414                   20686097.0864
 -56125757.77048 -43722905.14245  21956878.1174                   21956874.4534
 -18432870.93748 -14322788.22546  21703623.1174                   21703624.9924
 -14059029.78547 -10914073.72945  21939792.1334                   21939791.8204
 11  8 25  2 16 30.0000000  0  9G15G26G10G12G29G05G02G25G30
  19043678.73046  15012797.09643  23784565.6254                   23784565.6884
   7003855.06647   5474567.18744  22908375.9774                   22908376.3674
 -35133405.51646 -27368243.07843  24492499.1644                   24492499.2664
 -35724884.56247 -27797222.30545  22010051.0164                   22010050.5354
  -3271992.79347  -2533436.90645  21983984.2194                   21983982.7934
 -36857520.20748 -28678888.83546  20675719.6334                   20675718.2274
 -56185638.18047 -43769565.20745  21945482.8984                   21945479.5044
 -18510637.14148 -14383385.27746  21688824.9534                   21688826.3714
 -14128406.15648 -10968133.24745  21926590.4224                   21926590.2544
 11  8 25  2 17  0.0000000  0  9G15G26G10G12G29G05G02G25G30
  18846530.73046  14859175.52243  23747048.8674                   23747050.1254
   6814805.87147   5327256.24744  22872401.2734                   22872401.9494
 -35125456.00846 -27362048.66743  24494012.0474                   24494011.5824
 -35748567.17247 -27815676.29945  22005544.4614                   22005543.6644
  -3450061.62147  -2672191.80646  21950098.5864                   21950097.4964
 -36911611.93048 -28721038.20347  20665425.8984                   20665424.7274
 -56245419.21147 -43816147.83445  21934107.3754                   21934104.0704
 -18587852.00448 -14443552.71846  21674131.4614                   21674133.0664
 -14197243.29347 -11021772.59045  21913490.9224                   21913490.3794
 11  8 25  2 17 30.0000000  0  9G15G26G10G12G29G05G02G25G30
  18649391.50446  14705560.78043  23709534.5704                   23709535.1414
   6625996.94147   5180132.51244  22836472.3204                   22836472.7734
 -35117443.18046 -27355804.92743  24495535.9144                   24495536.1954
 -35771916.08247 -27833870.28745  22001101.7734                   22001100.7154
  -3627953.25848  -2810808.61546  21916247.1414                   21916245.9654
 -36965254.14848 -28762837.32147  20655218.2504                   20655217.3054
 -56305098.97348 -43862651.56545  21922750.9064                   21922746.3484
 -18664515.42648 -14503290.46846  21659543.0394                   21659544.3204
 -14265541.46947 -11074991.95545  21900493.7274                   21900493.8404
 11  8 25  2 18  0.0000000  0  9G15G26G10G12G29G05G02G25G30
  18452262.77746  14551954.12943  23672021.8984                   23672023.1334
   6437430.29347   5033197.56744  22800588.8754                   22800589.1374
 -35109370.60546 -27349514.58243  24497072.7114                   24497072.4964
 -35794935.93747 -27851807.87445  21996721.4064                   21996720.2894
  -3805667.10548  -2949286.89746  21882429.3524                   21882427.9574
 -37018450.37948 -28804288.91046  20645095.6254                   20645094.3594
 -56364678.89148 -43909077.48845  21911413.0634                   21911408.9574
 -18740630.25048 -14562600.73846  21645058.6954                   21645060.4734
 -14333304.28147 -11127794.14345  21887599.0164                   21887599.1564
 11  8 25  2 18 30.0000000  0  9G15G26G10G12G29G05G02G25G30
  18255147.64146  14398358.16143  23634512.0554                   23634513.9024
   6249110.12947   4886454.65944  22764752.3834                   22764752.9144
 -35101240.50846 -27343179.46743  24498620.1174                   24498619.9924
 -35817629.06647 -27869490.86845  21992402.6094                   21992402.1764
  -3983200.90248  -3087624.87946  21848645.6884                   21848644.1804
 -37071202.46548 -28845394.41246  20635057.4454                   20635055.8794
 -56424158.41048 -43955425.16645  21900094.8284                   21900090.7424
 -18816197.75048 -14621484.51546  21630678.6564                   21630680.0514
 -14400533.35547 -11180180.44045  21874805.8444                   21874806.0514
 11  8 25  2 19  0.0000000  0  9G15G26G12G29G05G02G25G30G21
  18058047.00046  14244773.37243  23597005.1254                   23597006.2934
   6061038.10247   4739905.10744  22728963.8914                   22728964.1374
 -35840000.38747 -27886923.09445  21988145.6954                   21988144.9494
  -4160554.09448  -3225822.16346  21814896.3364                   21814895.2774
 -37123514.57448 -28886157.08547  20625102.5864                   20625101.2504
 -56483539.02348 -44001695.79345  21888794.7274                   21888791.4494
 -18891221.23848 -14679944.40346  21616402.2194                   21616403.4924
 -14467232.53947 -11232153.83645  21862113.6094                   21862113.7734
  28130939.03115                  25070312.289
 11  8 25  2 19 30.0000000  0  9G15G26G12G29G05G02G25G30G21
  17860956.67646  14091196.72243  23559499.6644                   23559500.9964
   5873211.15647   4593546.54144  22693221.3284                   22693221.7384
 -35862060.14847 -27904112.54345  21983947.5944                   21983947.2464
  -4337731.38348  -3363882.36846  21781180.3054                   21781179.4024
 -37175395.91848 -28926584.10347  20615230.0704                   20615228.5904
 -56542827.89148 -44047894.91845  21877512.2344                   21877509.3164
 -18965709.44148 -14737987.17146  21602227.6644                   21602229.0164
 -14533410.98847 -11283721.48546  21849520.3594                   21849520.6414
  27974324.91845  21811997.23753  25040509.4534                   25040506.4924
 11  8 25  2 20  0.0000000  0  9G15G26G12G29G05G02G25G30G21
  17663884.30146  13937634.06043  23521997.9064                   23521998.4024
   5685637.28547   4447385.17544  22657527.6334                   22657527.1604
 -35883806.57047 -27921057.84845  21979809.8674                   21979808.7584
  -4514726.07448  -3501800.30946  21747499.3594                   21747499.2464
 -37226844.21548 -28966673.68247  20605439.6254                   20605438.3204
 -56602020.04748 -44094018.68145  21866248.1884                   21866245.3524
 -19039659.37948 -14795610.52146  21588155.6484                   21588156.9614
 -14599066.35547 -11334881.53145  21837026.3364                   21837026.9654
  27817730.15245  21689975.39542  25010709.1334                   25010708.6604
 11  8 25  2 20 30.0000000  0  9G15G26G12G29G05G02G25G30G21
  19042264.91446  15011697.14143  23784295.3834                   23784295.7274
   7073752.27747   5529033.31244  22921676.7034                   22921676.6684
 -34329816.08647 -26710156.19945  22275524.2424                   22275523.4734
  -3116104.23048  -2411965.10446  22013648.4384                   22013647.6604
 -35702434.57448 -27778822.00947  20895525.3524                   20895523.3794
 -55085687.88348 -42912461.16145  22154796.6094                   22154793.8554
 -17537644.50448 -13625209.34246  21873979.5554                   21873980.7194
 -13088772.77748 -10158029.40946  22124425.9844                   22124425.8914
  29236585.39846  22795576.87443  25280710.2034                   25280709.4694
 11  8 25  2 21  0.0000000  0  9G15G26G12G29G05G02G25G30G21
  18845248.05146  14858177.71043  23746803.6954                   23746805.0554
   6886706.85947   5383283.74844  22886083.0164                   22886082.7814
 -34350933.46547 -26726611.34245  22271505.8054                   22271505.3674
  -3292715.89148  -2549584.57646  21980040.2504                   21980039.7664
 -35753012.56648 -27818233.43046  20885900.4384                   20885898.3714
 -55144675.50047 -42958425.53445  22143571.7424                   22143568.8954
 -17610511.62948 -13681988.92846  21860113.2424                   21860114.5984
 -13153377.07448 -10208370.46045  22112132.4614                   22112132.2814
  29080038.98846  22673592.74343  25250920.4144                   25250919.8914
 11  8 25  2 21 30.0000000  0  9G15G26G12G29G05G02G25G30G21
  18648260.40646  14704681.06943  23709318.3914                   23709318.6484
   6699928.27747   5237742.06244  22850539.8594                   22850539.8834
 -34371743.34847 -26742826.87245  22267545.7114                   22267545.2504
  -3469135.64548  -2687054.49246  21946469.2274                   21946468.1604
 -35803161.81248 -27857310.76246  20876357.4614                   20876355.7114
 -55203563.23447 -43004312.08645  22132365.9224                   22132363.3404
 -17682842.76248 -13738350.87346  21846349.2274                   21846350.7304
 -13217461.89848 -10258306.72346  22099937.1884                   22099937.1334
  28923512.59447  22551624.20443  25221133.9454                   25221134.3054
 11  8 25  2 22  0.0000000  0  9G15G26G12G29G05G02G25G30G21
  18451309.48046  14551213.04243  23671840.1644                   23671839.8014
   6513424.57447   5092414.58644  22815049.7664                   22815049.4614
 -34392244.99647 -26758802.21345  22263644.7034                   22263644.0704
  -3645356.75048  -2824369.59946  21912935.2194                   21912933.8284
 -35852880.32048 -27896052.46646  20866896.0004                   20866894.1024
 -55262346.64147 -43050117.33845  22121179.3444                   22121176.4734
 -17754635.16848 -13794293.01946  21832687.5944                   21832688.8444
 -13281024.98448 -10307836.44045  22087841.6804                   22087841.8014
  28767010.35247  22429674.49644  25191352.4844                   25191352.3204
 11  8 25  2 22 30.0000000  0  9G15G26G12G29G05G02G25G30G21
  18254393.66846  14397772.37543  23634367.3444                   23634367.5434
   6327195.16047   4947300.83344  22779611.0314                   22779611.0204
 -34412445.32047 -26774542.75345  22259800.4144                   22259799.3244
  -3821381.35548  -2961531.60346  21879438.7274                   21879437.3094
 -35902174.16048 -27934463.24446  20857515.7664                   20857514.1884
 -55321029.89847 -43095844.54745  22110012.4304                   22110009.7154
 -17825895.00048 -13849820.17346  21819127.3524                   21819129.2194
 -13344073.09448 -10356964.87845  22075844.0004                   22075844.0984
  28610527.00047  22307739.48444  25161574.7814                   25161574.7544
 11  8 25  2 23  0.0000000  0  9G15G26G12G29G05G02G25G30G21
  18057516.63746  14244361.86843  23596902.9144                   23596903.7464
   6141244.43047   4802404.23144  22744226.1804                   22744225.9304
 -34432346.62147 -26790050.29545  22256013.5554                   22256012.4654
  -3997206.42248  -3098538.11446  21845980.1724                   21845979.1644
 -35951045.40648 -27972544.72146  20848216.0394                   20848214.1334
 -55379612.10248 -43141493.02045  22098864.9064                   22098862.2194
 -17896623.28148 -13904933.13546  21805667.7034                   21805669.8954
 -13406607.75848 -10405693.23345  22063944.4694                   22063943.7814
  28454062.64146  22185819.27344  25131800.2734                   25131800.3324
 11  8 25  2 23 30.0000000  0  9G15G26G12G29G05G02G25G30G21
  17860680.49646  14090983.26243  23559445.8054                   23559446.3364
   5955575.30147   4657727.07545  22708894.2664                   22708894.1334
 -34451952.49247 -26805327.65045  22252282.3204                   22252281.4414
  -4172830.73448  -3235388.20146  21812559.8444                   21812558.9414
 -35999496.85948 -28010299.09446  20838996.0234                   20838994.0864
 -55438093.75448 -43187063.13545  22087736.0164                   22087733.9144
 -17966822.48848 -13959633.82146  21792309.4144                   21792311.2304
 -13468631.87948 -10454023.75945  22052141.3674                   22052140.9454
  28297616.03946  22063912.85343  25102028.9064                   25102029.1214
 11  8 25  2 24  0.0000000  0  9G15G26G12G29G05G02G25G30G21
  17663890.26646  13937640.44143  23521997.1644                   23521998.4184
   5770193.18047   4513273.57545  22673616.8054                   22673617.2344
 -34471264.75447 -26820376.19145  22248607.7194                   22248606.6024
  -4348250.07048  -3372078.54946  21779178.3444                   21779177.7194
 -36047529.43448 -28047727.06746  20829855.3054                   20829853.6724
 -55496473.14548 -43232553.57145  22076626.9064                   22076624.1914
 -18036492.75448 -14013922.34446  21779051.5234                   21779053.4774
 -13530146.01648 -10501956.87845  22040435.2664                   22040435.3674
  28141188.48046  21942021.26743  25072262.1564                   25072261.8014
 11  8 25  2 24 30.0000000  0  9G15G26G12G29G05G02G25G30G21
  17467147.36346  13784334.43743  23484558.3984                   23484559.0124
   5585100.63747   4369045.70045  22638394.9304                   22638394.9694
 -34490287.32047 -26835199.01045  22244988.0394                   22244986.9144
  -4523463.18048  -3508608.21646  21745836.7734                   21745835.9494
 -36095146.49648 -28084831.27546  20820794.2664                   20820793.1214
 -55554750.86348 -43277964.80145  22065536.9614                   22065533.7034
 -18105636.86748 -14067800.87846  21765894.0864                   21765895.8014
 -13591153.41448 -10549495.14745  22028826.4614                   22028826.3204
  27984778.19146  21820143.12443  25042498.0704                   25042497.9344
 11  8 25  2 25  0.0000000  0  9G15G26G12G29G05G02G25G30G21
  17270452.10246  13631065.60143  23447128.1724                   23447129.4844
   5400298.55547   4225044.16145  22603228.3674                   22603228.1374
 -34509025.80947 -26849800.46745  22241421.9614                   22241421.2074
  -4698470.62548  -3644977.61746  21712533.6174                   21712533.1844
 -36142352.81648 -28121615.41546  20811811.2664                   20811809.5554
 -55612929.75448 -43323299.00745  22054466.4774                   22054462.8014
 -18174259.41848 -14121272.99446  21752835.4454                   21752837.0664
 -13651659.14848 -10596642.49845  22017312.1724                   22017312.2194
  27828382.04346  21698276.05143  25012736.8284                   25012736.8014
 11  8 25  2 25 30.0000000  0  9G15G26G12G29G05G02G25G30G21
  17073809.50046  13477837.78143  23409708.9064                   23409709.5984
   5215792.76247   4081273.49745  22568118.0784                   22568118.1954
 -34527481.22347 -26864181.34545  22237909.9144                   22237909.1214
  -4873268.13348  -3781183.43946  21679271.0704                   21679270.6844
 -36189149.07448 -28158080.01946  20802906.4144                   20802904.9694
 -55671007.25048 -43368554.19845  22043414.2344                   22043411.2234
 -18242360.19948 -14174338.54646  21739876.2344                   21739878.0394
 -13711663.68047 -10643399.29745  22005893.6804                   22005893.7814
  27672001.08646  21576420.80943  24982978.4224                   24982978.5784
 11  8 25  2 26  0.0000000  0  9G15G26G12G29G05G02G25G30G21
  16877225.08246  13324655.28744  23372299.7584                   23372301.1094
   5031588.71547   3937737.95845  22533065.8754                   22533065.4064
 -34545654.47747 -26878342.34645  22234451.9924                   22234450.6454
  -5047851.21148  -3917222.13846  21646049.1174                   21646048.1644
 -36235535.15648 -28194225.00846  20794079.4454                   20794077.7194
 -55728980.98848 -43413728.53945  22032381.9144                   22032379.2074
 -18309939.08648 -14226997.41446  21727016.2974                   21727017.9494
 -13771167.09047 -10689765.60045  21994570.4774                   21994570.9574
  27515637.04746  21454578.72943  24953222.7974                   24953223.7664
 11  8 25  2 26 30.0000000  0  9G15G26G12G29G05G02G25G30G21
  16680697.81346  13171517.31544  23334902.2194                   23334903.0234
   4847687.03947   3794438.02945  22498069.8834                   22498069.9304
 -34563551.87947 -26892288.41445  22231046.0084                   22231044.9804
  -5222221.01248  -4053094.65646  21612867.6884                   21612866.6254
 -36281516.91448 -28230054.94346  20785329.4064                   20785327.4264
 -55786854.27347 -43458824.61345  22021368.9774                   22021366.0824
 -18377001.24248 -14279253.65346  21714254.8914                   21714256.4184
 -13830175.10247 -10735745.87545  21983342.0234                   21983342.3364
  27359285.90246  21332746.64043  24923471.4384                   24923470.5084
 11  8 25  2 27  0.0000000  0  9G15G26G12G29G05G02G25G30G21
  16484232.67246  13018427.77044  23297516.0704                   23297516.4694
   4664093.35247   3651378.08945  22463133.2584                   22463133.0984
 -34581174.73047 -26906020.53945  22227692.6334                   22227691.6804
  -5396373.37948  -4188797.74046  21579727.5164                   21579726.5204
 -36327094.90648 -28265570.27246  20776656.2424                   20776654.4384
 -55844625.35247 -43503841.06045  22010375.2814                   22010372.7734
 -18443546.76648 -14331107.31846  21701592.1254                   21701593.2274
 -13888688.30948 -10781340.60445  21972206.9924                   21972207.4344
  27202949.15645  21210925.86343  24893720.1804                   24893720.9884
 11  8 25  2 27 30.0000000  0  9G15G26G12G29G05G02G25G30G21
  16287833.17646  12865389.37944  23260142.5704                   23260143.0984
   4480811.30147   3508560.99345  22428255.3204                   22428255.5314
 -34598525.66847 -26919540.75745  22224390.7814                   22224390.0204
  -5570305.56648  -4324329.25646  21546629.0314                   21546627.8164
 -36372270.93448 -28300772.38746  20768059.4064                   20768057.6994
 -55902293.00047 -43548776.86845  21999401.3284                   21999399.0274
 -18509577.13348 -14382559.56046  21689027.0004                   21689028.3524
 -13946708.62548 -10826551.22245  21961166.4224                   21961166.0824
  27046626.51646  21089116.03443  24863973.3524                   24863974.5474
 11  8 25  2 28  0.0000000  0  9G15G26G12G29G05G02G25G30G21
  16091499.32046  12712402.10844  23222781.1954                   23222781.7774
   4297842.08647   3365987.67845  22393437.5784                   22393437.4654
 -34615610.59447 -26932853.73345  22221139.3754                   22221139.4024
  -5744018.08648  -4459689.59345  21513572.5394                   21513571.0514
 -36417050.56648 -28335665.60746  20759538.3594                   20759536.5124
 -55959860.12947 -43593634.35445  21988447.2504                   21988444.5354
 -18575097.36348 -14433614.29346  21676558.7274                   21676560.3404
 -14004241.51248 -10871382.05445  21950218.5004                   21950218.5164
  26890314.19146  20967314.25943  24834228.9534                   24834228.6684
 11  8 25  2 28 30.0000000  0  9G15G26G12G29G05G02G25G30G21
  17470665.28946  13787077.06943  23485227.2274                   23485227.7934
   5690620.00847   4451269.25945  22658474.1724                   22658474.8794
 -33057007.19947 -25718357.59845  22517732.2504                   22517731.9104
  -4342078.51248  -3367269.09246  21780352.3204                   21780351.4024
 -34886009.84448 -27142646.86446  21050885.5704                   21050884.1174
 -54441899.70747 -42410808.05745  22277305.4384                   22277302.5864
 -17064682.41448 -13256667.59546  21963981.3914                   21963983.2424
 -12485862.64548  -9688229.68846  22239156.4844                   22239156.7624
  28309441.96546  22073128.18042  25104279.1954                   25104278.8874
 11  8 25  2 29  0.0000000  0  9G15G26G12G29G05G02G25G30G21
  17274474.28146  13634201.14243  23447892.8834                   23447893.6604
   5508289.59847   4309193.69245  22623778.0634                   22623778.2664
 -33073566.76647 -25731261.18145  22514581.0394                   22514580.4534
  -4515342.97748  -3502280.30946  21747381.4614                   21747380.1564
 -34930001.07048 -27176925.75046  21042514.0864                   21042512.4734
 -54499262.35247 -42455506.21345  22266389.8134                   22266386.8914
 -17129185.56648 -13306929.81546  21951706.7974                   21951708.5864
 -12542425.18748  -9732304.40146  22228393.0164                   22228393.2234
  28153151.95746  21951343.85542  25074538.7814                   25074536.6024
 11  8 25  2 29 30.0000000  0  9G15G26G12G29G05G02G25G30G21
  17078359.74647  13481384.81243  23410573.4614                   23410574.1294
   5326284.94547   4167371.98345  22589143.5084                   22589143.7234
 -33089867.46947 -25743963.05945  22511478.5634                   22511478.4064
  -4688378.49648  -3637113.14246  21714453.7734                   21714452.7504
 -34973600.70748 -27210899.49646  21034217.4534                   21034216.1414
 -54556521.71548 -42500123.89645  22255494.0314                   22255490.4384
 -17193182.35248 -13356797.45446  21939528.4064                   21939529.9454
 -12598505.40248  -9776003.27546  22217721.3444                   22217721.5904
  27996872.91846  21829568.00842  25044798.1644                   25044796.0634
 11  8 25  2 30  0.0000000  0  9G15G26G12G29G05G02G25G30G21
  16882322.93847  13328629.02443  23373268.8754                   23373269.0904
   5144607.30147   4025805.05545  22554571.1334                   22554571.0394
 -33105914.26247 -25756467.08045  22508425.2894                   22508424.6374
  -4861185.57048  -3771767.96246  21681569.8204                   21681568.9144
 -35016813.80948 -27244572.04146  21025994.2584                   21025992.7854
 -54613679.72748 -42544662.60945  22244617.2034                   22244613.7854
 -17256677.22348 -13406273.98546  21927445.5004                   21927447.1844
 -12654108.29348  -9819330.20645  22207140.6414                   22207140.4924
  27840601.969 6                  25015062.047
 11  8 25  2 30 30.0000000  0  9G15G26G12G29G05G02G25G30G21
  16686368.25446  13175937.19743  23335979.8364                   23335979.6374
   4963261.96547   3884497.08945  22520061.7584                   22520062.4454
 -33121708.76247 -25768774.51045  22505419.5474                   22505419.3794
  -5033760.46948  -3906241.87246  21648729.8984                   21648729.2034
 -35059640.70748 -27277943.66046  21017844.5864                   21017843.0434
 -54670734.51248 -42589120.86945  22233759.8284                   22233756.7074
 -17319670.52048 -13455359.70046  21915458.6254                   21915460.2504
 -12709234.55148  -9862285.72945  22196650.3754                   22196649.7274
  27684340.156 6                  24985326.016
 11  8 25  2 31  0.0000000  0  9G15G26G12G29G05G02G25G30G21
  16490500.08246  13023312.85943  23298707.0474                   23298707.0354
   4782253.80547   3743451.83645  22485617.9224                   22485617.6994
 -33137253.16447 -25780887.07045  22502461.5704                   22502461.1414
  -5206099.40648  -4040531.92446  21615934.9924                   21615934.0904
 -35102083.07448 -27311015.63146  21009768.2344                   21009766.9654
 -54727684.66448 -42633497.61945  22222923.0864                   22222919.6804
 -17382163.23048 -13504055.34046  21903566.6334                   21903568.3404
 -12763885.63748  -9904871.00145  22186250.5234                   22186249.8164
  27528087.930 6                  24955592.531
 11  8 25  2 31 30.0000000  0  9G15G26G12G29G05G02G25G30G21
  16294720.87147  12870757.75143  23261451.2584                   23261451.8404
   4601586.18447   3602671.96045  22451237.9144                   22451237.8794
 -33152550.84847 -25792807.37145  22499550.7664                   22499550.5944
  -5378200.03548  -4174636.27446  21583185.4844                   21583184.7074
 -35144143.44148 -27343789.95746  21001764.1564                   21001762.8164
 -54784529.91848 -42677792.62345  22212105.8364                   22212102.3364
 -17444157.62548 -13552362.67346  21891769.3834                   21891771.2894
 -12818064.27048  -9947088.11345  22175940.5474                   22175939.6454
  27371844.70346  21342533.31352  24925860.0004                   24925859.6684
 11  8 25  2 32  0.0000000  0  9G15G26G12G29G05G02G25G30G21
  16099030.69547  12718272.07044  23224212.7344                   23224212.9884
   4421259.42247   3462157.65945  22416922.6954                   22416921.8364
 -33167607.73847 -25804540.04445  22496685.7894                   22496685.0784
  -5550063.50447  -4308555.82146  21550480.5864                   21550479.7114
 -35185827.28148 -27376270.85946  20993832.4614                   20993830.5434
 -54841273.44148 -42722008.34345  22201307.9064                   22201304.2664
 -17505659.09448 -13600285.91346  21880066.1094                   21880067.8634
 -12871776.23047  -9988941.60045  22165719.0474                   22165718.3874
  27215606.46547  21220789.35643  24896129.5784                   24896128.4614
 11  8 25  2 32 30.0000000  0  9G15G26G12G29G05G02G25G30G21
  15903436.19146  12565860.94544  23186992.1884                   23186992.3324
   4241281.12947   3321914.89945  22382673.7734                   22382673.0554
 -33182423.17247 -25816084.55845  22493866.7974                   22493865.4964
  -5721683.44147  -4442285.61246  21517822.3054                   21517821.9104
 -35227133.02348 -27408457.15246  20985971.8984                   20985970.0634
 -54897911.13348 -42766141.61445  22190529.9844                   22190526.3054
 -17566665.81248 -13647823.62646  21868456.9454                   21868459.0234
 -12925020.04347 -10030430.30145  22155587.4304                   22155586.5164
  27059376.46547  21099051.82343  24866399.9534                   24866399.3054
 11  8 25  2 33  0.0000000  0  9G15G26G12G29G05G02G25G30G21
  15707934.93847  12413522.46444  23149789.8444                   23149790.0824
   4061649.61347   3181942.34645  22348490.6414                   22348490.2854
 -33197005.50447 -25827447.44145  22491091.4774                   22491090.3954
  -5893063.00447  -4575828.09546  21485209.6024                   21485208.9304
 -35268068.80548 -27440355.15646  20978182.3054                   20978180.9184
 -54954448.00048 -42810196.31545  22179770.8204                   22179767.2854
 -17627185.29348 -13694981.68046  21856940.3284                   21856942.4804
 -12977803.82447 -10071560.52745  22145542.9924                   22145542.2504
  26903149.12947  20977316.29643  24836671.2194                   24836670.4804
 11  8 25  2 33 30.0000000  0  9G15G26G12G29G05G02G25G30G21
  15512529.80147  12261258.88044  23112605.6334                   23112605.5044
   3882367.91847   3042242.41045  22314374.5164                   22314374.3954
 -33211357.92647 -25838631.15845  22488360.5944                   22488359.4654
  -6064200.22748  -4709181.74346  21452643.6094                   21452642.2194
 -35308637.51648 -27471967.14846  20970462.1884                   20970460.5354
 -55010884.10247 -42854172.49545  22169031.5004                   22169027.7664
 -17687220.13348 -13741762.08246  21845516.1334                   21845518.2274
 -13030130.58247 -10112334.65545  22135585.2814                   22135585.1374
  26746923.23846  20855581.91544  24806941.6644                   24806941.9344
 11  8 25  2 34  0.0000000  0  9G15G26G12G29G05G02G25G30G21
  15317225.54747  12109073.92044  23075440.2504                   23075440.0704
   3703441.37947   2902819.20145  22280325.8134                   22280325.4884
 -33225482.42647 -25849637.30145  22485672.4694                   22485671.6454
  -6235091.30948  -4842343.57546  21420124.2504                   21420122.6844
 -35348839.70748 -27503293.53246  20962811.5394                   20962810.2274
 -55067217.65247 -42898068.75145  22158311.5164                   22158307.7734
 -17746771.05548 -13788165.41846  21834184.2584                   21834185.6524
 -13082001.32447 -10152753.43845  22125714.7584                   22125714.9264
  26590699.51647  20733849.26944  24777213.0084                   24777213.4104
 11  8 25  2 34 30.0000000  0  9G15G26G12G29G05G02G25G30G21
  15122024.41447  11956969.29244  23038293.9304                   23038294.5824
   3524872.92647   2763675.03545  22246345.6254                   22246345.2544
 -33239382.32447 -25860468.41645  22483027.7664                   22483027.2114
  -6405734.62948  -4975312.36346  21387651.8054                   21387650.0664
 -35388678.59048 -27534336.80446  20955230.8914                   20955229.0394
 -55123448.82047 -42941885.22845  22147610.9774                   22147607.3014
 -17805840.73048 -13834193.74846  21822943.4144                   21822945.2664
 -13133419.27047 -10192819.40045  22115930.5634                   22115930.2624
  26434477.44147  20612117.86344  24747484.8364                   24747485.5314
 11  8 25  2 35  0.0000000  0  9G15G26G12G29G05G02G25G30G21
  14926930.79747  11804948.45144  23001168.8834                   23001169.5904
   3346667.39847   2624813.63445  22212434.3444                   22212433.6684
 -33253060.03547 -25871126.41945  22480424.5004                   22480424.3094
  -6576126.28548  -5108085.03446  21355227.3834                   21355226.3594
 -35428155.37948 -27565097.93746  20947718.5474                   20947716.5704
 -55179576.01247 -42985620.72245  22136930.3444                   22136927.1134
 -17864430.21948 -13879847.91346  21811794.4774                   21811796.0204
 -13184385.82847 -10232533.61845  22106231.9384                   22106232.5084
  26278257.41047  20490388.04843  24717756.8364                   24717756.9264
 11  8 25  2 35 30.0000000  0  9G15G26G12G29G05G02G25G30G21
  14731946.32047  11653012.65744  22964064.6644                   22964064.8874
   3168827.37547   2486237.07945  22178592.3834                   22178592.3094
 -33266519.44547 -25881614.29145  22477863.5474                   22477862.9064
  -6746265.26648  -5240660.82046  21322851.3284                   21322849.7304
 -35467273.62548 -27595579.68746  20940274.8054                   20940272.8284
 -55235600.23847 -43029275.95845  22126268.8754                   22126265.7344
 -17922542.98448 -13925130.59646  21800736.3054                   21800737.6334
 -13234904.85947 -10271899.14345  22096618.1254                   22096618.3914
  26122037.71147  20368658.50544  24688029.6024                   24688029.2344
 11  8 25  2 36  0.0000000  0  9G15G26G12G29G05G02G25G30G21
  16112502.50847  12728770.88444  23226774.5164                   23226775.5634
   4566783.80947   3575553.83245  22444614.5164                   22444614.4614
 -31704341.58247 -24664332.87545  22775136.0784                   22775135.5824
  -5340721.76248  -4145432.08146  21590317.1644                   21590316.1334
 -33930612.89548 -26398181.70446  21232691.5004                   21232689.8284
 -53716097.51647 -41845247.84545  22415421.0164                   22415417.8244
 -16404757.65248 -12742440.74846  22089560.8444                   22089562.6764
 -11709555.83247  -9083315.48745  22386882.4534                   22386882.6994
  27541244.49247  21474534.05343  24958095.8914                   24958095.3364
 11  8 25  2 36 30.0000000  0  9G15G26G12G29G05G02G25G30G21
  15917747.48046  12577013.81244  23189714.3834                   23189714.5944
   4389686.68447   3437556.17045  22410913.8594                   22410913.7034
 -31717372.10247 -24674486.56045  22772656.8914                   22772655.6174
  -5510346.72748  -4277607.35546  21558038.5084                   21558037.7194
 -33969019.99648 -26428109.32746  21225383.0394                   21225381.5744
 -53771913.30147 -41888740.68545  22404800.1564                   22404796.5474
 -16461922.25448 -12786984.60746  22078682.9614                   22078684.7194
 -11759186.46947  -9121988.74545  22377437.6094                   22377437.8134
  27385025.10247  21352804.78644  24928367.8364                   24928367.9494
 11  8 25  2 37  0.0000000  0  9G15G26G12G29G05G02G25G30G21
  15723111.02346  12425349.19744  23152676.4454                   23152676.4734
   4212965.94947   3299851.74845  22377285.3284                   22377284.6334
 -31730193.10947 -24684477.00945  22770217.1884                   22770216.2234
  -5679711.57848  -4409579.93846  21525809.3134                   21525808.2544
 -34007075.74648 -26457763.14646  21218141.2034                   21218139.7154
 -53827624.86347 -41932152.28845  22394198.4694                   22394195.1094
 -16518616.66448 -12831162.08846  22067894.3444                   22067896.2234
 -11808377.29347  -9160319.29045  22368077.3524                   22368077.0704
  27228804.75046  21231074.77044  24898640.5394                   24898639.8554
 11  8 25  2 37 30.0000000  0  9G15G26G12G29G05G02G25G30G21
  15528596.59047  12273779.62044  23115661.5944                   23115661.2274
   4036625.35247   3162443.56045  22343728.4064                   22343727.9144
 -31742807.59047 -24694306.51345  22767816.5784                   22767815.9964
  -5848813.83648  -4541347.91146  21493629.9774                   21493629.3984
 -34044782.35948 -26487144.90946  21210965.8444                   21210964.2894
 -53883231.66847 -41975482.27445  22383616.4224                   22383613.3524
 -16574842.96948 -12874974.80946  22057195.0234                   22057196.9344
 -11857130.89847  -9198309.13345  22358800.2114                   22358799.5124
  27072582.95346  21109343.61643  24868912.0394                   24868912.0824
 11  8 25  2 38  0.0000000  0  9G15G26G12G29G05G02G25G30G21
  15334207.75047  12122307.93844  23078670.3204                   23078670.3484
   3860668.96947   3025334.75645  22310245.4224                   22310244.8364
 -31755218.44147 -24703977.35845  22765454.7974                   22765454.1294
  -6017650.73448  -4672909.10746  21461501.1884                   21461500.5744
 -34082141.68448 -26516256.06846  21203856.7194                   21203854.7154
 -53938732.93447 -42018730.05745  22373055.3914                   22373052.1054
 -16630603.19948 -12918424.34446  22046584.0704                   22046585.6334
 -11905449.66847  -9235960.12745  22349605.1564                   22349604.9844
  26916359.60946  20987611.28143  24839183.5704                   24839182.9654
 11  8 25  2 38 30.0000000  0  9G15G26G12G29G05G02G25G30G21
  15139947.97347  11970936.81044  23041704.3754                   23041703.6804
   3685100.67647   2888528.35645  22276835.2814                   22276835.1884
 -31767428.14547 -24713491.45445  22763131.5864                   22763130.6454
  -6186219.55148  -4804261.39546  21429424.0474                   21429422.7664
 -34119156.02748 -26545098.39746  21196812.8284                   21196811.1844
 -53994127.96147 -42061895.00645  22362514.1334                   22362510.7814
 -16685899.17248 -12961512.13246  22036061.6644                   22036063.0164
 -11953335.88347  -9273274.11245  22340492.7584                   22340492.8714
  26760134.48846  20865877.57843  24809454.1414                   24809453.8204
 11  8 25  2 39  0.0000000  0  9G15G26G12G29G05G02G25G30G21
  14945820.70347  11819668.95644  23004763.0474                   23004761.8054
   3509924.64147   2752027.62145  22243500.7194                   22243500.7464
 -31779439.27747 -24722850.82345  22760845.7974                   22760844.9884
  -6354517.05948  -4935402.27546  21397397.8524                   21397396.9064
 -34155827.47748 -26573673.55146  21189834.4844                   21189832.9694
 -54049415.84847 -42104976.50345  22351992.7894                   22351989.7774
 -16740732.72348 -13004239.58246  22025626.8444                   22025628.3404
 -12000791.62147  -9310252.62445  22331462.4384                   22331462.3714
  26603907.97746  20744142.73243  24779725.1484                   24779725.0394
 11  8 25  2 39 30.0000000  0  9G15G26G12G29G05G02G25G30G21
  14751827.54747  11668505.60244  22967847.2274                   22967846.2384
   3335142.53547   2615833.84445  22210240.9694                   22210240.4924
 -31791256.43447 -24732059.02645  22758596.9924                   22758596.2624
  -6522542.78948  -5066331.37546  21365423.7194                   21365422.3014
 -34192159.88748 -26601984.50946  21182920.7584                   21182919.0514
 -54104597.74647 -42147975.39945  22341492.1644                   22341488.8524
 -16795107.97348 -13046609.91646  22015279.5474                   22015280.8164
 -12047821.48047  -9346899.29445  22322513.1254                   22322512.7974
  26447677.45345  20622404.81743  24749995.3674                   24749995.3364
 11  8 25  2 40  0.0000000  0 10G15G26G18G12G29G05G02G25G30G21
  14557972.71547  11517450.00444  22930957.5004                   22930957.0314
   3160759.47347   2479950.99945  22177056.6414                   22177056.3524
  32806930.09056  25580647.42453  24655570.9454                   24655572.8914
 -31802881.78547 -24741117.77545  22756384.4924                   22756383.8674
  -6690293.23848  -5197045.97146  21333501.7974                   21333500.3634
 -34228154.69948 -26630032.39146  21176070.8134                   21176069.6564
 -54159672.35547 -42190890.70545  22331011.9614                   22331008.6374
 -16849026.13748 -13088624.06946  22005019.4064                   22005020.8524
 -12094427.02747  -9383215.33245  22313644.4384                   22313643.9804
  26291443.56345  20500664.24443  24720264.2894                   24720265.0234
 11  8 25  2 40 30.0000000  0 10G15G26G18G12G29G05G02G25G30G21
  14364248.87147  11366496.48145  22894092.9534                   22894092.8014
   2986768.31647   2344373.53545  22143947.3914                   22143946.9344
  32617450.99646  25433001.57443  24619514.5864                   24619515.5474
 -31814328.65647 -24750037.44445  22754206.6174                   22754206.0004
  -6857776.64148  -5327552.47346  21301630.3594                   21301629.0744
 -34263824.59048 -26657827.09646  21169283.0394                   21169281.7544
 -54214649.51647 -42233730.06045  22320550.1804                   22320546.6684
 -16902499.93748 -13130291.97746  21994843.8284                   21994845.3914
 -12140621.39847  -9419210.95645  22304853.8914                   22304853.7234
  26135195.43846  20378912.65743  24690531.8754                   24690532.3134
 11  8 25  2 41  0.0000000  0 10G15G26G18G12G29G05G02G25G30G21
  14170655.60947  11215644.72445  22857253.6954                   22857253.2384
   2813169.13347   2209101.51945  22110912.2114                   22110911.6024
  32428137.85946  25285485.15443  24583489.0784                   24583489.3484
 -31825603.76647 -24758823.27045  22752060.8984                   22752060.5354
  -7024993.63748  -5457851.39746  21269810.2344                   21269808.8364
 -34299175.43748 -26685373.19446  21162555.9774                   21162554.4414
 -54269532.42247 -42276495.95745  22310105.8984                   22310102.7304
 -16955535.36748 -13171618.27946  21984751.4304                   21984753.3484
 -12186410.99247  -9454891.17245  22296140.6414                   22296140.3674
  25978929.36346  20257147.02343  24660795.5704                   24660795.3164
 11  8 25  2 41 30.0000000  0 10G15G26G18G12G29G05G02G25G30G21
  13977201.21147  11064901.15245  22820440.3364                   22820440.0234
   2639970.59447   2074141.67145  22077953.8524                   22077953.2274
  32238997.30146  25138103.20743  24547496.9384                   24547497.1844
 -31836704.83247 -24767473.47745  22749948.5474                   22749948.0434
  -7191936.86347  -5587937.00346  21238041.8914                   21238040.8244
 -34334204.69548 -26712668.71246  21155890.5314                   21155889.3484
 -54324315.77747 -42319184.29845  22299680.8134                   22299678.1644
 -17008129.69948 -13212600.88946  21974742.9144                   21974745.2424
 -12231793.35547  -9490254.07145  22287504.1024                   22287503.9184
  25822649.71946  20135370.78143  24631056.6174                   24631055.9454
 11  8 25  2 42  0.0000000  0 10G15G26G18G12G29G05G02G25G30G21
  13783888.05547  10914267.64645  22783653.4224                   22783653.7074
   2467175.39847   1939496.12545  22045071.7504                   22045071.1994
  32050029.75446  24990855.96942  24511536.5944                   24511536.5864
 -31847635.60547 -24775991.00945  22747868.3524                   22747868.3554
  -7358604.71548  -5717808.03546  21206326.0704                   21206325.0474
 -34368915.93748 -26739716.43646  21149285.0554                   21149283.8244
 -54378999.81647 -42361795.25045  22289274.9694                   22289271.6884
 -17060286.24248 -13253242.36646  21964818.0164                   21964820.1024
 -12276772.30147  -9525302.60145  22278944.9384                   22278944.9144
  25666355.16846  20013583.01043  24601314.6724                   24601314.3594
 11  8 25  2 42 30.0000000  0 10G15G26G18G12G29G05G02G25G30G21
  13590718.93447  10763746.33245  22746894.1174                   22746894.7894
   2294787.16047   1805167.68545  22012267.0234                   22012266.7814
  31861236.85246  24843744.78542  24475610.3984                   24475608.7194
 -31858399.73047 -24784378.65445  22745820.2814                   22745819.9344
  -7524994.98048  -5847462.76546  21174663.1884                   21174662.0744
 -34403311.43048 -26766518.10646  21142739.7814                   21142738.6684
 -54433584.15647 -42404328.51245  22278887.6564                   22278884.5824
 -17112007.43748 -13293544.60546  21954975.6724                   21954977.8164
 -12321350.55547  -9560038.91145  22270462.5474                   22270461.9884
  25510045.12946  19891783.05443  24571569.2734                   24571569.9694
 11  8 25  2 43  0.0000000  0 10G15G26G18G12G29G05G02G25G30G21
  13397701.43047  10613343.19545  22710164.3984                   22710164.8954
   2122813.09447   1671161.97545  21979541.9064                   21979541.3674
  31672623.20345  24696773.30542  24439717.5474                   24439716.4454
 -31868996.14147 -24792635.63545  22743803.5474                   22743803.1484
  -7691101.10248  -5976896.07646  21143054.5314                   21143053.0314
 -34437389.52348 -26793072.46846  21136255.2114                   21136253.7544
 -54488064.52047 -42446780.73745  22268520.4534                   22268517.2114
 -17163291.90248 -13333506.52146  21945216.8134                   21945218.1954
 -12365527.15247  -9594462.25745  22262055.3134                   22262055.2074
  25353723.07046  19769973.78443  24541823.0784                   24541822.0984
 11  8 25  2 43 30.0000000  0 10G15G26G18G12G29G05G02G25G30G21
  13204842.48847  10463063.58544  22673464.8524                   22673464.9104
   1951260.98047   1537485.06045  21946896.3134                   21946895.7974
  31484194.48845  24549945.96542  24403859.8754                   24403860.8914
 -31879423.53147 -24800760.91645  22741819.2504                   22741819.1954
  -7856916.42648  -6106102.78646  21111500.7034                   21111499.5984
 -34471148.64148 -26819378.27546  21129830.8284                   21129829.4104
 -54542436.41047 -42489148.45645  22258173.8984                   22258170.3204
 -17214137.89548 -13373126.78446  21935541.1884                   21935542.4104
 -12409300.62147  -9628571.45945  22253725.6804                   22253725.4344
  25197392.84846  19648158.13843  24512073.5394                   24512072.7114
 11  8 25  2 44  0.0000000  0 10G15G26G18G12G29G05G02G25G30G21
  14587566.48847  11540510.96645  22936588.0314                   22936588.1374
   3355554.85247   2631740.07345  22214124.6724                   22214124.0824
  32871373.52045  25630864.92642  24667831.1644                   24667833.3714
 -30314269.48047 -23581160.38445  23039658.6484                   23039657.8954
  -6447018.40648  -5007480.92246  21379795.2424                   21379794.2234
 -32929175.14548 -25617840.49046  21423258.8364                   21423257.1214
 -53021282.76247 -41303833.91645  22547639.9304                   22547636.4614
 -15689131.21948 -12184809.89946  22225740.1954                   22225741.8054
 -10877257.41847  -8434771.54145  22545263.7664   22545263.8444   26616474.39146
  20753936.02143                  24782116.3364                   24782114.9304
 11  8 25  2 44 30.0000000  0 10G15G26G18G12G29G05G02G25G30G21
  14395026.48847  11390479.90045  22899948.8984                   22899949.0904
   3184849.44547   2498722.92445  22181640.3054                   22181639.4804
  32683311.24245  25484323.16842  24632043.6804                   24632046.9414
 -30324375.30547 -23589035.10245  23037735.8364                   23037735.0864
  -6612253.19548  -5136235.26646  21348352.1414                   21348351.2424
 -32962311.21148 -25643660.81246  21416953.1724                   21416950.8984
 -53075443.79347 -41346037.33145  22537333.5394                   22537330.1884
 -15739115.27748 -12223758.54046  22216228.4694                   22216230.0984
 -10920240.78147  -8468265.08545  22537084.1254   22537084.3244   26460118.50047
  20632100.32343                  24752362.4534                   24752361.5164
 11  8 25  2 45  0.0000000  0 10G15G26G18G12G29G05G02G25G30G21
  14202653.80947  11240579.22945  22863341.7504                   22863341.8794
   3014575.91447   2366042.30045  22149238.6414                   22149237.6954
  32495437.03945  25337927.91442  24596293.3674                   24596296.2774
 -30334322.29347 -23596786.03245  23035842.4224                   23035842.2894
  -6777190.82848  -5264758.04846  21316965.3594                   21316964.1414
 -32995136.59448 -25669239.04046  21410706.5314                   21410704.9184
 -53129495.85247 -41388155.82645  22527048.2114                   22527044.7504
 -15788669.10248 -12262371.92046  22206799.0784                   22206800.6414
 -10962830.47347  -8501451.86445  22528979.7664   22528979.8094   26303752.14846
  20510256.50643                  24722606.8754                   24722605.1994
 11  8 25  2 45 30.0000000  0 10G15G26G18G12G29G05G02G25G30G21
  14010447.34447  11090808.08345  22826766.6024                   22826765.7304
   2844733.47347   2233697.60445  22116918.4924                   22116917.8484
  32307748.25846  25191677.19343  24560578.1254                   24560579.3914
 -30344117.37547 -23604418.61445  23033978.7734                   23033978.3674
  -6941832.74648  -5393050.41546  21285635.0944                   21285633.7734
 -33027657.39148 -25694579.91346  21404517.9454                   21404516.5984
 -53183442.52747 -41430192.18345  22516782.1484                   22516779.6414
 -15837799.23848 -12300655.16946  22197449.6484                   22197451.5664
 -11005033.24647  -8534337.15445  22520948.8204   22520948.6914   26147371.04746
  20388401.18643                  24692849.1644                   24692847.4144
 11  8 25  2 46  0.0000000  0 10G15G26G18G12G29G05G02G25G30G21
  13818412.69547  10941170.81545  22790223.3674                   22790222.0634
   2675327.72747   2101693.19045  22084681.7424                   22084680.8164
  32120248.30946  25045573.59043  24524897.5554                   24524898.7304
 -30353761.25047 -23611933.35345  23032143.5944                   23032143.3444
  -7106174.50448  -5521108.90446  21254361.8054                   21254360.5164
 -33059874.08648 -25719683.83246  21398387.9304                   21398386.3404
 -53237280.89847 -41472144.19045  22506537.1724                   22506533.9414
 -15886506.17648 -12338608.65446  22188181.0634                   22188183.0004
 -11046849.93747  -8566921.61645  22512992.0394   22512991.1764   25990976.70746
  20266535.55443                  24663088.1724                   24663086.2194
 11  8 25  2 46 30.0000000  0 10G15G26G18G12G29G05G02G25G30G21
  13626552.37947  10791669.40145  22753713.4614                   22753712.1134
   2506361.72347   1970031.42645  22052528.7424                   22052527.8984
  31932938.09446  24899617.80143  24489253.6174                   24489254.7974
 -30363257.35547 -23619332.97046  23030336.8134                   23030336.3134
  -7270214.51648  -5648932.26546  21223146.0394                   21223144.8484
 -33091789.59048 -25744553.05246  21392314.3914                   21392312.7194
 -53291011.37547 -41514012.07645  22496312.4384                   22496309.1644
 -15934792.84048 -12376234.66246  22178992.6484                   22178994.1414
 -11088283.80547  -8599207.75445  22505106.9304   22505106.6094   25834568.31646
  20144658.89043                  24633324.5234                   24633322.6994
 11  8 25  2 47  0.0000000  0 10G15G26G18G12G29G05G02G25G30G21
  13434871.14547  10642307.51445  22717237.0474                   22717236.4104
   2337840.19947   1838716.00145  22020459.9614                   22020459.0044
  31745820.23846  24753811.97243  24453645.5554                   24453647.5434
 -30372607.51247 -23626618.84445  23028557.7504                   23028557.0204
  -7433948.35548  -5776517.05546  21191988.7194                   21191987.4574
 -33123404.96148 -25769188.41146  21386297.8914                   21386296.6024
 -53344632.13747 -41555794.49745  22486108.7194                   22486105.6334
 -15982660.47748 -12413534.13946  22169883.6334                   22169885.0744
 -11129336.49247  -8631196.89945  22497295.1724   22497294.7154   25678146.71146
  20022771.99843                  24603557.7114                   24603556.2894
 11  8 25  2 47 30.0000000  0 10G15G26G18G12G29G05G02G25G30G21
  13243373.51646  10493088.69945  22680796.4924                   22680795.2664
   2169768.27347   1707750.92445  21988476.6334                   21988475.6374
  31558897.36746  24608158.03943  24418075.0944                   24418076.7854
 -30381813.15247 -23633792.11545  23026805.6644                   23026805.2464
  -7597372.41048  -5903860.45446  21160890.1254                   21160888.9104
 -33154721.03948 -25793590.56146  21380338.5704                   21380337.2384
 -53398140.89147 -41597489.64245  22475926.4774                   22475923.3834
 -16030110.09048 -12450507.90045  22160854.1804                   22160855.6094
 -11170009.28947  -8662890.00645  22489555.7424   22489554.8484   25521712.89146
  19900875.57743                  24573789.3444                   24573788.8404
 11  8 25  2 48  0.0000000  0 10G15G26G18G12G29G05G02G25G30G21
  13052060.46147  10344013.70545  22644390.5164                   22644389.7894
   2002146.75047   1577136.82145  21956578.9694                   21956578.5514
  31372168.42646  24462655.24343  24382541.8444                   24382542.4344
 -30390879.67247 -23640856.97445  23025080.4534                   23025079.9574
  -7760486.52048  -6030962.33246  21129850.6954                   21129849.4734
 -33185742.52748 -25817763.13646  21374435.4064                   21374434.0554
 -53451539.86747 -41639099.21945  22465764.6804                   22465761.8914
 -16077146.55548 -12487159.71445  22151903.6884                   22151904.8164
 -11210307.46547  -8694291.21045  22481887.1484   22481886.3794   25365264.33646
  19778967.62543                  24544017.8054                   24544017.3754
 11  8 25  2 48 30.0000000  0 10G15G26G18G12G29G05G02G25G30G21
  12860936.40246  10195085.96145  22608020.4924                   22608020.1564
   1834981.03147   1446877.89645  21924768.7664                   21924767.6684
  31185636.37546  24317305.78943  24347045.4304                   24347046.1134
 -30399808.46147 -23647814.53245  23023381.4144                   23023380.7544
  -7923286.99248  -6157819.83246  21098870.6334                   21098868.6684
 -33216470.33248 -25841706.88346  21368588.0164                   21368586.5204
 -53504826.79347 -41680621.51645  22455624.6174                   22455621.5824
 -16123770.82848 -12523490.34245  22143031.1644                   22143032.7814
 -11250232.23047  -8725401.44345  22474289.7344   22474289.5704   25208802.19946
  19657049.16843                  24514244.7114                   24514243.8094
 11  8 25  2 49  0.0000000  0 10G15G26G18G12G29G05G02G25G30G21
  12670004.49646  10046307.94645  22571687.0084                   22571687.2274
   1668274.00447   1316976.37145  21893044.5164                   21893044.3914
  30999302.11746  24172110.57543  24311586.5164                   24311587.3094
 -30408602.79347 -23654667.28645  23021707.7344                   23021707.6134
  -8085771.57848  -6284431.17646  21067950.5474                   21067949.4774
 -33246907.21548 -25865423.92846  21362796.1644                   21362794.9264
 -53558001.46947 -41722056.31945  22445505.5234                   22445502.2974
 -16169986.02048 -12559502.20946  22134236.8364                   22134238.0004
 -11289787.06247  -8756223.43045  22466762.6884   22466762.6414   25052325.49646
  19535119.31843                  24484467.4384                   24484466.6914
 11  8 25  2 49 30.0000000  0 10G15G26G18G12G29G05G02G25G30G21
  12479266.62547   9897681.09345  22535390.8444                   22535391.0354
   1502028.04747   1187434.13945  21861409.4614                   21861409.0664
  30813165.64846  24027069.35743  24276166.3284                   24276166.0864
 -30417266.91047 -23661418.59445  23020059.1024                   23020058.7814
  -8247938.40648  -6410794.91946  21037091.2504                   21037090.0784
 -33277056.57048 -25888916.94046  21357058.9144                   21357057.5234
 -53611064.34047 -41763404.02045  22435408.1334                   22435404.9024
 -16215795.67248 -12595198.05646  22125519.4454                   22125520.8874
 -11328975.74247  -8786760.08245  22459304.9774   22459305.1994   24895833.07446
  19413177.20243                  24454687.7734                   24454687.4804
 11  8 25  2 50  0.0000000  0 10G15G26G18G12G29G05G02G25G30G21
  12288729.42647   9749210.64145  22499133.3984                   22499133.1174
   1336249.87147   1058256.38345  21829862.9304                   21829862.4614
  30627231.50446  23882185.80743  24240783.2274                   24240783.8094
 -30425800.35247 -23668068.07145  23018435.4144                   23018435.1604
  -8409781.67247  -6536906.54246  21006293.3674                   21006292.0164
 -33306917.52748 -25912185.22646  21351376.8284                   21351375.0664
 -53664012.06247 -41804661.97745  22425332.9384                   22425329.2504
 -16261199.16447 -12630577.42445  22116879.3134                   22116881.0784
 -11367798.09847  -8817011.28145  22451917.2504   22451917.3204   24739327.71946
  19291225.08143                  24424906.5084                   24424905.6134
 11  8 25  2 50 30.0000000  0 10G15G26G18G12G29G05G02G25G30G21
  12098391.69947   9600895.61245  22462913.5314                   22462912.7384
   1170938.33247    929442.25845  21798405.3754                   21798404.6414
  30441496.80946  23737457.75043  24205440.1174                   24205440.2154
 -30434210.43747 -23674621.43245  23016834.6724                   23016834.2934
  -8571304.29747  -6662768.30146  20975556.6094                   20975555.6054
 -33336496.93748 -25935234.11446  21345748.2194                   21345746.6174
 -53716848.20747 -41845832.99745  22415278.6024                   22415275.2704
 -16306203.53147 -12665645.79646  22108314.9774                   22108317.2194
 -11406261.32047  -8846982.67645  22444597.9304   22444598.2734   24582804.50446
  19169258.97243                  24395120.7344                   24395120.0354
 11  8 25  2 51  0.0000000  0 10G15G26G18G12G29G05G02G25G30G21
  11908261.41447   9452742.23245  22426732.5394                   22426731.8524
   1006101.45747    800998.00545  21767037.8594                   21767037.1604
  30255967.14146  23592889.32843  24170134.5704                   24170135.3054
 -30442495.69947 -23681077.52245  23015258.4304                   23015257.8134
  -8732498.76248  -6788374.34646  20944882.4064                   20944881.1644
 -33365792.94148 -25958062.15946  21340173.1804                   21340171.5984
 -53769568.02747 -41886913.36045  22405246.4064                   22405243.1604
 -16350806.89548 -12700401.69546  22099827.6804                   22099829.9414
 -11444363.96147  -8876673.04945  22437347.4304   22437347.4614   24426267.60546
  19047282.31943                  24365332.7194                   24365332.1604
 11  8 25  2 51 30.0000000  0 10G15G26G18G12G29G05G02G25G30G21
  11718334.82047   9304747.55445  22390590.9064                   22390589.7814
    841736.16847    672921.21245  21735760.1564                   21735759.3204
  30070637.32047  23448476.72643  24134868.3754                   24134867.9184
 -30450665.46947 -23687443.61445  23013703.4304                   23013702.8244
  -8893368.95747  -6913727.72446  20914270.0394                   20914268.6604
 -33394813.91848 -25980675.90646  21334650.4924                   21334648.7234
 -53822177.09447 -41927907.43845  22395234.7034                   22395232.0594
 -16395018.25048 -12734852.11946  22091414.3054                   22091416.7344
 -11482115.24647  -8906089.66745  22430163.7424   22430163.7114   24269710.47346
  18925289.84943                  24335540.4304                   24335539.4654
 11  8 25  2 52  0.0000000  0 10G15G26G18G12G29G05G02G25G30G21
  13104044.54347  10384521.44045  22654282.6094                   22654281.4734
   2253274.32847   1772821.13245  22004366.9064                   22004366.0984
  31460937.40246  24531827.60643  24399433.1024                   24399433.2894
 -28883299.38347 -22466119.42545  23311963.5314                   23311962.9454
  -7478484.06648  -5811219.99046  21183513.6644                   21183512.2344
 -31848138.56248 -24775474.33846  21628972.8914                   21628971.2384
 -52299250.74647 -40741211.59545  22685038.2114                   22685035.0904
 -14863415.95748 -11541395.80546  22382868.3914                   22382870.6334
  -9944094.02347  -7707631.57745  22722839.1724   22722838.8794   25688560.78146
  20030887.56143                  24605538.7424                   24605537.3404
 11  8 25  2 52 30.0000000  0 10G15G26G18G12G29G05G02G25G30G21
  12914544.73447  10236859.32945  22618221.5704                   22618220.8954
   2089871.39148   1645494.22345  21973272.3204                   21973271.6294
  31276020.03146  24387736.29243  24364243.3444                   24364243.5944
 -28891238.39847 -22472305.71445  23310452.7974                   23310452.2584
  -7638689.16048  -5936055.09646  21153027.8364                   21153026.2464
 -31876607.95348 -24797658.28646  21623555.5704                   21623553.7304
 -52351628.30547 -40782025.28745  22675071.4774                   22675068.5554
 -14906842.31248 -11575234.56246  22374604.8834                   22374606.9654
  -9981142.62147  -7736500.63545  22715788.8284   22715789.0594   25531970.52746
  19908869.30243                  24575740.9224                   24575739.2814
 11  8 25  2 53  0.0000000  0 10G15G26G18G12G29G05G02G25G30G21
  12725261.37147  10089365.88245  22582202.4924                   22582201.1914
   1926952.69148   1518544.64345  21942270.2974                   21942268.9104
  31091308.84846  24243805.71743  24329093.8674                   24329094.3524
 -28899067.87947 -22478406.65945  23308963.1254                   23308962.9804
  -7798559.59448  -6060629.43946  21122605.2504                   21122603.8954
 -31904806.79348 -24819631.41946  21618189.4774                   21618187.6454
 -52403890.71147 -40822749.26245  22665126.5394                   22665123.3164
 -14949881.77048 -11608771.80546  22366415.1174                   22366416.6954
 -10017845.80147  -7765100.53945  22708804.9454   22708805.1294   25375362.14846
  19786836.91843                  24545938.9694                   24545937.9184
 11  8 25  2 53 30.0000000  0 10G15G26G18G12G29G05G02G25G30G21
  12536199.92247   9942045.34045  22546224.5474                   22546223.7624
   1764524.28947   1391977.09445  21911360.7664                   21911359.9024
  30906807.35546  24100038.47843  24293984.3364                   24293985.6094
 -28906788.68747 -22484422.92845  23307493.9144                   23307494.1174
  -7958090.93048  -6184939.54347  21092247.3914                   21092246.2734
 -31932735.03948 -24841393.68446  21612874.9144                   21612873.1884
 -52456035.20747 -40863381.34245  22655203.5864                   22655199.8054
 -14992534.84048 -11642007.98546  22358298.6024                   22358299.6024
 -10054204.46947  -7793432.00345  22701886.1024   22701885.9184   25218736.74246
  19664791.22243                  24516133.7344                   24516132.9304
 11  8 25  2 54  0.0000000  0 10G15G26G18G12G29G05G02G25G30G21
  12347361.00447   9794898.21445  22510289.8524                   22510289.0984
   1602586.75447   1265792.05445  21880545.0004                   21880544.6134
  30722514.38746  23956433.77843  24258914.3524                   24258915.7584
 -28914406.25047 -22490358.75345  23306044.7034                   23306044.1914
  -8117283.29348  -6308985.50346  21061953.7974                   21061953.0474
 -31960397.80948 -24862949.08946  21607610.9384                   21607608.8324
 -52508064.05947 -40903923.31945  22645302.8054                   22645298.9734
 -15034806.77748 -11674947.17846  22350254.2814                   22350255.7304
 -10090224.13347  -7821499.31145  22695032.0234   22695031.8634   25062091.78946
  19542730.30843                  24486324.8444                   24486324.5354
 11  8 25  2 54 30.0000000  0 10G15G26G18G12G29G05G02G25G30G21
  12158747.69947   9647926.87545  22474397.6884                   22474397.1604
   1441142.95347   1139991.72745  21849823.4614                   21849822.8834
  30538430.99647  23812992.38243  24223885.1484                   24223886.1374
 -28921923.71147 -22496216.55145  23304613.8754                   23304613.9304
  -8276133.98447  -6432765.24246  21031725.4454                   21031724.3874
 -31987797.81648 -24884299.75046  21602396.3754                   21602394.8244
 -52559976.91047 -40944374.91545  22635423.9454                   22635420.6174
 -15076700.50848 -11707591.65646  22342282.2974                   22342283.7074
 -10125908.01247  -7849304.97045  22688241.4384   22688241.4224   24905426.43046
  19420653.54643                  24456512.9454                   24456512.3204
 11  8 25  2 55  0.0000000  0 10G15G26G18G12G29G05G02G25G30G21
  11970363.60547   9501134.15845  22438549.6094                   22438548.8634
   1280197.10247   1014579.43845  21819196.3204                   21819195.4184
  30354558.73847  23669715.45843  24188894.9844                   24188895.6954
 -28929343.16047 -22501998.00245  23303202.2664                   23303201.7194
  -8434640.57847  -6556276.85146  21001562.6024                   21001561.4654
 -32014936.44148 -24905446.73146  21597232.1254                   21597230.5394
 -52611772.53547 -40984735.14045  22625567.9384                   22625564.7194
 -15118218.14547 -11739943.08446  22334381.7814                   22334383.6644
 -10161258.57047  -7876850.88944  22681514.3134   22681513.8674   24748741.18446
  19298561.14943                  24426696.0704                   24426696.3594
 11  8 25  2 55 30.0000000  0 10G15G26G18G12G29G05G02G25G30G21
  11782211.32447   9354522.06245  22402745.3134                   22402744.9534
   1119751.35547    889556.81945  21788664.3204                   21788663.4734
  30170898.03147  23526603.43043  24153945.9614                   24153945.8094
 -28936668.57847 -22507706.17845  23301808.1954                   23301808.1764
  -8592801.16048  -6679518.83846  20971465.6254                   20971464.3244
 -32041816.98848 -24926392.62346  21592117.2114                   21592115.4384
 -52663451.02047 -41025004.11245  22615733.4614                   22615730.2304
 -15159362.97347 -11772004.00646  22326552.3674                   22326553.9924
 -10196279.27047  -7904139.76144  22674850.0234   22674849.7774   24592035.11746
  19176452.63443                  24396876.7584                   24396875.7624
 11  8 25  2 56  0.0000000  0 10G15G26G18G12G29G05G02G25G30G21
  11594295.41047   9208094.14645  22366986.1254                   22366985.4654
    959810.28147    764927.43445  21758228.9144                   21758227.7194
  29987451.36747  23383658.17343  24119036.6174                   24119036.5744
 -28943901.86747 -22513342.55945  23300431.5704                   23300431.8444
  -8750611.98047  -6802488.27546  20941435.4224                   20941434.3674
 -32068440.56648 -24947138.26646  21587051.3984                   21587048.8484
 -52715010.90647 -41065180.65445  22605922.1334                   22605918.6334
 -15200136.69147 -11803775.76046  22318793.3364                   22318795.1764
 -10230972.07847  -7931173.14944  22668248.0234   22668247.5704   24435309.00046
  19054328.47743                  24367052.3524                   24367051.7814
 11  8 25  2 56 30.0000000  0 10G15G26G18G12G29G05G02G25G30G21
  11406619.00847   9061852.86545  22331272.8134                   22331271.7074
    800377.54747    640694.16945  21727889.6174                   21727888.1334
  29804219.84447  23240880.59043  24084168.6094                   24084168.3984
 -28951045.77047 -22518909.28845  23299071.9924                   23299072.5474
  -8908070.45347  -6925183.15846  20911472.2114                   20911470.6484
 -32094809.41448 -24967685.41846  21582033.2664                   21582031.3984
 -52766451.41847 -41105264.16945  22596133.1564                   22596129.8524
 -15240541.88347 -11835260.34346  22311104.5474                   22311106.5594
 -10265339.89547  -7957953.29744  22661708.6024   22661708.0124   24278562.64146
  18932188.54144                  24337224.4614                   24337223.2974
 11  8 25  2 57  0.0000000  0 10G15G26G18G12G29G05G02G25G30G21
  11219183.80547   8915799.52546  22295604.6724                   22295604.0434
    641454.44147    516858.02045  21697647.3444                   21697646.1804
  29621203.23047  23098270.43843  24049340.8364                   24049341.8984
 -28958104.68747 -22524409.80145  23297729.3284                   23297728.8674
  -9065176.10248  -7047603.11546  20881575.6254                   20881574.3554
 -32120927.30148 -24988037.02946  21577063.3364                   21577061.1954
 -52817773.54747 -41145255.44945  22586366.7814                   22586363.4144
 -15280582.96547 -11866461.21246  22303484.8134                   22303486.5824
 -10299387.31247  -7984483.77044  22655229.2894   22655228.8014   24121794.06347
  18810031.31044                  24307392.5394                   24307391.1374
 11  8 25  2 57 30.0000000  0 10G15G26G18G12G29G05G02G25G30G21
  11031993.68447   8769937.15346  22259983.2344                   22259982.6914
    483045.09447    393422.20245  21667503.0944                   21667502.4024
  29438403.14146  22955829.01143  24014555.2894                   24014554.9024
 -28965080.83647 -22529845.81745  23296401.3364                   23296401.4494
  -9221925.55947  -7169745.51046  20851747.4694                   20851745.9184
 -32146795.99648 -25008194.44746  21572140.5004                   21572138.6484
 -52868976.15647 -41185153.60045  22576622.9774                   22576619.9414
 -15320261.88347 -11897379.86546  22295934.2504                   22295935.9184
 -10333116.64147  -8010766.38144  22648810.8594   22648811.0554   23965003.59446
  18687857.00744                  24277556.3914                   24277555.3164
 11  8 25  2 58  0.0000000  0 10G15G26G18G12G29G05G02G25G30G21
  10845053.61747   8624269.64146  22224410.1484                   22224409.0234
    325154.25847    270390.42245  21637457.2504                   21637456.7074
  29255822.59446  22813558.66843  23979810.6804                   23979811.3754
 -28971975.07447 -22535217.99545  23295089.4224                   23295089.9384
  -9378314.23047  -7291606.79646  20821987.3284                   20821986.1214
 -32172416.16448 -25028158.21946  21567265.2194                   21567263.6644
 -52920056.71547 -41224956.60745  22566902.9224                   22566900.2344
 -15359579.64547 -11928017.08945  22288452.4454                   22288453.7734
 -10366529.07847  -8036802.06844  22642452.5164   22642452.9264   23808193.14547
  18565667.07543                  24247716.6564                   24247714.4804
 11  8 25  2 58 30.0000000  0 10G15G26G18G12G29G05G02G25G30G21
  10658363.91847   8478797.21846  22188884.1174                   22188883.1484
    167782.32847    147762.99945  21607510.2114                   21607509.9804
  29073459.68046  22671457.87643  23945107.4144                   23945108.5594
 -28978793.50047 -22540531.09645  23293792.0474                   23293792.1334
  -9534342.90247  -7413187.55946  20792296.1724                   20792294.9804
 -32197792.96948 -25047932.35146  21562436.3284                   21562434.8134
 -52971017.66047 -41264666.44945  22557205.4454                   22557203.0664
 -15398541.95347 -11958377.32445  22281037.8914                   22281039.2304
 -10399630.60547  -8062595.50444  22636153.5394   22636154.1174   23651359.50447
  18443459.16043                  24217871.9534                   24217869.9024
 11  8 25  2 59  0.0000000  0 10G15G26G18G12G29G05G02G25G30G21
  10471929.16047   8333523.44246  22153406.7584                   22153405.9534
     10933.67247     25543.29345  21577663.2034                   21577662.3244
  28891316.91846  22529528.68443  23910448.0944                   23910448.3364
 -28985537.53547 -22545786.26045  23292508.1724                   23292508.8874
  -9690007.81248  -7534484.88846  20762674.2194                   20762672.7544
 -32222927.74648 -25067517.88746  21557653.1254                   21557651.4774
 -53021856.81247 -41304281.37245  22547530.8984                   22547528.2344
 -15437150.23047 -11988461.70745  22273690.8284                   22273692.8594
 -10432422.90647  -8088147.95945  22629913.1884   22629914.0704   23494503.41447
  18321233.70443                  24188023.3134                   24188021.2154
 11  8 25  2 59 30.0000000  0 10G15G26G18G12G29G05G02G25G30G21
  10285755.58647   8188453.19346  22117978.7584                   22117978.1994
   -145385.50047    -96263.80845  21547916.7344                   21547915.8554
  28709398.45747  22387774.22243  23875830.0164                   23875830.4844
 -28992207.29747 -22550983.54445  23291239.6954                   23291239.7544
  -9845303.60548  -7655494.59546  20733122.3364                   20733121.1134
 -32247819.25848 -25086913.85546  21552916.5864                   21552915.1884
 -53072571.04347 -41343798.93745  22537880.1564                   22537877.4454
 -15475404.27347 -12018270.05445  22266410.8284                   22266413.1024
 -10464905.98447  -8113459.48444  22623731.7114   22623733.0594   23337627.74647
  18198993.00243                  24158170.6644                   24158168.5084
 11  8 25  3  0  0.0000000  0 10G15G26G18G12G29G05G02G25G30G21
  11675267.93847   9271190.14446  22382394.0474                   22382393.4064
   1274248.55147   1009944.57245  21818064.3134                   21818063.1024
  30103127.10247  23473796.72943  24141048.4454                   24141047.7624
 -27423389.97347 -21328528.52745  23589776.1024                   23589775.4494
  -8424807.16448  -6548614.24246  21003434.0004                   21003432.3914
 -30697053.71548 -23878525.10746  21848017.2274                   21848016.3484
 -51547742.41847 -40155620.77645  22828045.1954                   22828042.4774
 -13937890.11347 -10820207.08446  22558990.8054                   22558992.9024
  -8921666.46147  -6910935.21044  22917400.5234   22917401.4224   24756152.20346
  19304336.84443                  24428106.8524                   24428105.1564
 11  8 25  3  0 30.0000000  0 10G15G26G18G12G29G05G02G25G30G21
  11489615.45747   9126525.92445  22347066.0084                   22347064.7234
   1118986.94547    888961.52945  21788518.5784                   21788517.8524
  29921649.78947  23332385.95344  24106513.9614                   24106513.3634
 -27429930.27047 -21333624.91445  23588531.3594                   23588531.1604
  -8579367.81248  -6669051.09646  20974022.0004                   20974020.3244
 -30721476.79348 -23897556.07046  21843369.9304                   21843368.7074
 -51598215.32047 -40194950.33345  22818440.5704                   22818437.8984
 -13975454.85947 -10849478.33046  22551842.4614                   22551844.9104
  -8953551.02747  -6935780.36644  22911333.3284   22911334.3554   24599225.12546
  19182056.09744                  24398244.7664                   24398242.4184
 11  8 25  3  1  0.0000000  0 10G15G26G18G12G29G05G02G25G30G21
  11304225.41047   8982066.20845  22311786.9924                   22311786.0864
    964256.19547    768392.16645  21759073.9924                   21759073.7304
  29740391.98447  23191146.27743  24072021.5554                   24072021.1524
 -27436412.75847 -21338676.23845  23587297.7194                   23587297.3954
  -8733560.06248  -6789200.88846  20944680.4224                   20944678.7814
 -30745672.01648 -23916409.48946  21838765.7664                   21838764.6484
 -51648569.62947 -40234187.46745  22808858.4774                   22808855.5164
 -14012682.00047 -10878486.50446  22544758.6564                   22544760.7894
  -8985143.71147  -6960398.06744  22905321.9144   22905322.1804   24442269.57447
  19059753.17744                  24368376.8834                   24368375.2544
 11  8 25  3  1 30.0000000  0 10G15G26G18G12G29G05G02G25G30G21
  11119104.89147   8837816.52545  22276559.7814                   22276558.8874
    810062.43047    648241.21845  21729731.7344                   21729731.4804
  29559357.88347  23050080.93143  24037571.3984                   24037570.8204
 -27442837.10947 -21343682.27845  23586074.9224                   23586074.6524
  -8887378.21548  -6909059.16446  20915409.8524                   20915407.9064
 -30769638.06648 -23935084.33846  21834204.7664                   21834203.5904
 -51698801.34447 -40273329.07645  22799299.9304                   22799296.7274
 -14049570.82448 -10907231.07146  22537738.7734                   22537740.8364
  -9016444.06247  -6984787.96944  22899364.9304   22899365.5004   24285288.53547
  18937430.39444                  24338504.1174                   24338502.4774
 11  8 25  3  2  0.0000000  0 10G15G26G18G12G29G05G02G25G30G21
  10934259.19547   8693780.97146  22241384.6334                   22241383.6844
    656411.45747    528513.23445  21700493.0864                   21700492.7384
  29378551.62147  22909193.08443  24003164.6024                   24003164.7774
 -27449203.61347 -21348643.22445  23584863.8754                   23584863.4104
  -9040817.28548  -7028622.05746  20886210.9694                   20886209.5594
 -30793374.71548 -23953580.43446  21829688.0314                   21829686.4534
 -51748907.19547 -40312372.56745  22789765.5554                   22789761.7584
 -14086121.66047 -10935712.27646  22530783.3914                   22530785.3954
  -9047452.60547  -7008950.52044  22893464.5864   22893464.6604   24128284.35246
  18815089.52843                  24308626.6024                   24308625.2934
 11  8 25  3  2 30.0000000  0 10G15G26G18G12G29G05G02G25G30G21
  10749686.57047   8549958.21846  22206261.8674                   22206260.6684
    503301.21947    409206.59345  21671356.7814                   21671356.5824
  29197969.14147  22768479.58343  23968801.2504                   23968800.7464
 -27455520.03547 -21353565.15645  23583661.7274                   23583661.3524
  -9193879.70348  -7147891.45946  20857084.4534                   20857082.7854
 -30816889.41848 -23971903.58446  21825213.2274                   21825211.5204
 -51798891.72747 -40351321.54845  22780253.7194                   22780250.1764
 -14122342.29747 -10963936.16846  22523890.8674                   22523892.2974
  -9078177.45747  -7032891.96544  22887617.9844   22887617.7304   23971251.67246
  18692726.50143                  24278744.5164                   24278742.9104
 11  8 25  3  3  0.0000000  0 10G15G26G18G12G29G05G02G25G30G21
  10565391.66447   8406351.86446  22171191.6644                   22171190.2974
    350736.34447    290324.89846  21642325.1954                   21642324.6844
  29017612.53147  22627942.09043  23934480.1804                   23934480.3794
 -27461787.91447 -21358449.27745  23582469.1254                   23582469.0744
  -9346561.61348  -7266864.35746  20828029.9774                   20828028.1914
 -30840182.86748 -23990054.32946  21820780.7584                   21820779.2894
 -51848753.12947 -40390174.60445  22770765.5004                   22770761.8874
 -14158234.31247 -10991903.99145  22517061.2274                   22517062.1994
  -9108620.26647  -7056613.66844  22881824.8754   22881824.9384   23814191.68846
  18570342.16743                  24248856.2974                   24248855.3754
 11  8 25  3  3 30.0000000  0 10G15G26G18G12G29G05G02G25G30G21
  10381381.01247   8262967.01346  22136175.5704                   22136174.6024
    198722.87547    171872.87945  21613398.3134                   21613397.1684
  28837486.19947  22487584.02043  23900203.1724                   23900203.2734
 -27468006.60246 -21363295.08545  23581285.2814                   23581285.7974
  -9498857.81248  -7385536.70846  20799048.9844                   20799047.4414
 -30863254.14148 -24008031.95346  21816390.3594                   21816389.3714
 -51898487.06647 -40428928.31145  22761301.0394                   22761297.9774
 -14193797.11747 -11019615.29045  22510293.5784                   22510295.0944
  -9138780.71547  -7080115.36444  22876085.5394   22876085.6644   23657107.69146
  18447939.10543                  24218964.9924                   24218962.7304
 11  8 25  3  4  0.0000000  0 10G15G26G18G12G29G05G02G25G30G21
  10197650.97747   8119800.82146  22101212.6564                   22101211.6094
     47257.13747     53847.65245  21584575.2034                   21584574.1484
  28657584.56646  22347401.10843  23865969.0084                   23865969.2154
 -27474186.23447 -21368110.43645  23580109.6174                   23580109.5514
  -9650772.29747  -7503911.61247  20770140.3984                   20770139.2704
 -30886112.21548 -24025843.43746  21812040.4064                   21812039.5354
 -51948100.04347 -40467587.78345  22751860.2734                   22751856.9884
 -14229040.45347 -11047077.63745  22503586.5474                   22503588.8554
  -9168668.79347  -7103404.82344  22870398.7424   22870398.7774   23499992.19146
  18325511.50643                  24189066.9454                   24189064.3834
 11  8 25  3  4 30.0000000  0 10G15G26G18G12G29G05G02G25G30G21
  10014208.93047   7976859.02346  22066304.9614                   22066303.8984
   -103653.42648    -63744.96245  21555857.5944                   21555856.8284
  28477913.02746  22207397.45343  23831778.5234                   23831778.5594
 -27480324.51647 -21372893.57345  23578942.3914                   23578941.5594
  -9802297.96148  -7621983.55246  20741305.8674                   20741304.9224
 -30908754.95348 -24043487.13546  21807731.6484                   21807730.2274
 -51997586.77047 -40506148.88345  22742443.2894                   22742440.2034
 -14263962.53947 -11074289.69045  22496941.2034                   22496943.4414
  -9198282.91047  -7126480.81044  22864763.1254   22864763.3984   23342850.03546
  18203063.10843                  24159163.1484                   24159161.3164
 11  8 25  3  5  0.0000000  0 10G15G26G18G12G29G05G02G25G30G21
   9831055.67247   7834142.26146  22031451.9534                   22031450.6524
   -254008.78148   -180904.95645  21527245.9384                   21527245.0704
  28298469.38746  22067571.38443  23797631.6724                   23797631.2034
 -27486427.54347 -21377649.24145  23577780.5084                   23577780.3874
  -9953435.91448  -7739753.37547  20712545.3364                   20712544.5394
 -30931187.72748 -24060967.20746  21803463.0704                   21803461.2624
 -52046949.76647 -40544613.56944  22733049.7194                   22733046.0664
 -14298569.34447 -11101256.05045  22490355.8364                   22490358.4534
  -9227629.20347  -7149348.06345  22859178.7734   22859178.4774   23185677.88346
  18080591.36143                  24129254.5554                   24129252.0944
 11  8 25  3  5 30.0000000  0 10G15G26G18G12G29G05G02G25G30G21
   9648198.85947   7691656.47746  21996655.1804                   21996654.1724
   -403801.39548   -297626.44046  21498741.7274                   21498740.7814
  28119260.17246  21927927.95843  23763528.8204                   23763528.5044
 -27492493.08647 -21382375.70745  23576626.2734                   23576626.2774
 -10104178.70748  -7857215.27247  20683860.2344                   20683859.3634
 -30953407.52348 -24078281.32146  21799234.5474                   21799232.7624
 -52096183.51647 -40582977.55244  22723680.6954                   22723676.9774
 -14332858.81647 -11127975.13845  22483830.3834                   22483833.1454
  -9256705.85247  -7172005.22044  22853645.4304   22853645.6414   23028480.43047
  17958099.92043                  24099341.0554                   24099338.8634
 11  8 25  3  6  0.0000000  0 10G15G26G18G12G29G05G02G25G30G21
   9465637.60547   7549401.00246  21961914.7194                   21961913.8364
   -553032.28147   -413910.24046  21470343.6334                   21470343.4614
  27940281.74246  21788464.44343  23729470.5084                   23729469.8524
 -27498528.62947 -21387078.83145  23575477.8204                   23575478.2034
 -10254528.02748  -7974370.56247  20655249.4304                   20655248.3794
 -30975421.24248 -24095434.87346  21795045.2344                   21795043.9224
 -52145291.78147 -40621243.73044  22714335.8754                   22714331.9804
 -14366838.16047 -11154452.57845  22477364.4144                   22477366.7504
  -9285520.16847  -7194457.96744  22848162.6954   22848162.5314   22871253.19947
  17835585.26743                  24069421.5164                   24069419.3954
 11  8 25  3  6 30.0000000  0 10G15G26G18G12G29G05G02G25G30G21
   9283374.33647   7407377.72346  21927231.1954                   21927230.5944
   -701699.55547   -529754.85145  21442053.3754                   21442052.4224
  27761534.45746  21649180.99343  23695455.2814                   23695454.6134
 -27504537.28547 -21391760.97845  23574334.3444                   23574334.8054
 -10404482.32447  -8091218.04447  20626714.0784                   20626713.0514
 -30997231.48048 -24112429.86046  21790895.5234                   21790894.1054
 -52194274.54347 -40659412.15144  22705015.1954                   22705011.0274
 -14400510.79347 -11180690.99745  22470956.5704                   22470958.5944
  -9314075.94147  -7216709.24745  22842728.5314   22842728.2034   22713995.13347
  17713046.53543                  24039496.5084                   24039494.5864
 11  8 25  3  7  0.0000000  0 10G15G26G18G12G29G05G02G25G30G21
   9101412.95747   7265589.69346  21892605.2814                   21892604.6844
   -849799.48847   -645157.35745  21413870.9224                   21413869.7974
  27583020.02746  21510078.99644  23661485.8444                   23661484.7344
 -27510520.98047 -21396423.66545  23573196.0084                   23573195.0594
 -10554038.51247  -8207755.29546  20598254.7034                   20598253.0554
 -31018839.88348 -24129267.58246  21786783.4774                   21786781.9804
 -52243130.21947 -40697481.49744  22695718.0084                   22695714.1414
 -14433878.87147 -11206692.09545  22464607.2504                   22464608.7704
  -9342375.37147  -7238760.77945  22837343.1884   22837342.5744   22556707.00446
  17590484.41143                  24009565.0704                   24009563.5044
 11  8 25  3  7 30.0000000  0 10G15G26G18G12G29G05G02G25G30G21
  10495183.08247   8351644.39446  22157831.0554                   22157830.1374
    578096.16447    467488.62946  21685590.1174                   21685589.1254
  28980165.75046  22598764.14244  23927353.6884                   23927353.1524
 -25941062.26247 -20173468.88945  23871854.0634                   23871853.6724
  -9127768.65247  -7096376.15746  20869664.6804                   20869662.9804
 -29464827.64548 -22918348.96046  22082502.0234                   22082499.9924
 -50716436.61747 -39507850.11844  22986238.0314                   22986233.9804
 -12891523.93447 -10004857.09945  22758107.7274                   22758109.2074
  -7795000.39547  -6033014.06044  23131798.7734   23131798.9614   23974814.16846
  18695503.04143                  24279421.9694                   24279420.0124
 11  8 25  3  8  0.0000000  0 10G15G26G18G12G29G05G02G25G30G21
  10313830.90648   8210331.06046  22123320.5554                   22123319.3244
    431135.44547    352973.80645  21657624.3284                   21657623.1414
  28802115.75846  22460023.98644  23893471.3444                   23893471.4024
 -25947009.01247 -20178102.77745  23870722.6884                   23870722.4224
  -9276525.57448  -7212290.60546  20841357.0474                   20841355.4884
 -29486043.21948 -22934880.58246  22078464.9064                   22078462.6884
 -50765041.02747 -39545723.70644  22976988.3674                   22976984.8364
 -12924295.88347 -10030393.70245  22751871.3364                   22751873.2854
  -7822800.72747  -6054676.64745  23126508.5314   23126508.9494   23817461.15246
  18572890.32644                  24249478.3984                   24249477.5784
 11  8 25  3  8 30.0000000  0 10G15G26G18G12G29G05G02G25G30G21
  10132792.41448   8069262.16046  22088870.3054                   22088868.9694
    284753.11748    238909.67645  21629768.5314                   21629767.4064
  28624304.09046  22321469.60444  23859634.9694                   23859635.3324
 -25952937.02347 -20182722.05044  23869594.3984                   23869594.3164
  -9424874.73448  -7327887.31446  20813127.1094                   20813125.2854
 -29507061.23448 -22951258.28446  22074465.2814                   22074463.0514
 -50813514.64547 -39583495.37144  22967764.9694                   22967760.7544
 -12956769.48847 -10055697.83045  22745692.0004                   22745693.6604
  -7850351.56646  -6076144.89944  23121265.5784   23121266.6524   23660080.13746
  18450255.76644                  24219529.9844                   24219529.0204
 11  8 25  3  9  0.0000000  0 10G15G26G18G12G29G05G02G25G30G21
   9952068.75448   7928438.58346  22054479.6094                   22054478.7424
    138949.64548    125296.60745  21602023.3364                   21602021.9734
  28446729.69946  22183100.05243  23825843.5314                   23825842.6374
 -25958850.88347 -20187330.32644  23868469.1414                   23868468.6414
  -9572816.28548  -7443166.41346  20784974.6564                   20784972.7894
 -29527885.85248 -22967485.27246  22070502.7504                   22070500.4264
 -50861858.45747 -39621165.90944  22958564.5084                   22958561.3874
 -12988949.98447 -10080773.57345  22739568.3754                   22739570.7774
  -7877658.26647  -6097422.84845  23116069.4774   23116070.4064   23502668.80147
  18327597.65744                  24189575.7274                   24189574.4384
 11  8 25  3  9 30.0000000  0 10G15G26G18G12G29G05G02G25G30G21
   9771662.60248   7787862.41846  22020149.3594                   22020148.3164
     -6272.91048     12136.20946  21574388.7344                   21574387.4184
  28269392.44946  22044915.28843  23792096.9384                   23792096.8094
 -25964754.16447 -20191930.34244  23867345.3444                   23867345.0744
  -9720348.01648  -7558126.16046  20756900.2034                   20756898.6644
 -29548519.78148 -22983563.65646  22066576.5004                   22066574.1254
 -50910072.62947 -39658735.40244  22949390.2194                   22949386.7704
 -13020840.62147 -10105623.43445  22733499.5084                   22733501.5234
  -7904724.30947  -6118513.29044  23110919.0784   23110919.7344   23345226.44546
  18204915.35344                  24159615.6884                   24159614.3594
 11  8 25  3 10  0.0000000  0 10G15G26G18G12G29G05G02G25G30G21
   9591578.68848   7647537.35546  21985880.4844                   21985879.2934
   -150909.45748   -100567.57746  21546865.2194                   21546864.0904
  28092295.32446  21906917.54643  23758396.4224                   23758395.0004
 -25970647.71947 -20196522.78144  23866224.1724                   23866223.8324
  -9867465.39848  -7672763.03646  20728904.8754                   20728903.0474
 -29568963.56648 -22999493.87746  22062685.7034                   22062684.0084
 -50958154.52747 -39696201.81844  22940240.7034                   22940237.5864
 -13052442.51247 -10130248.32645  22727486.1564                   22727488.0354
  -7931550.88347  -6139417.11244  23105813.8364   23105814.4694   23187754.46147
  18082209.94544                  24129649.8284                   24129648.5204
 11  8 25  3 10 30.0000000  0 10G15G26G18G12G29G05G02G25G30G21
   9411819.46548   7507465.28146  21951673.4774                   21951672.3364
   -294958.81648   -212813.80546  21519453.3834                   21519452.5944
  27915438.46946  21769107.07343  23724741.7664                   23724739.9454
 -25976534.85247 -20201110.23244  23865103.8524                   23865104.2774
 -10014167.98848  -7787076.72747  20700988.5944                   20700986.8284
 -29589220.20348 -23015278.27146  22058831.1564                   22058829.4964
 -51006104.52347 -39733565.46844  22931115.4304                   22931112.7854
 -13083759.56647 -10154651.25845  22721526.8834                   22721528.1294
  -7958142.09847  -6160137.56344  23100753.5554   23100754.6954   23030251.67647
  17959480.56044                  24099677.1804                   24099676.6254
 11  8 25  3 11  0.0000000  0 10G15G26G18G12G29G05G02G25G30G21
   9232387.06348   7367647.86446  21917528.6414                   21917527.4534
   -438418.84048   -324600.82046  21492154.0004                   21492153.1214
  27738821.61346  21631483.62143  23691133.4844                   23691132.0044
 -25982419.90247 -20205696.07344  23863984.0554                   23863984.5004
 -10160454.23848  -7901065.98147  20673151.0004                   20673149.3874
 -29609292.94148 -23030919.35745  22055011.1334                   22055009.5084
 -51053923.22347 -39770826.82744  22922015.9694                   22922012.8014
 -13114795.73847 -10178835.34745  22715620.6094                   22715622.4264
  -7984502.07847  -6180677.83744  23095737.7504   23095738.1094   22872717.40646
  17836726.64244                  24069699.7274                   24069698.8754
 11  8 25  3 11 30.0000000  0 10G15G26G18G12G29G05G02G25G30G21
   9053282.53548   7228085.93146  21883445.9454                   21883445.1334
   -581289.26648   -435928.39946  21464966.3594                   21464965.5514
  27562443.55146  21494046.29443  23657569.3364                   23657568.5004
 -25988307.58247 -20210283.97044  23862863.3284                   23862864.0864
 -10306323.91048  -8014730.63547  20645392.7814                   20645391.3204
 -29629185.97748 -23046420.41846  22051225.4614                   22051223.6454
 -51101612.00047 -39807986.91544  22912941.1334                   22912937.6294
 -13145556.03947 -10202804.43745  22709767.0944                   22709768.7974
  -8010635.98847  -6201041.94945  23090764.7814   23090765.3244   22715149.50046
  17713946.55244                  24039714.7894                   24039714.5704
 11  8 25  3 12  0.0000000  0 10G15G26G18G12G29G05G02G25G30G21
   8874513.33248   7088785.29746  21849427.1564                   21849426.2624
   -723562.82048   -546790.87945  21437892.4224                   21437891.7384
  27386309.84846  21356799.31743  23624052.3134                   23624051.2384
 -25994195.94947 -20214872.37244  23861743.4384                   23861743.6724
 -10451770.21148  -8128065.39347  20617715.2974                   20617714.1764
 -29648897.13348 -23061779.76346  22047475.1414                   22047472.7814
 -51149165.94547 -39845041.94344  22903891.7194                   22903889.1294
 -13176038.93047 -10226557.38545  22703966.7664                   22703968.2304
  -8036542.53547  -6221228.89944  23085835.2814   23085835.2504   22557552.12946
  17591143.42644                  24009725.2114                   24009724.2934
 11  8 25  3 12 30.0000000  0 10G15G26G18G12G29G05G02G25G30G21
   8696082.69948   6949748.47046  21815473.0394                   21815471.7344
   -865236.92247   -657186.25745  21410932.8984                   21410931.7974
  27210421.23847  21219743.35643  23590582.1094                   23590579.9024
 -26000087.57447 -20219463.34044  23860622.3914                   23860622.5164
 -10596790.32848  -8241068.06547  20590118.6804                   20590117.6604
 -29668428.50848 -23076999.01446  22043758.0474                   22043755.8674
 -51196584.02047 -39881991.10944  22894868.3834                   22894866.0634
 -13206247.12947 -10250096.27745  22698218.1724                   22698220.4454
  -8062224.39547  -6241240.77045  23080947.8444   23080947.5664   22399925.38346
  17468317.46943                  23979729.6954                   23979728.5594
 11  8 25  3 13  0.0000000  0 10G15G26G18G12G29G05G02G25G30G21
   8517993.51648   6810977.71446  21781583.7974                   21781582.7664
  -1006308.96147   -767112.49045  21384087.8204                   21384086.7274
  27034778.73446  21082879.12043  23557157.7584                   23557155.3134
 -26005985.62547 -20224059.30945  23859499.7424                   23859500.2424
 -10741382.58248  -8353737.34247  20562603.7034                   20562602.4264
 -29687782.42648 -23092079.99146  22040075.1884                   22040072.9384
 -51243866.09047 -39918834.28945  22885871.4064                   22885868.5784
 -13236183.96147 -10273423.72945  22692521.3674                   22692523.9024
  -8087685.16847  -6261080.35745  23076103.1484   23076103.0984   22242268.65246
  17345468.11243                  23949728.6884                   23949727.4884
 11  8 25  3 13 30.0000000  0 10G15G26G18G12G29G05G02G25G30G21
   8340245.53948   6672472.82546  21747759.7194                   21747758.4654
  -1146779.70747   -876570.18345  21357356.7034                   21357355.6294
  26859380.19146  20946205.00743  23523780.1094                   23523778.5704
 -26011895.80547 -20228664.73045  23858375.4144                   23858376.0704
 -10885547.79348  -8466073.86647  20535170.2814                   20535168.8554
 -29706963.88347 -23107026.58846  22036425.4144                   22036423.4304
 -51291014.36347 -39955573.22545  22876899.2664                   22876896.5514
 -13265855.44547 -10296544.39745  22686875.0314                   22686876.9694
  -8112931.06247  -6280752.52444  23071299.0634   23071298.9774   22084578.85546
  17222593.00343                  23919721.0634                   23919719.6804
